<?xml version="1.0" encoding="UTF-8" standalone="no" ?>
<gpx xmlns="http://www.topografix.com/GPX/1/1" xmlns:xsi="http://www.w3.org/2001/XMLSchema-instance" xsi:schemaLocation="http://www.topografix.com/GPX/1/1 http://www.topografix.com/GPX/1/1/gpx.xsd" version="1.1" creator="VisuGPX - https://www.visugpx.com">
  <metadata>
    <name>Gravel MONTAGNE  NOIRE 18/09</name>
  </metadata>
  <trk>
    <name><![CDATA[gravel pas du sant font bruno-22494710]]></name>
    <trkseg>
      <trkpt lat="43.44081" lon="2.0258">
        <ele>360</ele>
        <time>2025-09-17T07:58:19Z</time>
      </trkpt>
      <trkpt lat="43.44074" lon="2.02746">
        <ele>357</ele>
        <time>2025-09-17T07:58:40Z</time>
      </trkpt>
      <trkpt lat="43.44072" lon="2.02808">
        <ele>356</ele>
        <time>2025-09-17T07:58:48Z</time>
      </trkpt>
      <trkpt lat="43.44072" lon="2.02836">
        <ele>356</ele>
        <time>2025-09-17T07:58:52Z</time>
      </trkpt>
      <trkpt lat="43.44071" lon="2.02874">
        <ele>357</ele>
        <time>2025-09-17T07:58:57Z</time>
      </trkpt>
      <trkpt lat="43.44074" lon="2.02914">
        <ele>359</ele>
        <time>2025-09-17T07:59:02Z</time>
      </trkpt>
      <trkpt lat="43.44075" lon="2.02926">
        <ele>360</ele>
        <time>2025-09-17T07:59:04Z</time>
      </trkpt>
      <trkpt lat="43.44103" lon="2.03054">
        <ele>366</ele>
        <time>2025-09-17T07:59:21Z</time>
      </trkpt>
      <trkpt lat="43.44111" lon="2.03093">
        <ele>367</ele>
        <time>2025-09-17T07:59:26Z</time>
      </trkpt>
      <trkpt lat="43.44109" lon="2.03117">
        <ele>368</ele>
        <time>2025-09-17T07:59:29Z</time>
      </trkpt>
      <trkpt lat="43.44103" lon="2.03142">
        <ele>369</ele>
        <time>2025-09-17T07:59:33Z</time>
      </trkpt>
      <trkpt lat="43.43993" lon="2.03389">
        <ele>375</ele>
        <time>2025-09-17T08:00:10Z</time>
      </trkpt>
      <trkpt lat="43.43975" lon="2.03423">
        <ele>372</ele>
        <time>2025-09-17T08:00:16Z</time>
      </trkpt>
      <trkpt lat="43.43926" lon="2.03495">
        <ele>373</ele>
        <time>2025-09-17T08:00:28Z</time>
      </trkpt>
      <trkpt lat="43.43854" lon="2.03597">
        <ele>373</ele>
        <time>2025-09-17T08:00:47Z</time>
      </trkpt>
      <trkpt lat="43.43822" lon="2.03656">
        <ele>375</ele>
        <time>2025-09-17T08:00:56Z</time>
      </trkpt>
      <trkpt lat="43.43789" lon="2.03742">
        <ele>380</ele>
        <time>2025-09-17T08:01:09Z</time>
      </trkpt>
      <trkpt lat="43.43769" lon="2.03795">
        <ele>383</ele>
        <time>2025-09-17T08:01:17Z</time>
      </trkpt>
      <trkpt lat="43.43742" lon="2.03858">
        <ele>384</ele>
        <time>2025-09-17T08:01:26Z</time>
      </trkpt>
      <trkpt lat="43.4363" lon="2.04046">
        <ele>391</ele>
        <time>2025-09-17T08:01:57Z</time>
      </trkpt>
      <trkpt lat="43.43637" lon="2.0405">
        <ele>393</ele>
        <time>2025-09-17T08:01:59Z</time>
      </trkpt>
      <trkpt lat="43.43643" lon="2.04046">
        <ele>394</ele>
        <time>2025-09-17T08:02:00Z</time>
      </trkpt>
      <trkpt lat="43.43656" lon="2.04023">
        <ele>393</ele>
        <time>2025-09-17T08:02:04Z</time>
      </trkpt>
      <trkpt lat="43.43684" lon="2.03986">
        <ele>390</ele>
        <time>2025-09-17T08:02:11Z</time>
      </trkpt>
      <trkpt lat="43.43726" lon="2.0394">
        <ele>388</ele>
        <time>2025-09-17T08:02:20Z</time>
      </trkpt>
      <trkpt lat="43.4373" lon="2.03953">
        <ele>389</ele>
        <time>2025-09-17T08:02:22Z</time>
      </trkpt>
      <trkpt lat="43.43728" lon="2.03965">
        <ele>391</ele>
        <time>2025-09-17T08:02:24Z</time>
      </trkpt>
      <trkpt lat="43.43684" lon="2.04096">
        <ele>406</ele>
        <time>2025-09-17T08:02:42Z</time>
      </trkpt>
      <trkpt lat="43.43668" lon="2.0413">
        <ele>412</ele>
        <time>2025-09-17T08:02:48Z</time>
      </trkpt>
      <trkpt lat="43.43635" lon="2.0421">
        <ele>415</ele>
        <time>2025-09-17T08:02:59Z</time>
      </trkpt>
      <trkpt lat="43.43632" lon="2.04233">
        <ele>416</ele>
        <time>2025-09-17T08:03:02Z</time>
      </trkpt>
      <trkpt lat="43.43633" lon="2.04243">
        <ele>417</ele>
        <time>2025-09-17T08:03:04Z</time>
      </trkpt>
      <trkpt lat="43.43629" lon="2.04267">
        <ele>418</ele>
        <time>2025-09-17T08:03:07Z</time>
      </trkpt>
      <trkpt lat="43.43619" lon="2.04392">
        <ele>422</ele>
        <time>2025-09-17T08:03:23Z</time>
      </trkpt>
      <trkpt lat="43.43619" lon="2.04406">
        <ele>422</ele>
        <time>2025-09-17T08:03:25Z</time>
      </trkpt>
      <trkpt lat="43.43619" lon="2.04444">
        <ele>421</ele>
        <time>2025-09-17T08:03:30Z</time>
      </trkpt>
      <trkpt lat="43.43619" lon="2.04444">
        <ele>421</ele>
        <time>2025-09-17T08:03:30Z</time>
      </trkpt>
      <trkpt lat="43.43616" lon="2.04491">
        <ele>420</ele>
        <time>2025-09-17T08:03:36Z</time>
      </trkpt>
      <trkpt lat="43.43607" lon="2.04534">
        <ele>418</ele>
        <time>2025-09-17T08:03:42Z</time>
      </trkpt>
      <trkpt lat="43.43571" lon="2.04649">
        <ele>416</ele>
        <time>2025-09-17T08:03:58Z</time>
      </trkpt>
      <trkpt lat="43.43525" lon="2.04762">
        <ele>414</ele>
        <time>2025-09-17T08:04:15Z</time>
      </trkpt>
      <trkpt lat="43.43505" lon="2.04787">
        <ele>417</ele>
        <time>2025-09-17T08:04:19Z</time>
      </trkpt>
      <trkpt lat="43.43503" lon="2.04803">
        <ele>419</ele>
        <time>2025-09-17T08:04:22Z</time>
      </trkpt>
      <trkpt lat="43.43501" lon="2.04817">
        <ele>420</ele>
        <time>2025-09-17T08:04:23Z</time>
      </trkpt>
      <trkpt lat="43.43508" lon="2.04908">
        <ele>428</ele>
        <time>2025-09-17T08:04:35Z</time>
      </trkpt>
      <trkpt lat="43.43517" lon="2.04951">
        <ele>434</ele>
        <time>2025-09-17T08:04:41Z</time>
      </trkpt>
      <trkpt lat="43.43517" lon="2.04951">
        <ele>434</ele>
        <time>2025-09-17T08:04:41Z</time>
      </trkpt>
      <trkpt lat="43.43527" lon="2.04968">
        <ele>434</ele>
        <time>2025-09-17T08:04:44Z</time>
      </trkpt>
      <trkpt lat="43.4354" lon="2.04988">
        <ele>433</ele>
        <time>2025-09-17T08:04:47Z</time>
      </trkpt>
      <trkpt lat="43.43561" lon="2.05023">
        <ele>434</ele>
        <time>2025-09-17T08:04:53Z</time>
      </trkpt>
      <trkpt lat="43.43571" lon="2.05032">
        <ele>432</ele>
        <time>2025-09-17T08:04:55Z</time>
      </trkpt>
      <trkpt lat="43.43584" lon="2.05039">
        <ele>430</ele>
        <time>2025-09-17T08:04:58Z</time>
      </trkpt>
      <trkpt lat="43.43596" lon="2.05043">
        <ele>428</ele>
        <time>2025-09-17T08:05:00Z</time>
      </trkpt>
      <trkpt lat="43.4361" lon="2.05044">
        <ele>425</ele>
        <time>2025-09-17T08:05:02Z</time>
      </trkpt>
      <trkpt lat="43.43627" lon="2.05043">
        <ele>421</ele>
        <time>2025-09-17T08:05:06Z</time>
      </trkpt>
      <trkpt lat="43.43654" lon="2.05037">
        <ele>414</ele>
        <time>2025-09-17T08:05:10Z</time>
      </trkpt>
      <trkpt lat="43.43661" lon="2.05038">
        <ele>413</ele>
        <time>2025-09-17T08:05:12Z</time>
      </trkpt>
      <trkpt lat="43.43668" lon="2.05044">
        <ele>412</ele>
        <time>2025-09-17T08:05:13Z</time>
      </trkpt>
      <trkpt lat="43.43675" lon="2.05055">
        <ele>412</ele>
        <time>2025-09-17T08:05:15Z</time>
      </trkpt>
      <trkpt lat="43.4368" lon="2.05069">
        <ele>412</ele>
        <time>2025-09-17T08:05:17Z</time>
      </trkpt>
      <trkpt lat="43.43685" lon="2.05092">
        <ele>413</ele>
        <time>2025-09-17T08:05:20Z</time>
      </trkpt>
      <trkpt lat="43.43688" lon="2.05125">
        <ele>414</ele>
        <time>2025-09-17T08:05:24Z</time>
      </trkpt>
      <trkpt lat="43.43689" lon="2.05159">
        <ele>415</ele>
        <time>2025-09-17T08:05:29Z</time>
      </trkpt>
      <trkpt lat="43.43687" lon="2.05202">
        <ele>419</ele>
        <time>2025-09-17T08:05:34Z</time>
      </trkpt>
      <trkpt lat="43.43688" lon="2.0521">
        <ele>419</ele>
        <time>2025-09-17T08:05:35Z</time>
      </trkpt>
      <trkpt lat="43.4369" lon="2.05215">
        <ele>418</ele>
        <time>2025-09-17T08:05:36Z</time>
      </trkpt>
      <trkpt lat="43.43695" lon="2.05219">
        <ele>417</ele>
        <time>2025-09-17T08:05:37Z</time>
      </trkpt>
      <trkpt lat="43.43706" lon="2.05224">
        <ele>413</ele>
        <time>2025-09-17T08:05:39Z</time>
      </trkpt>
      <trkpt lat="43.43726" lon="2.05229">
        <ele>405</ele>
        <time>2025-09-17T08:05:43Z</time>
      </trkpt>
      <trkpt lat="43.43731" lon="2.05231">
        <ele>403</ele>
        <time>2025-09-17T08:05:44Z</time>
      </trkpt>
      <trkpt lat="43.43739" lon="2.0524">
        <ele>401</ele>
        <time>2025-09-17T08:05:46Z</time>
      </trkpt>
      <trkpt lat="43.4375" lon="2.05253">
        <ele>398</ele>
        <time>2025-09-17T08:05:48Z</time>
      </trkpt>
      <trkpt lat="43.43761" lon="2.05272">
        <ele>395</ele>
        <time>2025-09-17T08:05:51Z</time>
      </trkpt>
      <trkpt lat="43.43766" lon="2.05285">
        <ele>393</ele>
        <time>2025-09-17T08:05:53Z</time>
      </trkpt>
      <trkpt lat="43.43767" lon="2.05298">
        <ele>393</ele>
        <time>2025-09-17T08:05:55Z</time>
      </trkpt>
      <trkpt lat="43.43767" lon="2.05308">
        <ele>394</ele>
        <time>2025-09-17T08:05:56Z</time>
      </trkpt>
      <trkpt lat="43.43763" lon="2.05319">
        <ele>395</ele>
        <time>2025-09-17T08:05:58Z</time>
      </trkpt>
      <trkpt lat="43.43748" lon="2.05352">
        <ele>403</ele>
        <time>2025-09-17T08:06:03Z</time>
      </trkpt>
      <trkpt lat="43.43747" lon="2.0536">
        <ele>404</ele>
        <time>2025-09-17T08:06:04Z</time>
      </trkpt>
      <trkpt lat="43.43749" lon="2.05365">
        <ele>404</ele>
        <time>2025-09-17T08:06:05Z</time>
      </trkpt>
      <trkpt lat="43.43751" lon="2.05367">
        <ele>404</ele>
        <time>2025-09-17T08:06:05Z</time>
      </trkpt>
      <trkpt lat="43.43756" lon="2.05368">
        <ele>402</ele>
        <time>2025-09-17T08:06:06Z</time>
      </trkpt>
      <trkpt lat="43.43763" lon="2.05368">
        <ele>400</ele>
        <time>2025-09-17T08:06:07Z</time>
      </trkpt>
      <trkpt lat="43.43814" lon="2.05355">
        <ele>382</ele>
        <time>2025-09-17T08:06:16Z</time>
      </trkpt>
      <trkpt lat="43.43826" lon="2.05355">
        <ele>378</ele>
        <time>2025-09-17T08:06:19Z</time>
      </trkpt>
      <trkpt lat="43.43837" lon="2.05357">
        <ele>375</ele>
        <time>2025-09-17T08:06:21Z</time>
      </trkpt>
      <trkpt lat="43.43837" lon="2.05354">
        <ele>374</ele>
        <time>2025-09-17T08:06:21Z</time>
      </trkpt>
      <trkpt lat="43.43841" lon="2.05344">
        <ele>372</ele>
        <time>2025-09-17T08:06:22Z</time>
      </trkpt>
      <trkpt lat="43.43874" lon="2.05297">
        <ele>361</ele>
        <time>2025-09-17T08:06:31Z</time>
      </trkpt>
      <trkpt lat="43.43914" lon="2.05241">
        <ele>351</ele>
        <time>2025-09-17T08:06:41Z</time>
      </trkpt>
      <trkpt lat="43.43929" lon="2.05224">
        <ele>348</ele>
        <time>2025-09-17T08:06:44Z</time>
      </trkpt>
      <trkpt lat="43.4394" lon="2.05216">
        <ele>347</ele>
        <time>2025-09-17T08:06:47Z</time>
      </trkpt>
      <trkpt lat="43.43948" lon="2.05213">
        <ele>346</ele>
        <time>2025-09-17T08:06:48Z</time>
      </trkpt>
      <trkpt lat="43.43998" lon="2.05194">
        <ele>343</ele>
        <time>2025-09-17T08:06:57Z</time>
      </trkpt>
      <trkpt lat="43.44055" lon="2.05177">
        <ele>338</ele>
        <time>2025-09-17T08:07:08Z</time>
      </trkpt>
      <trkpt lat="43.44085" lon="2.05172">
        <ele>334</ele>
        <time>2025-09-17T08:07:13Z</time>
      </trkpt>
      <trkpt lat="43.44177" lon="2.05169">
        <ele>324</ele>
        <time>2025-09-17T08:07:30Z</time>
      </trkpt>
      <trkpt lat="43.44182" lon="2.05169">
        <ele>323</ele>
        <time>2025-09-17T08:07:30Z</time>
      </trkpt>
      <trkpt lat="43.44195" lon="2.05124">
        <ele>321</ele>
        <time>2025-09-17T08:07:37Z</time>
      </trkpt>
      <trkpt lat="43.44216" lon="2.05062">
        <ele>319</ele>
        <time>2025-09-17T08:07:46Z</time>
      </trkpt>
      <trkpt lat="43.44232" lon="2.05022">
        <ele>317</ele>
        <time>2025-09-17T08:07:51Z</time>
      </trkpt>
      <trkpt lat="43.44244" lon="2.04997">
        <ele>317</ele>
        <time>2025-09-17T08:07:55Z</time>
      </trkpt>
      <trkpt lat="43.44266" lon="2.04976">
        <ele>316</ele>
        <time>2025-09-17T08:08:00Z</time>
      </trkpt>
      <trkpt lat="43.44285" lon="2.04966">
        <ele>314</ele>
        <time>2025-09-17T08:08:04Z</time>
      </trkpt>
      <trkpt lat="43.44327" lon="2.04955">
        <ele>311</ele>
        <time>2025-09-17T08:08:11Z</time>
      </trkpt>
      <trkpt lat="43.44349" lon="2.04955">
        <ele>308</ele>
        <time>2025-09-17T08:08:15Z</time>
      </trkpt>
      <trkpt lat="43.44384" lon="2.04965">
        <ele>303</ele>
        <time>2025-09-17T08:08:22Z</time>
      </trkpt>
      <trkpt lat="43.44402" lon="2.04965">
        <ele>300</ele>
        <time>2025-09-17T08:08:25Z</time>
      </trkpt>
      <trkpt lat="43.44413" lon="2.04962">
        <ele>299</ele>
        <time>2025-09-17T08:08:27Z</time>
      </trkpt>
      <trkpt lat="43.44425" lon="2.04951">
        <ele>297</ele>
        <time>2025-09-17T08:08:29Z</time>
      </trkpt>
      <trkpt lat="43.44448" lon="2.04919">
        <ele>294</ele>
        <time>2025-09-17T08:08:35Z</time>
      </trkpt>
      <trkpt lat="43.44455" lon="2.04915">
        <ele>293</ele>
        <time>2025-09-17T08:08:36Z</time>
      </trkpt>
      <trkpt lat="43.44462" lon="2.04915">
        <ele>292</ele>
        <time>2025-09-17T08:08:38Z</time>
      </trkpt>
      <trkpt lat="43.44479" lon="2.0491">
        <ele>290</ele>
        <time>2025-09-17T08:08:41Z</time>
      </trkpt>
      <trkpt lat="43.44537" lon="2.04872">
        <ele>285</ele>
        <time>2025-09-17T08:08:52Z</time>
      </trkpt>
      <trkpt lat="43.44627" lon="2.048">
        <ele>270</ele>
        <time>2025-09-17T08:09:11Z</time>
      </trkpt>
      <trkpt lat="43.44656" lon="2.04785">
        <ele>266</ele>
        <time>2025-09-17T08:09:16Z</time>
      </trkpt>
      <trkpt lat="43.44682" lon="2.04784">
        <ele>264</ele>
        <time>2025-09-17T08:09:21Z</time>
      </trkpt>
      <trkpt lat="43.44688" lon="2.04784">
        <ele>263</ele>
        <time>2025-09-17T08:09:22Z</time>
      </trkpt>
      <trkpt lat="43.44709" lon="2.04787">
        <ele>261</ele>
        <time>2025-09-17T08:09:26Z</time>
      </trkpt>
      <trkpt lat="43.44679" lon="2.04883">
        <ele>266</ele>
        <time>2025-09-17T08:09:39Z</time>
      </trkpt>
      <trkpt lat="43.44657" lon="2.05026">
        <ele>266</ele>
        <time>2025-09-17T08:09:58Z</time>
      </trkpt>
      <trkpt lat="43.4465" lon="2.05056">
        <ele>265</ele>
        <time>2025-09-17T08:10:02Z</time>
      </trkpt>
      <trkpt lat="43.4464" lon="2.051">
        <ele>264</ele>
        <time>2025-09-17T08:10:08Z</time>
      </trkpt>
      <trkpt lat="43.44634" lon="2.05114">
        <ele>264</ele>
        <time>2025-09-17T08:10:10Z</time>
      </trkpt>
      <trkpt lat="43.44624" lon="2.05137">
        <ele>264</ele>
        <time>2025-09-17T08:10:14Z</time>
      </trkpt>
      <trkpt lat="43.44618" lon="2.05149">
        <ele>264</ele>
        <time>2025-09-17T08:10:16Z</time>
      </trkpt>
      <trkpt lat="43.44609" lon="2.05175">
        <ele>263</ele>
        <time>2025-09-17T08:10:19Z</time>
      </trkpt>
      <trkpt lat="43.44601" lon="2.05194">
        <ele>263</ele>
        <time>2025-09-17T08:10:22Z</time>
      </trkpt>
      <trkpt lat="43.44597" lon="2.05207">
        <ele>263</ele>
        <time>2025-09-17T08:10:24Z</time>
      </trkpt>
      <trkpt lat="43.44596" lon="2.05208">
        <ele>263</ele>
        <time>2025-09-17T08:10:24Z</time>
      </trkpt>
      <trkpt lat="43.44597" lon="2.05207">
        <ele>263</ele>
        <time>2025-09-17T08:10:24Z</time>
      </trkpt>
      <trkpt lat="43.44599" lon="2.05217">
        <ele>262</ele>
        <time>2025-09-17T08:10:26Z</time>
      </trkpt>
      <trkpt lat="43.4462" lon="2.05244">
        <ele>259</ele>
        <time>2025-09-17T08:10:31Z</time>
      </trkpt>
      <trkpt lat="43.44628" lon="2.05254">
        <ele>258</ele>
        <time>2025-09-17T08:10:33Z</time>
      </trkpt>
      <trkpt lat="43.44634" lon="2.05266">
        <ele>257</ele>
        <time>2025-09-17T08:10:35Z</time>
      </trkpt>
      <trkpt lat="43.44641" lon="2.0528">
        <ele>256</ele>
        <time>2025-09-17T08:10:37Z</time>
      </trkpt>
      <trkpt lat="43.44652" lon="2.05303">
        <ele>255</ele>
        <time>2025-09-17T08:10:40Z</time>
      </trkpt>
      <trkpt lat="43.44671" lon="2.05364">
        <ele>255</ele>
        <time>2025-09-17T08:10:49Z</time>
      </trkpt>
      <trkpt lat="43.4469" lon="2.05413">
        <ele>255</ele>
        <time>2025-09-17T08:10:56Z</time>
      </trkpt>
      <trkpt lat="43.44684" lon="2.05423">
        <ele>256</ele>
        <time>2025-09-17T08:10:58Z</time>
      </trkpt>
      <trkpt lat="43.44688" lon="2.05433">
        <ele>256</ele>
        <time>2025-09-17T08:10:59Z</time>
      </trkpt>
      <trkpt lat="43.44723" lon="2.05522">
        <ele>255</ele>
        <time>2025-09-17T08:11:12Z</time>
      </trkpt>
      <trkpt lat="43.44786" lon="2.05639">
        <ele>258</ele>
        <time>2025-09-17T08:11:31Z</time>
      </trkpt>
      <trkpt lat="43.44801" lon="2.05676">
        <ele>258</ele>
        <time>2025-09-17T08:11:37Z</time>
      </trkpt>
      <trkpt lat="43.44804" lon="2.05688">
        <ele>258</ele>
        <time>2025-09-17T08:11:38Z</time>
      </trkpt>
      <trkpt lat="43.44808" lon="2.05706">
        <ele>258</ele>
        <time>2025-09-17T08:11:41Z</time>
      </trkpt>
      <trkpt lat="43.44812" lon="2.05754">
        <ele>259</ele>
        <time>2025-09-17T08:11:47Z</time>
      </trkpt>
      <trkpt lat="43.44818" lon="2.05789">
        <ele>259</ele>
        <time>2025-09-17T08:11:52Z</time>
      </trkpt>
      <trkpt lat="43.44821" lon="2.05798">
        <ele>259</ele>
        <time>2025-09-17T08:11:53Z</time>
      </trkpt>
      <trkpt lat="43.44824" lon="2.05805">
        <ele>258</ele>
        <time>2025-09-17T08:11:54Z</time>
      </trkpt>
      <trkpt lat="43.44853" lon="2.0584">
        <ele>258</ele>
        <time>2025-09-17T08:12:01Z</time>
      </trkpt>
      <trkpt lat="43.44922" lon="2.05902">
        <ele>261</ele>
        <time>2025-09-17T08:12:15Z</time>
      </trkpt>
      <trkpt lat="43.44963" lon="2.05944">
        <ele>262</ele>
        <time>2025-09-17T08:12:25Z</time>
      </trkpt>
      <trkpt lat="43.44995" lon="2.05983">
        <ele>263</ele>
        <time>2025-09-17T08:12:32Z</time>
      </trkpt>
      <trkpt lat="43.45001" lon="2.05988">
        <ele>263</ele>
        <time>2025-09-17T08:12:33Z</time>
      </trkpt>
      <trkpt lat="43.45005" lon="2.0599">
        <ele>263</ele>
        <time>2025-09-17T08:12:34Z</time>
      </trkpt>
      <trkpt lat="43.45008" lon="2.05992">
        <ele>263</ele>
        <time>2025-09-17T08:12:35Z</time>
      </trkpt>
      <trkpt lat="43.44996" lon="2.06069">
        <ele>265</ele>
        <time>2025-09-17T08:12:45Z</time>
      </trkpt>
      <trkpt lat="43.44996" lon="2.06106">
        <ele>265</ele>
        <time>2025-09-17T08:12:50Z</time>
      </trkpt>
      <trkpt lat="43.45002" lon="2.06138">
        <ele>266</ele>
        <time>2025-09-17T08:12:54Z</time>
      </trkpt>
      <trkpt lat="43.45014" lon="2.06186">
        <ele>266</ele>
        <time>2025-09-17T08:13:01Z</time>
      </trkpt>
      <trkpt lat="43.45065" lon="2.06376">
        <ele>270</ele>
        <time>2025-09-17T08:13:27Z</time>
      </trkpt>
      <trkpt lat="43.45056" lon="2.06387">
        <ele>270</ele>
        <time>2025-09-17T08:13:29Z</time>
      </trkpt>
      <trkpt lat="43.45055" lon="2.06393">
        <ele>270</ele>
        <time>2025-09-17T08:13:30Z</time>
      </trkpt>
      <trkpt lat="43.45057" lon="2.06399">
        <ele>270</ele>
        <time>2025-09-17T08:13:31Z</time>
      </trkpt>
      <trkpt lat="43.4506" lon="2.06403">
        <ele>270</ele>
        <time>2025-09-17T08:13:31Z</time>
      </trkpt>
      <trkpt lat="43.4506" lon="2.06405">
        <ele>271</ele>
        <time>2025-09-17T08:13:32Z</time>
      </trkpt>
      <trkpt lat="43.45071" lon="2.06402">
        <ele>271</ele>
        <time>2025-09-17T08:13:34Z</time>
      </trkpt>
      <trkpt lat="43.45073" lon="2.06399">
        <ele>271</ele>
        <time>2025-09-17T08:13:34Z</time>
      </trkpt>
      <trkpt lat="43.4512" lon="2.0649">
        <ele>273</ele>
        <time>2025-09-17T08:13:48Z</time>
      </trkpt>
      <trkpt lat="43.4513" lon="2.06501">
        <ele>274</ele>
        <time>2025-09-17T08:13:51Z</time>
      </trkpt>
      <trkpt lat="43.45138" lon="2.06504">
        <ele>274</ele>
        <time>2025-09-17T08:13:52Z</time>
      </trkpt>
      <trkpt lat="43.45095" lon="2.0661">
        <ele>275</ele>
        <time>2025-09-17T08:14:08Z</time>
      </trkpt>
      <trkpt lat="43.45063" lon="2.06751">
        <ele>281</ele>
        <time>2025-09-17T08:14:27Z</time>
      </trkpt>
      <trkpt lat="43.4506" lon="2.06788">
        <ele>282</ele>
        <time>2025-09-17T08:14:32Z</time>
      </trkpt>
      <trkpt lat="43.4505" lon="2.06838">
        <ele>284</ele>
        <time>2025-09-17T08:14:38Z</time>
      </trkpt>
      <trkpt lat="43.45038" lon="2.07079">
        <ele>295</ele>
        <time>2025-09-17T08:15:10Z</time>
      </trkpt>
      <trkpt lat="43.45039" lon="2.07184">
        <ele>295</ele>
        <time>2025-09-17T08:15:23Z</time>
      </trkpt>
      <trkpt lat="43.45047" lon="2.07234">
        <ele>295</ele>
        <time>2025-09-17T08:15:30Z</time>
      </trkpt>
      <trkpt lat="43.45064" lon="2.07286">
        <ele>299</ele>
        <time>2025-09-17T08:15:37Z</time>
      </trkpt>
      <trkpt lat="43.45051" lon="2.07295">
        <ele>300</ele>
        <time>2025-09-17T08:15:40Z</time>
      </trkpt>
      <trkpt lat="43.4486" lon="2.07448">
        <ele>312</ele>
        <time>2025-09-17T08:16:19Z</time>
      </trkpt>
      <trkpt lat="43.44836" lon="2.0747">
        <ele>313</ele>
        <time>2025-09-17T08:16:24Z</time>
      </trkpt>
      <trkpt lat="43.44825" lon="2.07483">
        <ele>314</ele>
        <time>2025-09-17T08:16:27Z</time>
      </trkpt>
      <trkpt lat="43.44812" lon="2.07504">
        <ele>316</ele>
        <time>2025-09-17T08:16:30Z</time>
      </trkpt>
      <trkpt lat="43.44737" lon="2.07634">
        <ele>325</ele>
        <time>2025-09-17T08:16:52Z</time>
      </trkpt>
      <trkpt lat="43.44714" lon="2.07695">
        <ele>334</ele>
        <time>2025-09-17T08:17:01Z</time>
      </trkpt>
      <trkpt lat="43.44674" lon="2.07777">
        <ele>339</ele>
        <time>2025-09-17T08:17:13Z</time>
      </trkpt>
      <trkpt lat="43.44653" lon="2.07814">
        <ele>341</ele>
        <time>2025-09-17T08:17:20Z</time>
      </trkpt>
      <trkpt lat="43.44627" lon="2.07841">
        <ele>342</ele>
        <time>2025-09-17T08:17:25Z</time>
      </trkpt>
      <trkpt lat="43.4458" lon="2.07875">
        <ele>342</ele>
        <time>2025-09-17T08:17:35Z</time>
      </trkpt>
      <trkpt lat="43.4457" lon="2.07889">
        <ele>344</ele>
        <time>2025-09-17T08:17:37Z</time>
      </trkpt>
      <trkpt lat="43.44548" lon="2.07927">
        <ele>347</ele>
        <time>2025-09-17T08:17:44Z</time>
      </trkpt>
      <trkpt lat="43.44524" lon="2.07958">
        <ele>349</ele>
        <time>2025-09-17T08:17:49Z</time>
      </trkpt>
      <trkpt lat="43.44467" lon="2.08012">
        <ele>348</ele>
        <time>2025-09-17T08:18:02Z</time>
      </trkpt>
      <trkpt lat="43.44389" lon="2.08074">
        <ele>352</ele>
        <time>2025-09-17T08:18:18Z</time>
      </trkpt>
      <trkpt lat="43.44373" lon="2.08083">
        <ele>352</ele>
        <time>2025-09-17T08:18:21Z</time>
      </trkpt>
      <trkpt lat="43.44341" lon="2.08095">
        <ele>353</ele>
        <time>2025-09-17T08:18:27Z</time>
      </trkpt>
      <trkpt lat="43.44327" lon="2.08103">
        <ele>355</ele>
        <time>2025-09-17T08:18:29Z</time>
      </trkpt>
      <trkpt lat="43.44308" lon="2.08122">
        <ele>360</ele>
        <time>2025-09-17T08:18:34Z</time>
      </trkpt>
      <trkpt lat="43.44257" lon="2.0821">
        <ele>363</ele>
        <time>2025-09-17T08:18:48Z</time>
      </trkpt>
      <trkpt lat="43.44243" lon="2.0823">
        <ele>364</ele>
        <time>2025-09-17T08:18:52Z</time>
      </trkpt>
      <trkpt lat="43.44221" lon="2.08248">
        <ele>367</ele>
        <time>2025-09-17T08:18:56Z</time>
      </trkpt>
      <trkpt lat="43.44211" lon="2.08259">
        <ele>369</ele>
        <time>2025-09-17T08:18:59Z</time>
      </trkpt>
      <trkpt lat="43.44205" lon="2.08272">
        <ele>371</ele>
        <time>2025-09-17T08:19:01Z</time>
      </trkpt>
      <trkpt lat="43.44198" lon="2.08304">
        <ele>374</ele>
        <time>2025-09-17T08:19:05Z</time>
      </trkpt>
      <trkpt lat="43.44197" lon="2.08324">
        <ele>375</ele>
        <time>2025-09-17T08:19:08Z</time>
      </trkpt>
      <trkpt lat="43.44198" lon="2.08437">
        <ele>384</ele>
        <time>2025-09-17T08:19:22Z</time>
      </trkpt>
      <trkpt lat="43.44201" lon="2.08511">
        <ele>389</ele>
        <time>2025-09-17T08:19:32Z</time>
      </trkpt>
      <trkpt lat="43.442" lon="2.08531">
        <ele>390</ele>
        <time>2025-09-17T08:19:34Z</time>
      </trkpt>
      <trkpt lat="43.44178" lon="2.08635">
        <ele>399</ele>
        <time>2025-09-17T08:19:48Z</time>
      </trkpt>
      <trkpt lat="43.44172" lon="2.08654">
        <ele>400</ele>
        <time>2025-09-17T08:19:51Z</time>
      </trkpt>
      <trkpt lat="43.44159" lon="2.08677">
        <ele>403</ele>
        <time>2025-09-17T08:19:55Z</time>
      </trkpt>
      <trkpt lat="43.44149" lon="2.08688">
        <ele>406</ele>
        <time>2025-09-17T08:19:57Z</time>
      </trkpt>
      <trkpt lat="43.44055" lon="2.08757">
        <ele>413</ele>
        <time>2025-09-17T08:20:16Z</time>
      </trkpt>
      <trkpt lat="43.44049" lon="2.08758">
        <ele>414</ele>
        <time>2025-09-17T08:20:17Z</time>
      </trkpt>
      <trkpt lat="43.44044" lon="2.08756">
        <ele>414</ele>
        <time>2025-09-17T08:20:18Z</time>
      </trkpt>
      <trkpt lat="43.4404" lon="2.08751">
        <ele>414</ele>
        <time>2025-09-17T08:20:19Z</time>
      </trkpt>
      <trkpt lat="43.44039" lon="2.0874">
        <ele>416</ele>
        <time>2025-09-17T08:20:20Z</time>
      </trkpt>
      <trkpt lat="43.44039" lon="2.08733">
        <ele>417</ele>
        <time>2025-09-17T08:20:21Z</time>
      </trkpt>
      <trkpt lat="43.4404" lon="2.08728">
        <ele>418</ele>
        <time>2025-09-17T08:20:22Z</time>
      </trkpt>
      <trkpt lat="43.44034" lon="2.08727">
        <ele>419</ele>
        <time>2025-09-17T08:20:23Z</time>
      </trkpt>
      <trkpt lat="43.44027" lon="2.08727">
        <ele>421</ele>
        <time>2025-09-17T08:20:24Z</time>
      </trkpt>
      <trkpt lat="43.44027" lon="2.08727">
        <ele>421</ele>
        <time>2025-09-17T08:20:24Z</time>
      </trkpt>
      <trkpt lat="43.4401" lon="2.08734">
        <ele>422</ele>
        <time>2025-09-17T08:20:27Z</time>
      </trkpt>
      <trkpt lat="43.43951" lon="2.08776">
        <ele>434</ele>
        <time>2025-09-17T08:20:39Z</time>
      </trkpt>
      <trkpt lat="43.43895" lon="2.0882">
        <ele>443</ele>
        <time>2025-09-17T08:20:51Z</time>
      </trkpt>
      <trkpt lat="43.43845" lon="2.08876">
        <ele>453</ele>
        <time>2025-09-17T08:21:02Z</time>
      </trkpt>
      <trkpt lat="43.43825" lon="2.08904">
        <ele>456</ele>
        <time>2025-09-17T08:21:07Z</time>
      </trkpt>
      <trkpt lat="43.4382" lon="2.08918">
        <ele>456</ele>
        <time>2025-09-17T08:21:09Z</time>
      </trkpt>
      <trkpt lat="43.43816" lon="2.08933">
        <ele>459</ele>
        <time>2025-09-17T08:21:11Z</time>
      </trkpt>
      <trkpt lat="43.43813" lon="2.08955">
        <ele>461</ele>
        <time>2025-09-17T08:21:14Z</time>
      </trkpt>
      <trkpt lat="43.43809" lon="2.08977">
        <ele>463</ele>
        <time>2025-09-17T08:21:17Z</time>
      </trkpt>
      <trkpt lat="43.43808" lon="2.08989">
        <ele>463</ele>
        <time>2025-09-17T08:21:19Z</time>
      </trkpt>
      <trkpt lat="43.43808" lon="2.08999">
        <ele>463</ele>
        <time>2025-09-17T08:21:20Z</time>
      </trkpt>
      <trkpt lat="43.43827" lon="2.09082">
        <ele>459</ele>
        <time>2025-09-17T08:21:31Z</time>
      </trkpt>
      <trkpt lat="43.4383" lon="2.09102">
        <ele>460</ele>
        <time>2025-09-17T08:21:34Z</time>
      </trkpt>
      <trkpt lat="43.43833" lon="2.09131">
        <ele>462</ele>
        <time>2025-09-17T08:21:38Z</time>
      </trkpt>
      <trkpt lat="43.43832" lon="2.09154">
        <ele>466</ele>
        <time>2025-09-17T08:21:41Z</time>
      </trkpt>
      <trkpt lat="43.43828" lon="2.09173">
        <ele>469</ele>
        <time>2025-09-17T08:21:43Z</time>
      </trkpt>
      <trkpt lat="43.43813" lon="2.09205">
        <ele>478</ele>
        <time>2025-09-17T08:21:48Z</time>
      </trkpt>
      <trkpt lat="43.43811" lon="2.09215">
        <ele>480</ele>
        <time>2025-09-17T08:21:49Z</time>
      </trkpt>
      <trkpt lat="43.43812" lon="2.09225">
        <ele>480</ele>
        <time>2025-09-17T08:21:51Z</time>
      </trkpt>
      <trkpt lat="43.43831" lon="2.09272">
        <ele>478</ele>
        <time>2025-09-17T08:21:58Z</time>
      </trkpt>
      <trkpt lat="43.43834" lon="2.09281">
        <ele>478</ele>
        <time>2025-09-17T08:21:59Z</time>
      </trkpt>
      <trkpt lat="43.43837" lon="2.09296">
        <ele>480</ele>
        <time>2025-09-17T08:22:01Z</time>
      </trkpt>
      <trkpt lat="43.43838" lon="2.09309">
        <ele>481</ele>
        <time>2025-09-17T08:22:03Z</time>
      </trkpt>
      <trkpt lat="43.43837" lon="2.09337">
        <ele>484</ele>
        <time>2025-09-17T08:22:06Z</time>
      </trkpt>
      <trkpt lat="43.4383" lon="2.09374">
        <ele>488</ele>
        <time>2025-09-17T08:22:11Z</time>
      </trkpt>
      <trkpt lat="43.43828" lon="2.09388">
        <ele>490</ele>
        <time>2025-09-17T08:22:13Z</time>
      </trkpt>
      <trkpt lat="43.43829" lon="2.09398">
        <ele>490</ele>
        <time>2025-09-17T08:22:14Z</time>
      </trkpt>
      <trkpt lat="43.43833" lon="2.09407">
        <ele>489</ele>
        <time>2025-09-17T08:22:16Z</time>
      </trkpt>
      <trkpt lat="43.43839" lon="2.09408">
        <ele>490</ele>
        <time>2025-09-17T08:22:17Z</time>
      </trkpt>
      <trkpt lat="43.43849" lon="2.09406">
        <ele>492</ele>
        <time>2025-09-17T08:22:19Z</time>
      </trkpt>
      <trkpt lat="43.43856" lon="2.09401">
        <ele>493</ele>
        <time>2025-09-17T08:22:20Z</time>
      </trkpt>
      <trkpt lat="43.43864" lon="2.09388">
        <ele>493</ele>
        <time>2025-09-17T08:22:22Z</time>
      </trkpt>
      <trkpt lat="43.43875" lon="2.09374">
        <ele>494</ele>
        <time>2025-09-17T08:22:25Z</time>
      </trkpt>
      <trkpt lat="43.43893" lon="2.09333">
        <ele>493</ele>
        <time>2025-09-17T08:22:31Z</time>
      </trkpt>
      <trkpt lat="43.43899" lon="2.09308">
        <ele>492</ele>
        <time>2025-09-17T08:22:34Z</time>
      </trkpt>
      <trkpt lat="43.43909" lon="2.09262">
        <ele>490</ele>
        <time>2025-09-17T08:22:41Z</time>
      </trkpt>
      <trkpt lat="43.43917" lon="2.09201">
        <ele>489</ele>
        <time>2025-09-17T08:22:49Z</time>
      </trkpt>
      <trkpt lat="43.43923" lon="2.09177">
        <ele>489</ele>
        <time>2025-09-17T08:22:52Z</time>
      </trkpt>
      <trkpt lat="43.43931" lon="2.09152">
        <ele>490</ele>
        <time>2025-09-17T08:22:56Z</time>
      </trkpt>
      <trkpt lat="43.43942" lon="2.09129">
        <ele>490</ele>
        <time>2025-09-17T08:22:59Z</time>
      </trkpt>
      <trkpt lat="43.43952" lon="2.09115">
        <ele>491</ele>
        <time>2025-09-17T08:23:02Z</time>
      </trkpt>
      <trkpt lat="43.43961" lon="2.09106">
        <ele>492</ele>
        <time>2025-09-17T08:23:04Z</time>
      </trkpt>
      <trkpt lat="43.4397" lon="2.09098">
        <ele>493</ele>
        <time>2025-09-17T08:23:05Z</time>
      </trkpt>
      <trkpt lat="43.43976" lon="2.09096">
        <ele>494</ele>
        <time>2025-09-17T08:23:07Z</time>
      </trkpt>
      <trkpt lat="43.43981" lon="2.09097">
        <ele>495</ele>
        <time>2025-09-17T08:23:07Z</time>
      </trkpt>
      <trkpt lat="43.43985" lon="2.09099">
        <ele>496</ele>
        <time>2025-09-17T08:23:08Z</time>
      </trkpt>
      <trkpt lat="43.43988" lon="2.09104">
        <ele>498</ele>
        <time>2025-09-17T08:23:09Z</time>
      </trkpt>
      <trkpt lat="43.43992" lon="2.09112">
        <ele>500</ele>
        <time>2025-09-17T08:23:10Z</time>
      </trkpt>
      <trkpt lat="43.43999" lon="2.09132">
        <ele>505</ele>
        <time>2025-09-17T08:23:13Z</time>
      </trkpt>
      <trkpt lat="43.44006" lon="2.09148">
        <ele>507</ele>
        <time>2025-09-17T08:23:16Z</time>
      </trkpt>
      <trkpt lat="43.44035" lon="2.092">
        <ele>513</ele>
        <time>2025-09-17T08:23:24Z</time>
      </trkpt>
      <trkpt lat="43.44042" lon="2.09214">
        <ele>515</ele>
        <time>2025-09-17T08:23:26Z</time>
      </trkpt>
      <trkpt lat="43.4406" lon="2.09253">
        <ele>521</ele>
        <time>2025-09-17T08:23:32Z</time>
      </trkpt>
      <trkpt lat="43.44076" lon="2.09294">
        <ele>528</ele>
        <time>2025-09-17T08:23:38Z</time>
      </trkpt>
      <trkpt lat="43.44103" lon="2.0935">
        <ele>537</ele>
        <time>2025-09-17T08:23:47Z</time>
      </trkpt>
      <trkpt lat="43.44135" lon="2.09394">
        <ele>543</ele>
        <time>2025-09-17T08:23:55Z</time>
      </trkpt>
      <trkpt lat="43.4416" lon="2.09427">
        <ele>548</ele>
        <time>2025-09-17T08:24:01Z</time>
      </trkpt>
      <trkpt lat="43.44181" lon="2.09453">
        <ele>552</ele>
        <time>2025-09-17T08:24:06Z</time>
      </trkpt>
      <trkpt lat="43.44213" lon="2.09487">
        <ele>555</ele>
        <time>2025-09-17T08:24:13Z</time>
      </trkpt>
      <trkpt lat="43.44219" lon="2.09497">
        <ele>556</ele>
        <time>2025-09-17T08:24:15Z</time>
      </trkpt>
      <trkpt lat="43.44225" lon="2.09508">
        <ele>557</ele>
        <time>2025-09-17T08:24:17Z</time>
      </trkpt>
      <trkpt lat="43.44235" lon="2.09535">
        <ele>560</ele>
        <time>2025-09-17T08:24:21Z</time>
      </trkpt>
      <trkpt lat="43.44239" lon="2.09543">
        <ele>561</ele>
        <time>2025-09-17T08:24:22Z</time>
      </trkpt>
      <trkpt lat="43.44245" lon="2.09549">
        <ele>561</ele>
        <time>2025-09-17T08:24:23Z</time>
      </trkpt>
      <trkpt lat="43.44254" lon="2.09557">
        <ele>561</ele>
        <time>2025-09-17T08:24:25Z</time>
      </trkpt>
      <trkpt lat="43.44264" lon="2.09564">
        <ele>561</ele>
        <time>2025-09-17T08:24:27Z</time>
      </trkpt>
      <trkpt lat="43.44267" lon="2.09567">
        <ele>561</ele>
        <time>2025-09-17T08:24:28Z</time>
      </trkpt>
      <trkpt lat="43.44257" lon="2.09603">
        <ele>565</ele>
        <time>2025-09-17T08:24:33Z</time>
      </trkpt>
      <trkpt lat="43.44257" lon="2.09603">
        <ele>565</ele>
        <time>2025-09-17T08:24:33Z</time>
      </trkpt>
      <trkpt lat="43.44243" lon="2.09662">
        <ele>572</ele>
        <time>2025-09-17T08:24:41Z</time>
      </trkpt>
      <trkpt lat="43.44241" lon="2.09685">
        <ele>572</ele>
        <time>2025-09-17T08:24:44Z</time>
      </trkpt>
      <trkpt lat="43.44239" lon="2.0974">
        <ele>571</ele>
        <time>2025-09-17T08:24:51Z</time>
      </trkpt>
      <trkpt lat="43.44234" lon="2.09762">
        <ele>572</ele>
        <time>2025-09-17T08:24:54Z</time>
      </trkpt>
      <trkpt lat="43.44224" lon="2.0979">
        <ele>574</ele>
        <time>2025-09-17T08:24:58Z</time>
      </trkpt>
      <trkpt lat="43.44212" lon="2.09822">
        <ele>577</ele>
        <time>2025-09-17T08:25:03Z</time>
      </trkpt>
      <trkpt lat="43.442" lon="2.09857">
        <ele>580</ele>
        <time>2025-09-17T08:25:08Z</time>
      </trkpt>
      <trkpt lat="43.44191" lon="2.09876">
        <ele>583</ele>
        <time>2025-09-17T08:25:11Z</time>
      </trkpt>
      <trkpt lat="43.44185" lon="2.09894">
        <ele>585</ele>
        <time>2025-09-17T08:25:13Z</time>
      </trkpt>
      <trkpt lat="43.44161" lon="2.09948">
        <ele>594</ele>
        <time>2025-09-17T08:25:21Z</time>
      </trkpt>
      <trkpt lat="43.44146" lon="2.09974">
        <ele>599</ele>
        <time>2025-09-17T08:25:26Z</time>
      </trkpt>
      <trkpt lat="43.44138" lon="2.0999">
        <ele>602</ele>
        <time>2025-09-17T08:25:28Z</time>
      </trkpt>
      <trkpt lat="43.44113" lon="2.10039">
        <ele>609</ele>
        <time>2025-09-17T08:25:36Z</time>
      </trkpt>
      <trkpt lat="43.44106" lon="2.10064">
        <ele>613</ele>
        <time>2025-09-17T08:25:39Z</time>
      </trkpt>
      <trkpt lat="43.441" lon="2.10104">
        <ele>617</ele>
        <time>2025-09-17T08:25:45Z</time>
      </trkpt>
      <trkpt lat="43.44097" lon="2.10141">
        <ele>621</ele>
        <time>2025-09-17T08:25:49Z</time>
      </trkpt>
      <trkpt lat="43.44092" lon="2.10197">
        <ele>625</ele>
        <time>2025-09-17T08:25:57Z</time>
      </trkpt>
      <trkpt lat="43.44089" lon="2.10222">
        <ele>627</ele>
        <time>2025-09-17T08:26:00Z</time>
      </trkpt>
      <trkpt lat="43.44085" lon="2.10241">
        <ele>629</ele>
        <time>2025-09-17T08:26:03Z</time>
      </trkpt>
      <trkpt lat="43.44075" lon="2.10275">
        <ele>630</ele>
        <time>2025-09-17T08:26:07Z</time>
      </trkpt>
      <trkpt lat="43.44065" lon="2.10313">
        <ele>631</ele>
        <time>2025-09-17T08:26:12Z</time>
      </trkpt>
      <trkpt lat="43.44033" lon="2.104">
        <ele>639</ele>
        <time>2025-09-17T08:26:25Z</time>
      </trkpt>
      <trkpt lat="43.4403" lon="2.1041">
        <ele>640</ele>
        <time>2025-09-17T08:26:26Z</time>
      </trkpt>
      <trkpt lat="43.44029" lon="2.1042">
        <ele>641</ele>
        <time>2025-09-17T08:26:28Z</time>
      </trkpt>
      <trkpt lat="43.44028" lon="2.10434">
        <ele>643</ele>
        <time>2025-09-17T08:26:30Z</time>
      </trkpt>
      <trkpt lat="43.4403" lon="2.10446">
        <ele>644</ele>
        <time>2025-09-17T08:26:31Z</time>
      </trkpt>
      <trkpt lat="43.44032" lon="2.1046">
        <ele>645</ele>
        <time>2025-09-17T08:26:33Z</time>
      </trkpt>
      <trkpt lat="43.44041" lon="2.10489">
        <ele>647</ele>
        <time>2025-09-17T08:26:37Z</time>
      </trkpt>
      <trkpt lat="43.44042" lon="2.10495">
        <ele>647</ele>
        <time>2025-09-17T08:26:38Z</time>
      </trkpt>
      <trkpt lat="43.44027" lon="2.10489">
        <ele>648</ele>
        <time>2025-09-17T08:26:41Z</time>
      </trkpt>
      <trkpt lat="43.4401" lon="2.10476">
        <ele>648</ele>
        <time>2025-09-17T08:26:44Z</time>
      </trkpt>
      <trkpt lat="43.43988" lon="2.10457">
        <ele>643</ele>
        <time>2025-09-17T08:26:49Z</time>
      </trkpt>
      <trkpt lat="43.43978" lon="2.10453">
        <ele>639</ele>
        <time>2025-09-17T08:26:51Z</time>
      </trkpt>
      <trkpt lat="43.43968" lon="2.10505">
        <ele>645</ele>
        <time>2025-09-17T08:26:58Z</time>
      </trkpt>
      <trkpt lat="43.43946" lon="2.10601">
        <ele>657</ele>
        <time>2025-09-17T08:27:11Z</time>
      </trkpt>
      <trkpt lat="43.43944" lon="2.10615">
        <ele>659</ele>
        <time>2025-09-17T08:27:12Z</time>
      </trkpt>
      <trkpt lat="43.43937" lon="2.10634">
        <ele>662</ele>
        <time>2025-09-17T08:27:15Z</time>
      </trkpt>
      <trkpt lat="43.43932" lon="2.10652">
        <ele>664</ele>
        <time>2025-09-17T08:27:18Z</time>
      </trkpt>
      <trkpt lat="43.43925" lon="2.10699">
        <ele>670</ele>
        <time>2025-09-17T08:27:24Z</time>
      </trkpt>
      <trkpt lat="43.43915" lon="2.10733">
        <ele>673</ele>
        <time>2025-09-17T08:27:29Z</time>
      </trkpt>
      <trkpt lat="43.43909" lon="2.10752">
        <ele>675</ele>
        <time>2025-09-17T08:27:31Z</time>
      </trkpt>
      <trkpt lat="43.43904" lon="2.10771">
        <ele>676</ele>
        <time>2025-09-17T08:27:34Z</time>
      </trkpt>
      <trkpt lat="43.439" lon="2.10791">
        <ele>678</ele>
        <time>2025-09-17T08:27:37Z</time>
      </trkpt>
      <trkpt lat="43.43898" lon="2.10813">
        <ele>680</ele>
        <time>2025-09-17T08:27:39Z</time>
      </trkpt>
      <trkpt lat="43.43899" lon="2.10833">
        <ele>683</ele>
        <time>2025-09-17T08:27:42Z</time>
      </trkpt>
      <trkpt lat="43.43913" lon="2.1104">
        <ele>688</ele>
        <time>2025-09-17T08:28:09Z</time>
      </trkpt>
      <trkpt lat="43.4392" lon="2.11079">
        <ele>690</ele>
        <time>2025-09-17T08:28:14Z</time>
      </trkpt>
      <trkpt lat="43.43932" lon="2.11127">
        <ele>694</ele>
        <time>2025-09-17T08:28:21Z</time>
      </trkpt>
      <trkpt lat="43.43952" lon="2.11189">
        <ele>697</ele>
        <time>2025-09-17T08:28:29Z</time>
      </trkpt>
      <trkpt lat="43.43974" lon="2.11267">
        <ele>696</ele>
        <time>2025-09-17T08:28:40Z</time>
      </trkpt>
      <trkpt lat="43.43991" lon="2.11341">
        <ele>693</ele>
        <time>2025-09-17T08:28:50Z</time>
      </trkpt>
      <trkpt lat="43.43999" lon="2.11431">
        <ele>696</ele>
        <time>2025-09-17T08:29:02Z</time>
      </trkpt>
      <trkpt lat="43.44023" lon="2.1154">
        <ele>704</ele>
        <time>2025-09-17T08:29:17Z</time>
      </trkpt>
      <trkpt lat="43.44026" lon="2.11594">
        <ele>709</ele>
        <time>2025-09-17T08:29:24Z</time>
      </trkpt>
      <trkpt lat="43.44039" lon="2.11634">
        <ele>712</ele>
        <time>2025-09-17T08:29:29Z</time>
      </trkpt>
      <trkpt lat="43.44057" lon="2.11744">
        <ele>718</ele>
        <time>2025-09-17T08:29:44Z</time>
      </trkpt>
      <trkpt lat="43.44066" lon="2.1179">
        <ele>720</ele>
        <time>2025-09-17T08:29:50Z</time>
      </trkpt>
      <trkpt lat="43.44072" lon="2.11848">
        <ele>723</ele>
        <time>2025-09-17T08:29:58Z</time>
      </trkpt>
      <trkpt lat="43.44072" lon="2.11898">
        <ele>726</ele>
        <time>2025-09-17T08:30:04Z</time>
      </trkpt>
      <trkpt lat="43.44083" lon="2.1202">
        <ele>731</ele>
        <time>2025-09-17T08:30:20Z</time>
      </trkpt>
      <trkpt lat="43.44097" lon="2.12239">
        <ele>737</ele>
        <time>2025-09-17T08:30:48Z</time>
      </trkpt>
      <trkpt lat="43.44106" lon="2.12349">
        <ele>739</ele>
        <time>2025-09-17T08:31:03Z</time>
      </trkpt>
      <trkpt lat="43.44108" lon="2.12766">
        <ele>747</ele>
        <time>2025-09-17T08:31:57Z</time>
      </trkpt>
      <trkpt lat="43.44101" lon="2.12836">
        <ele>749</ele>
        <time>2025-09-17T08:32:06Z</time>
      </trkpt>
      <trkpt lat="43.44097" lon="2.12912">
        <ele>752</ele>
        <time>2025-09-17T08:32:15Z</time>
      </trkpt>
      <trkpt lat="43.44098" lon="2.1294">
        <ele>753</ele>
        <time>2025-09-17T08:32:19Z</time>
      </trkpt>
      <trkpt lat="43.44096" lon="2.12986">
        <ele>756</ele>
        <time>2025-09-17T08:32:25Z</time>
      </trkpt>
      <trkpt lat="43.44089" lon="2.13103">
        <ele>760</ele>
        <time>2025-09-17T08:32:40Z</time>
      </trkpt>
      <trkpt lat="43.44083" lon="2.13167">
        <ele>762</ele>
        <time>2025-09-17T08:32:49Z</time>
      </trkpt>
      <trkpt lat="43.44076" lon="2.13179">
        <ele>762</ele>
        <time>2025-09-17T08:32:51Z</time>
      </trkpt>
      <trkpt lat="43.44068" lon="2.13209">
        <ele>761</ele>
        <time>2025-09-17T08:32:55Z</time>
      </trkpt>
      <trkpt lat="43.44069" lon="2.13248">
        <ele>761</ele>
        <time>2025-09-17T08:33:00Z</time>
      </trkpt>
      <trkpt lat="43.44073" lon="2.13264">
        <ele>761</ele>
        <time>2025-09-17T08:33:02Z</time>
      </trkpt>
      <trkpt lat="43.44078" lon="2.13276">
        <ele>760</ele>
        <time>2025-09-17T08:33:04Z</time>
      </trkpt>
      <trkpt lat="43.44085" lon="2.13288">
        <ele>760</ele>
        <time>2025-09-17T08:33:06Z</time>
      </trkpt>
      <trkpt lat="43.44092" lon="2.13296">
        <ele>759</ele>
        <time>2025-09-17T08:33:07Z</time>
      </trkpt>
      <trkpt lat="43.44103" lon="2.1336">
        <ele>756</ele>
        <time>2025-09-17T08:33:16Z</time>
      </trkpt>
      <trkpt lat="43.44115" lon="2.13404">
        <ele>754</ele>
        <time>2025-09-17T08:33:22Z</time>
      </trkpt>
      <trkpt lat="43.44116" lon="2.13436">
        <ele>755</ele>
        <time>2025-09-17T08:33:26Z</time>
      </trkpt>
      <trkpt lat="43.44129" lon="2.13539">
        <ele>759</ele>
        <time>2025-09-17T08:33:40Z</time>
      </trkpt>
      <trkpt lat="43.44143" lon="2.13611">
        <ele>762</ele>
        <time>2025-09-17T08:33:49Z</time>
      </trkpt>
      <trkpt lat="43.44165" lon="2.1369">
        <ele>767</ele>
        <time>2025-09-17T08:34:00Z</time>
      </trkpt>
      <trkpt lat="43.44173" lon="2.1371">
        <ele>768</ele>
        <time>2025-09-17T08:34:03Z</time>
      </trkpt>
      <trkpt lat="43.44181" lon="2.1374">
        <ele>771</ele>
        <time>2025-09-17T08:34:07Z</time>
      </trkpt>
      <trkpt lat="43.44199" lon="2.13789">
        <ele>774</ele>
        <time>2025-09-17T08:34:14Z</time>
      </trkpt>
      <trkpt lat="43.44231" lon="2.13829">
        <ele>777</ele>
        <time>2025-09-17T08:34:22Z</time>
      </trkpt>
      <trkpt lat="43.4427" lon="2.13934">
        <ele>782</ele>
        <time>2025-09-17T08:34:37Z</time>
      </trkpt>
      <trkpt lat="43.44324" lon="2.14058">
        <ele>786</ele>
        <time>2025-09-17T08:34:56Z</time>
      </trkpt>
      <trkpt lat="43.4435" lon="2.14107">
        <ele>785</ele>
        <time>2025-09-17T08:35:04Z</time>
      </trkpt>
      <trkpt lat="43.44385" lon="2.1414">
        <ele>784</ele>
        <time>2025-09-17T08:35:11Z</time>
      </trkpt>
      <trkpt lat="43.44407" lon="2.14167">
        <ele>783</ele>
        <time>2025-09-17T08:35:16Z</time>
      </trkpt>
      <trkpt lat="43.44458" lon="2.14289">
        <ele>783</ele>
        <time>2025-09-17T08:35:35Z</time>
      </trkpt>
      <trkpt lat="43.44468" lon="2.14319">
        <ele>783</ele>
        <time>2025-09-17T08:35:39Z</time>
      </trkpt>
      <trkpt lat="43.44494" lon="2.14348">
        <ele>784</ele>
        <time>2025-09-17T08:35:45Z</time>
      </trkpt>
      <trkpt lat="43.4459" lon="2.14522">
        <ele>777</ele>
        <time>2025-09-17T08:36:13Z</time>
      </trkpt>
      <trkpt lat="43.44571" lon="2.14556">
        <ele>777</ele>
        <time>2025-09-17T08:36:19Z</time>
      </trkpt>
      <trkpt lat="43.44563" lon="2.14576">
        <ele>777</ele>
        <time>2025-09-17T08:36:22Z</time>
      </trkpt>
      <trkpt lat="43.44595" lon="2.1463">
        <ele>778</ele>
        <time>2025-09-17T08:36:31Z</time>
      </trkpt>
      <trkpt lat="43.4462" lon="2.14682">
        <ele>780</ele>
        <time>2025-09-17T08:36:39Z</time>
      </trkpt>
      <trkpt lat="43.44668" lon="2.14771">
        <ele>787</ele>
        <time>2025-09-17T08:36:53Z</time>
      </trkpt>
      <trkpt lat="43.44714" lon="2.14865">
        <ele>795</ele>
        <time>2025-09-17T08:37:08Z</time>
      </trkpt>
      <trkpt lat="43.44769" lon="2.1496">
        <ele>804</ele>
        <time>2025-09-17T08:37:23Z</time>
      </trkpt>
      <trkpt lat="43.44853" lon="2.15069">
        <ele>807</ele>
        <time>2025-09-17T08:37:44Z</time>
      </trkpt>
      <trkpt lat="43.44893" lon="2.15117">
        <ele>808</ele>
        <time>2025-09-17T08:37:53Z</time>
      </trkpt>
      <trkpt lat="43.44928" lon="2.15155">
        <ele>810</ele>
        <time>2025-09-17T08:38:01Z</time>
      </trkpt>
      <trkpt lat="43.44955" lon="2.15187">
        <ele>813</ele>
        <time>2025-09-17T08:38:08Z</time>
      </trkpt>
      <trkpt lat="43.44965" lon="2.15211">
        <ele>814</ele>
        <time>2025-09-17T08:38:11Z</time>
      </trkpt>
      <trkpt lat="43.44969" lon="2.15235">
        <ele>815</ele>
        <time>2025-09-17T08:38:14Z</time>
      </trkpt>
      <trkpt lat="43.44963" lon="2.15272">
        <ele>815</ele>
        <time>2025-09-17T08:38:19Z</time>
      </trkpt>
      <trkpt lat="43.44962" lon="2.15357">
        <ele>816</ele>
        <time>2025-09-17T08:38:30Z</time>
      </trkpt>
      <trkpt lat="43.44964" lon="2.15424">
        <ele>816</ele>
        <time>2025-09-17T08:38:39Z</time>
      </trkpt>
      <trkpt lat="43.4497" lon="2.15487">
        <ele>814</ele>
        <time>2025-09-17T08:38:47Z</time>
      </trkpt>
      <trkpt lat="43.44982" lon="2.15538">
        <ele>813</ele>
        <time>2025-09-17T08:38:54Z</time>
      </trkpt>
      <trkpt lat="43.4501" lon="2.15609">
        <ele>812</ele>
        <time>2025-09-17T08:39:04Z</time>
      </trkpt>
      <trkpt lat="43.45029" lon="2.15647">
        <ele>810</ele>
        <time>2025-09-17T08:39:10Z</time>
      </trkpt>
      <trkpt lat="43.4508" lon="2.1572">
        <ele>806</ele>
        <time>2025-09-17T08:39:23Z</time>
      </trkpt>
      <trkpt lat="43.45132" lon="2.15782">
        <ele>801</ele>
        <time>2025-09-17T08:39:36Z</time>
      </trkpt>
      <trkpt lat="43.45195" lon="2.15877">
        <ele>796</ele>
        <time>2025-09-17T08:39:52Z</time>
      </trkpt>
      <trkpt lat="43.4522" lon="2.15912">
        <ele>793</ele>
        <time>2025-09-17T08:39:59Z</time>
      </trkpt>
      <trkpt lat="43.4524" lon="2.15933">
        <ele>792</ele>
        <time>2025-09-17T08:40:03Z</time>
      </trkpt>
      <trkpt lat="43.45274" lon="2.16018">
        <ele>786</ele>
        <time>2025-09-17T08:40:16Z</time>
      </trkpt>
      <trkpt lat="43.45317" lon="2.16059">
        <ele>786</ele>
        <time>2025-09-17T08:40:25Z</time>
      </trkpt>
      <trkpt lat="43.45339" lon="2.1607">
        <ele>787</ele>
        <time>2025-09-17T08:40:29Z</time>
      </trkpt>
      <trkpt lat="43.4536" lon="2.16091">
        <ele>787</ele>
        <time>2025-09-17T08:40:34Z</time>
      </trkpt>
      <trkpt lat="43.45375" lon="2.16117">
        <ele>786</ele>
        <time>2025-09-17T08:40:38Z</time>
      </trkpt>
      <trkpt lat="43.4538" lon="2.16157">
        <ele>783</ele>
        <time>2025-09-17T08:40:43Z</time>
      </trkpt>
      <trkpt lat="43.45395" lon="2.16203">
        <ele>780</ele>
        <time>2025-09-17T08:40:50Z</time>
      </trkpt>
      <trkpt lat="43.4542" lon="2.16332">
        <ele>775</ele>
        <time>2025-09-17T08:41:07Z</time>
      </trkpt>
      <trkpt lat="43.45458" lon="2.16373">
        <ele>775</ele>
        <time>2025-09-17T08:41:16Z</time>
      </trkpt>
      <trkpt lat="43.45485" lon="2.16405">
        <ele>773</ele>
        <time>2025-09-17T08:41:22Z</time>
      </trkpt>
      <trkpt lat="43.45521" lon="2.16439">
        <ele>770</ele>
        <time>2025-09-17T08:41:30Z</time>
      </trkpt>
      <trkpt lat="43.4557" lon="2.16497">
        <ele>763</ele>
        <time>2025-09-17T08:41:41Z</time>
      </trkpt>
      <trkpt lat="43.45589" lon="2.16511">
        <ele>761</ele>
        <time>2025-09-17T08:41:45Z</time>
      </trkpt>
      <trkpt lat="43.45604" lon="2.16536">
        <ele>761</ele>
        <time>2025-09-17T08:41:49Z</time>
      </trkpt>
      <trkpt lat="43.45609" lon="2.16564">
        <ele>762</ele>
        <time>2025-09-17T08:41:53Z</time>
      </trkpt>
      <trkpt lat="43.45613" lon="2.16628">
        <ele>762</ele>
        <time>2025-09-17T08:42:01Z</time>
      </trkpt>
      <trkpt lat="43.45619" lon="2.16634">
        <ele>762</ele>
        <time>2025-09-17T08:42:03Z</time>
      </trkpt>
      <trkpt lat="43.45611" lon="2.16649">
        <ele>762</ele>
        <time>2025-09-17T08:42:05Z</time>
      </trkpt>
      <trkpt lat="43.45619" lon="2.16677">
        <ele>762</ele>
        <time>2025-09-17T08:42:09Z</time>
      </trkpt>
      <trkpt lat="43.45653" lon="2.16762">
        <ele>762</ele>
        <time>2025-09-17T08:42:21Z</time>
      </trkpt>
      <trkpt lat="43.45665" lon="2.16785">
        <ele>762</ele>
        <time>2025-09-17T08:42:25Z</time>
      </trkpt>
      <trkpt lat="43.45676" lon="2.16814">
        <ele>763</ele>
        <time>2025-09-17T08:42:29Z</time>
      </trkpt>
      <trkpt lat="43.45697" lon="2.16885">
        <ele>763</ele>
        <time>2025-09-17T08:42:39Z</time>
      </trkpt>
      <trkpt lat="43.45707" lon="2.16946">
        <ele>762</ele>
        <time>2025-09-17T08:42:47Z</time>
      </trkpt>
      <trkpt lat="43.45722" lon="2.17004">
        <ele>761</ele>
        <time>2025-09-17T08:42:55Z</time>
      </trkpt>
      <trkpt lat="43.45722" lon="2.17019">
        <ele>761</ele>
        <time>2025-09-17T08:42:57Z</time>
      </trkpt>
      <trkpt lat="43.45715" lon="2.17033">
        <ele>760</ele>
        <time>2025-09-17T08:42:59Z</time>
      </trkpt>
      <trkpt lat="43.45654" lon="2.17079">
        <ele>760</ele>
        <time>2025-09-17T08:43:12Z</time>
      </trkpt>
      <trkpt lat="43.45646" lon="2.17089">
        <ele>759</ele>
        <time>2025-09-17T08:43:14Z</time>
      </trkpt>
      <trkpt lat="43.45642" lon="2.17104">
        <ele>759</ele>
        <time>2025-09-17T08:43:16Z</time>
      </trkpt>
      <trkpt lat="43.45591" lon="2.1748">
        <ele>752</ele>
        <time>2025-09-17T08:44:05Z</time>
      </trkpt>
      <trkpt lat="43.456" lon="2.17581">
        <ele>751</ele>
        <time>2025-09-17T08:44:18Z</time>
      </trkpt>
      <trkpt lat="43.45597" lon="2.17597">
        <ele>752</ele>
        <time>2025-09-17T08:44:20Z</time>
      </trkpt>
      <trkpt lat="43.45555" lon="2.17671">
        <ele>754</ele>
        <time>2025-09-17T08:44:33Z</time>
      </trkpt>
      <trkpt lat="43.45551" lon="2.17693">
        <ele>754</ele>
        <time>2025-09-17T08:44:36Z</time>
      </trkpt>
      <trkpt lat="43.45553" lon="2.17706">
        <ele>754</ele>
        <time>2025-09-17T08:44:37Z</time>
      </trkpt>
      <trkpt lat="43.45567" lon="2.17756">
        <ele>755</ele>
        <time>2025-09-17T08:44:44Z</time>
      </trkpt>
      <trkpt lat="43.45568" lon="2.17813">
        <ele>753</ele>
        <time>2025-09-17T08:44:52Z</time>
      </trkpt>
      <trkpt lat="43.45595" lon="2.17886">
        <ele>750</ele>
        <time>2025-09-17T08:45:02Z</time>
      </trkpt>
      <trkpt lat="43.45601" lon="2.17917">
        <ele>749</ele>
        <time>2025-09-17T08:45:06Z</time>
      </trkpt>
      <trkpt lat="43.45605" lon="2.17955">
        <ele>750</ele>
        <time>2025-09-17T08:45:11Z</time>
      </trkpt>
      <trkpt lat="43.4561" lon="2.18073">
        <ele>752</ele>
        <time>2025-09-17T08:45:26Z</time>
      </trkpt>
      <trkpt lat="43.45601" lon="2.18123">
        <ele>753</ele>
        <time>2025-09-17T08:45:33Z</time>
      </trkpt>
      <trkpt lat="43.4557" lon="2.18259">
        <ele>757</ele>
        <time>2025-09-17T08:45:52Z</time>
      </trkpt>
      <trkpt lat="43.45568" lon="2.18275">
        <ele>757</ele>
        <time>2025-09-17T08:45:54Z</time>
      </trkpt>
      <trkpt lat="43.45572" lon="2.18282">
        <ele>757</ele>
        <time>2025-09-17T08:45:55Z</time>
      </trkpt>
      <trkpt lat="43.45532" lon="2.18321">
        <ele>759</ele>
        <time>2025-09-17T08:46:03Z</time>
      </trkpt>
      <trkpt lat="43.45479" lon="2.18381">
        <ele>763</ele>
        <time>2025-09-17T08:46:16Z</time>
      </trkpt>
      <trkpt lat="43.45415" lon="2.18459">
        <ele>768</ele>
        <time>2025-09-17T08:46:31Z</time>
      </trkpt>
      <trkpt lat="43.45355" lon="2.18506">
        <ele>767</ele>
        <time>2025-09-17T08:46:43Z</time>
      </trkpt>
      <trkpt lat="43.45348" lon="2.18515">
        <ele>766</ele>
        <time>2025-09-17T08:46:45Z</time>
      </trkpt>
      <trkpt lat="43.45337" lon="2.18538">
        <ele>765</ele>
        <time>2025-09-17T08:46:48Z</time>
      </trkpt>
      <trkpt lat="43.4533" lon="2.18568">
        <ele>764</ele>
        <time>2025-09-17T08:46:53Z</time>
      </trkpt>
      <trkpt lat="43.45327" lon="2.1861">
        <ele>763</ele>
        <time>2025-09-17T08:46:58Z</time>
      </trkpt>
      <trkpt lat="43.45341" lon="2.18693">
        <ele>764</ele>
        <time>2025-09-17T08:47:09Z</time>
      </trkpt>
      <trkpt lat="43.45343" lon="2.18757">
        <ele>765</ele>
        <time>2025-09-17T08:47:17Z</time>
      </trkpt>
      <trkpt lat="43.4535" lon="2.18816">
        <ele>764</ele>
        <time>2025-09-17T08:47:25Z</time>
      </trkpt>
      <trkpt lat="43.45354" lon="2.18842">
        <ele>763</ele>
        <time>2025-09-17T08:47:28Z</time>
      </trkpt>
      <trkpt lat="43.45362" lon="2.18868">
        <ele>762</ele>
        <time>2025-09-17T08:47:32Z</time>
      </trkpt>
      <trkpt lat="43.45377" lon="2.189">
        <ele>760</ele>
        <time>2025-09-17T08:47:37Z</time>
      </trkpt>
      <trkpt lat="43.45442" lon="2.19024">
        <ele>760</ele>
        <time>2025-09-17T08:47:57Z</time>
      </trkpt>
      <trkpt lat="43.45476" lon="2.19102">
        <ele>762</ele>
        <time>2025-09-17T08:48:08Z</time>
      </trkpt>
      <trkpt lat="43.45526" lon="2.19193">
        <ele>762</ele>
        <time>2025-09-17T08:48:23Z</time>
      </trkpt>
      <trkpt lat="43.45542" lon="2.19232">
        <ele>762</ele>
        <time>2025-09-17T08:48:29Z</time>
      </trkpt>
      <trkpt lat="43.45575" lon="2.1929">
        <ele>763</ele>
        <time>2025-09-17T08:48:39Z</time>
      </trkpt>
      <trkpt lat="43.45588" lon="2.1932">
        <ele>762</ele>
        <time>2025-09-17T08:48:43Z</time>
      </trkpt>
      <trkpt lat="43.45604" lon="2.19344">
        <ele>761</ele>
        <time>2025-09-17T08:48:47Z</time>
      </trkpt>
      <trkpt lat="43.45624" lon="2.19366">
        <ele>758</ele>
        <time>2025-09-17T08:48:52Z</time>
      </trkpt>
      <trkpt lat="43.45632" lon="2.1938">
        <ele>757</ele>
        <time>2025-09-17T08:48:54Z</time>
      </trkpt>
      <trkpt lat="43.45635" lon="2.19375">
        <ele>757</ele>
        <time>2025-09-17T08:48:55Z</time>
      </trkpt>
      <trkpt lat="43.45675" lon="2.19399">
        <ele>753</ele>
        <time>2025-09-17T08:49:03Z</time>
      </trkpt>
      <trkpt lat="43.45739" lon="2.1941">
        <ele>748</ele>
        <time>2025-09-17T08:49:14Z</time>
      </trkpt>
      <trkpt lat="43.45848" lon="2.1945">
        <ele>742</ele>
        <time>2025-09-17T08:49:34Z</time>
      </trkpt>
      <trkpt lat="43.45897" lon="2.1946">
        <ele>742</ele>
        <time>2025-09-17T08:49:43Z</time>
      </trkpt>
      <trkpt lat="43.4592" lon="2.19462">
        <ele>742</ele>
        <time>2025-09-17T08:49:47Z</time>
      </trkpt>
      <trkpt lat="43.45952" lon="2.19483">
        <ele>741</ele>
        <time>2025-09-17T08:49:53Z</time>
      </trkpt>
      <trkpt lat="43.45952" lon="2.19485">
        <ele>741</ele>
        <time>2025-09-17T08:49:54Z</time>
      </trkpt>
      <trkpt lat="43.45976" lon="2.19498">
        <ele>740</ele>
        <time>2025-09-17T08:49:58Z</time>
      </trkpt>
      <trkpt lat="43.46001" lon="2.19504">
        <ele>740</ele>
        <time>2025-09-17T08:50:03Z</time>
      </trkpt>
      <trkpt lat="43.46018" lon="2.19517">
        <ele>739</ele>
        <time>2025-09-17T08:50:06Z</time>
      </trkpt>
      <trkpt lat="43.46074" lon="2.19603">
        <ele>736</ele>
        <time>2025-09-17T08:50:21Z</time>
      </trkpt>
      <trkpt lat="43.4613" lon="2.19656">
        <ele>736</ele>
        <time>2025-09-17T08:50:33Z</time>
      </trkpt>
      <trkpt lat="43.46179" lon="2.1971">
        <ele>734</ele>
        <time>2025-09-17T08:50:44Z</time>
      </trkpt>
      <trkpt lat="43.46247" lon="2.19822">
        <ele>727</ele>
        <time>2025-09-17T08:51:03Z</time>
      </trkpt>
      <trkpt lat="43.46262" lon="2.19842">
        <ele>724</ele>
        <time>2025-09-17T08:51:07Z</time>
      </trkpt>
      <trkpt lat="43.46271" lon="2.19851">
        <ele>721</ele>
        <time>2025-09-17T08:51:09Z</time>
      </trkpt>
      <trkpt lat="43.46282" lon="2.19856">
        <ele>720</ele>
        <time>2025-09-17T08:51:11Z</time>
      </trkpt>
      <trkpt lat="43.46297" lon="2.19858">
        <ele>718</ele>
        <time>2025-09-17T08:51:14Z</time>
      </trkpt>
      <trkpt lat="43.46316" lon="2.19851">
        <ele>718</ele>
        <time>2025-09-17T08:51:17Z</time>
      </trkpt>
      <trkpt lat="43.46381" lon="2.19854">
        <ele>711</ele>
        <time>2025-09-17T08:51:29Z</time>
      </trkpt>
      <trkpt lat="43.46442" lon="2.19864">
        <ele>707</ele>
        <time>2025-09-17T08:51:40Z</time>
      </trkpt>
      <trkpt lat="43.46495" lon="2.19858">
        <ele>707</ele>
        <time>2025-09-17T08:51:49Z</time>
      </trkpt>
      <trkpt lat="43.46576" lon="2.19801">
        <ele>703</ele>
        <time>2025-09-17T08:52:05Z</time>
      </trkpt>
      <trkpt lat="43.4665" lon="2.19745">
        <ele>698</ele>
        <time>2025-09-17T08:52:20Z</time>
      </trkpt>
      <trkpt lat="43.46667" lon="2.19724">
        <ele>695</ele>
        <time>2025-09-17T08:52:24Z</time>
      </trkpt>
      <trkpt lat="43.46697" lon="2.19661">
        <ele>688</ele>
        <time>2025-09-17T08:52:34Z</time>
      </trkpt>
      <trkpt lat="43.467" lon="2.19645">
        <ele>687</ele>
        <time>2025-09-17T08:52:36Z</time>
      </trkpt>
      <trkpt lat="43.46725" lon="2.19667">
        <ele>689</ele>
        <time>2025-09-17T08:52:42Z</time>
      </trkpt>
      <trkpt lat="43.46731" lon="2.19666">
        <ele>689</ele>
        <time>2025-09-17T08:52:43Z</time>
      </trkpt>
      <trkpt lat="43.46743" lon="2.19654">
        <ele>688</ele>
        <time>2025-09-17T08:52:45Z</time>
      </trkpt>
      <trkpt lat="43.46759" lon="2.19605">
        <ele>683</ele>
        <time>2025-09-17T08:52:52Z</time>
      </trkpt>
      <trkpt lat="43.46762" lon="2.19565">
        <ele>680</ele>
        <time>2025-09-17T08:52:57Z</time>
      </trkpt>
      <trkpt lat="43.46767" lon="2.19544">
        <ele>679</ele>
        <time>2025-09-17T08:53:00Z</time>
      </trkpt>
      <trkpt lat="43.46782" lon="2.19508">
        <ele>678</ele>
        <time>2025-09-17T08:53:06Z</time>
      </trkpt>
      <trkpt lat="43.4682" lon="2.1946">
        <ele>674</ele>
        <time>2025-09-17T08:53:15Z</time>
      </trkpt>
      <trkpt lat="43.46873" lon="2.19363">
        <ele>666</ele>
        <time>2025-09-17T08:53:31Z</time>
      </trkpt>
      <trkpt lat="43.46918" lon="2.19293">
        <ele>662</ele>
        <time>2025-09-17T08:53:43Z</time>
      </trkpt>
      <trkpt lat="43.46988" lon="2.19177">
        <ele>661</ele>
        <time>2025-09-17T08:54:02Z</time>
      </trkpt>
      <trkpt lat="43.47008" lon="2.19184">
        <ele>658</ele>
        <time>2025-09-17T08:54:06Z</time>
      </trkpt>
      <trkpt lat="43.4703" lon="2.19182">
        <ele>651</ele>
        <time>2025-09-17T08:54:10Z</time>
      </trkpt>
      <trkpt lat="43.47022" lon="2.19241">
        <ele>647</ele>
        <time>2025-09-17T08:54:17Z</time>
      </trkpt>
      <trkpt lat="43.4701" lon="2.19275">
        <ele>646</ele>
        <time>2025-09-17T08:54:22Z</time>
      </trkpt>
      <trkpt lat="43.46997" lon="2.19295">
        <ele>647</ele>
        <time>2025-09-17T08:54:26Z</time>
      </trkpt>
      <trkpt lat="43.46975" lon="2.19346">
        <ele>644</ele>
        <time>2025-09-17T08:54:33Z</time>
      </trkpt>
      <trkpt lat="43.46958" lon="2.19378">
        <ele>647</ele>
        <time>2025-09-17T08:54:39Z</time>
      </trkpt>
      <trkpt lat="43.46948" lon="2.19401">
        <ele>648</ele>
        <time>2025-09-17T08:54:42Z</time>
      </trkpt>
      <trkpt lat="43.46932" lon="2.19427">
        <ele>652</ele>
        <time>2025-09-17T08:54:46Z</time>
      </trkpt>
      <trkpt lat="43.4693" lon="2.19437">
        <ele>655</ele>
        <time>2025-09-17T08:54:48Z</time>
      </trkpt>
      <trkpt lat="43.46935" lon="2.19442">
        <ele>655</ele>
        <time>2025-09-17T08:54:49Z</time>
      </trkpt>
      <trkpt lat="43.4699" lon="2.19447">
        <ele>648</ele>
        <time>2025-09-17T08:54:59Z</time>
      </trkpt>
      <trkpt lat="43.47018" lon="2.19459">
        <ele>647</ele>
        <time>2025-09-17T08:55:04Z</time>
      </trkpt>
      <trkpt lat="43.47073" lon="2.1947">
        <ele>642</ele>
        <time>2025-09-17T08:55:14Z</time>
      </trkpt>
      <trkpt lat="43.47134" lon="2.19475">
        <ele>633</ele>
        <time>2025-09-17T08:55:25Z</time>
      </trkpt>
      <trkpt lat="43.47161" lon="2.19487">
        <ele>632</ele>
        <time>2025-09-17T08:55:30Z</time>
      </trkpt>
      <trkpt lat="43.47184" lon="2.19505">
        <ele>632</ele>
        <time>2025-09-17T08:55:34Z</time>
      </trkpt>
      <trkpt lat="43.47197" lon="2.19517">
        <ele>631</ele>
        <time>2025-09-17T08:55:37Z</time>
      </trkpt>
      <trkpt lat="43.47219" lon="2.19546">
        <ele>632</ele>
        <time>2025-09-17T08:55:43Z</time>
      </trkpt>
      <trkpt lat="43.47236" lon="2.19563">
        <ele>631</ele>
        <time>2025-09-17T08:55:46Z</time>
      </trkpt>
      <trkpt lat="43.47247" lon="2.19568">
        <ele>629</ele>
        <time>2025-09-17T08:55:48Z</time>
      </trkpt>
      <trkpt lat="43.473" lon="2.19582">
        <ele>615</ele>
        <time>2025-09-17T08:55:58Z</time>
      </trkpt>
      <trkpt lat="43.47307" lon="2.1958">
        <ele>613</ele>
        <time>2025-09-17T08:55:59Z</time>
      </trkpt>
      <trkpt lat="43.47314" lon="2.19589">
        <ele>611</ele>
        <time>2025-09-17T08:56:01Z</time>
      </trkpt>
      <trkpt lat="43.47315" lon="2.19599">
        <ele>611</ele>
        <time>2025-09-17T08:56:02Z</time>
      </trkpt>
      <trkpt lat="43.473" lon="2.19791">
        <ele>607</ele>
        <time>2025-09-17T08:56:27Z</time>
      </trkpt>
      <trkpt lat="43.47297" lon="2.1981">
        <ele>606</ele>
        <time>2025-09-17T08:56:30Z</time>
      </trkpt>
      <trkpt lat="43.47292" lon="2.19823">
        <ele>606</ele>
        <time>2025-09-17T08:56:32Z</time>
      </trkpt>
      <trkpt lat="43.47247" lon="2.19905">
        <ele>608</ele>
        <time>2025-09-17T08:56:45Z</time>
      </trkpt>
      <trkpt lat="43.47243" lon="2.19918">
        <ele>607</ele>
        <time>2025-09-17T08:56:47Z</time>
      </trkpt>
      <trkpt lat="43.47243" lon="2.19935">
        <ele>604</ele>
        <time>2025-09-17T08:56:49Z</time>
      </trkpt>
      <trkpt lat="43.47249" lon="2.19964">
        <ele>597</ele>
        <time>2025-09-17T08:56:53Z</time>
      </trkpt>
      <trkpt lat="43.47247" lon="2.19981">
        <ele>594</ele>
        <time>2025-09-17T08:56:55Z</time>
      </trkpt>
      <trkpt lat="43.47238" lon="2.19995">
        <ele>595</ele>
        <time>2025-09-17T08:56:57Z</time>
      </trkpt>
      <trkpt lat="43.4721" lon="2.20017">
        <ele>600</ele>
        <time>2025-09-17T08:57:03Z</time>
      </trkpt>
      <trkpt lat="43.47207" lon="2.20026">
        <ele>600</ele>
        <time>2025-09-17T08:57:04Z</time>
      </trkpt>
      <trkpt lat="43.47208" lon="2.20035">
        <ele>598</ele>
        <time>2025-09-17T08:57:06Z</time>
      </trkpt>
      <trkpt lat="43.47213" lon="2.20041">
        <ele>595</ele>
        <time>2025-09-17T08:57:07Z</time>
      </trkpt>
      <trkpt lat="43.47232" lon="2.20046">
        <ele>589</ele>
        <time>2025-09-17T08:57:10Z</time>
      </trkpt>
      <trkpt lat="43.47236" lon="2.20052">
        <ele>587</ele>
        <time>2025-09-17T08:57:11Z</time>
      </trkpt>
      <trkpt lat="43.47237" lon="2.2006">
        <ele>585</ele>
        <time>2025-09-17T08:57:12Z</time>
      </trkpt>
      <trkpt lat="43.47234" lon="2.2007">
        <ele>585</ele>
        <time>2025-09-17T08:57:14Z</time>
      </trkpt>
      <trkpt lat="43.47223" lon="2.20088">
        <ele>586</ele>
        <time>2025-09-17T08:57:17Z</time>
      </trkpt>
      <trkpt lat="43.47202" lon="2.20148">
        <ele>583</ele>
        <time>2025-09-17T08:57:25Z</time>
      </trkpt>
      <trkpt lat="43.47186" lon="2.20173">
        <ele>582</ele>
        <time>2025-09-17T08:57:30Z</time>
      </trkpt>
      <trkpt lat="43.47161" lon="2.20156">
        <ele>588</ele>
        <time>2025-09-17T08:57:35Z</time>
      </trkpt>
      <trkpt lat="43.47152" lon="2.20155">
        <ele>590</ele>
        <time>2025-09-17T08:57:36Z</time>
      </trkpt>
      <trkpt lat="43.47109" lon="2.20168">
        <ele>597</ele>
        <time>2025-09-17T08:57:44Z</time>
      </trkpt>
      <trkpt lat="43.47099" lon="2.20174">
        <ele>598</ele>
        <time>2025-09-17T08:57:46Z</time>
      </trkpt>
      <trkpt lat="43.47092" lon="2.20181">
        <ele>599</ele>
        <time>2025-09-17T08:57:48Z</time>
      </trkpt>
      <trkpt lat="43.47088" lon="2.20191">
        <ele>598</ele>
        <time>2025-09-17T08:57:49Z</time>
      </trkpt>
      <trkpt lat="43.47084" lon="2.20212">
        <ele>594</ele>
        <time>2025-09-17T08:57:52Z</time>
      </trkpt>
      <trkpt lat="43.4708" lon="2.20223">
        <ele>593</ele>
        <time>2025-09-17T08:57:53Z</time>
      </trkpt>
      <trkpt lat="43.47054" lon="2.20262">
        <ele>596</ele>
        <time>2025-09-17T08:58:00Z</time>
      </trkpt>
      <trkpt lat="43.47018" lon="2.20293">
        <ele>601</ele>
        <time>2025-09-17T08:58:08Z</time>
      </trkpt>
      <trkpt lat="43.46978" lon="2.20346">
        <ele>600</ele>
        <time>2025-09-17T08:58:18Z</time>
      </trkpt>
      <trkpt lat="43.46973" lon="2.20364">
        <ele>603</ele>
        <time>2025-09-17T08:58:20Z</time>
      </trkpt>
      <trkpt lat="43.46974" lon="2.20377">
        <ele>605</ele>
        <time>2025-09-17T08:58:22Z</time>
      </trkpt>
      <trkpt lat="43.46979" lon="2.20389">
        <ele>606</ele>
        <time>2025-09-17T08:58:24Z</time>
      </trkpt>
      <trkpt lat="43.46986" lon="2.20394">
        <ele>606</ele>
        <time>2025-09-17T08:58:25Z</time>
      </trkpt>
      <trkpt lat="43.46994" lon="2.20392">
        <ele>604</ele>
        <time>2025-09-17T08:58:27Z</time>
      </trkpt>
      <trkpt lat="43.47017" lon="2.2036">
        <ele>600</ele>
        <time>2025-09-17T08:58:32Z</time>
      </trkpt>
      <trkpt lat="43.47034" lon="2.20343">
        <ele>598</ele>
        <time>2025-09-17T08:58:36Z</time>
      </trkpt>
      <trkpt lat="43.47044" lon="2.2034">
        <ele>598</ele>
        <time>2025-09-17T08:58:38Z</time>
      </trkpt>
      <trkpt lat="43.47071" lon="2.20323">
        <ele>597</ele>
        <time>2025-09-17T08:58:43Z</time>
      </trkpt>
      <trkpt lat="43.47124" lon="2.20274">
        <ele>591</ele>
        <time>2025-09-17T08:58:55Z</time>
      </trkpt>
      <trkpt lat="43.47135" lon="2.20271">
        <ele>591</ele>
        <time>2025-09-17T08:58:57Z</time>
      </trkpt>
      <trkpt lat="43.47144" lon="2.20272">
        <ele>592</ele>
        <time>2025-09-17T08:58:58Z</time>
      </trkpt>
      <trkpt lat="43.4718" lon="2.20294">
        <ele>599</ele>
        <time>2025-09-17T08:59:05Z</time>
      </trkpt>
      <trkpt lat="43.47206" lon="2.20306">
        <ele>602</ele>
        <time>2025-09-17T08:59:10Z</time>
      </trkpt>
      <trkpt lat="43.47216" lon="2.20306">
        <ele>602</ele>
        <time>2025-09-17T08:59:12Z</time>
      </trkpt>
      <trkpt lat="43.47225" lon="2.20303">
        <ele>601</ele>
        <time>2025-09-17T08:59:13Z</time>
      </trkpt>
      <trkpt lat="43.47247" lon="2.20287">
        <ele>597</ele>
        <time>2025-09-17T08:59:18Z</time>
      </trkpt>
      <trkpt lat="43.47255" lon="2.20284">
        <ele>597</ele>
        <time>2025-09-17T08:59:19Z</time>
      </trkpt>
      <trkpt lat="43.47286" lon="2.20279">
        <ele>600</ele>
        <time>2025-09-17T08:59:25Z</time>
      </trkpt>
      <trkpt lat="43.47293" lon="2.20276">
        <ele>601</ele>
        <time>2025-09-17T08:59:26Z</time>
      </trkpt>
      <trkpt lat="43.47307" lon="2.20262">
        <ele>602</ele>
        <time>2025-09-17T08:59:29Z</time>
      </trkpt>
      <trkpt lat="43.47329" lon="2.2023">
        <ele>603</ele>
        <time>2025-09-17T08:59:35Z</time>
      </trkpt>
      <trkpt lat="43.47336" lon="2.20226">
        <ele>603</ele>
        <time>2025-09-17T08:59:36Z</time>
      </trkpt>
      <trkpt lat="43.4734" lon="2.20227">
        <ele>603</ele>
        <time>2025-09-17T08:59:37Z</time>
      </trkpt>
      <trkpt lat="43.47344" lon="2.20232">
        <ele>603</ele>
        <time>2025-09-17T08:59:38Z</time>
      </trkpt>
      <trkpt lat="43.47344" lon="2.20242">
        <ele>605</ele>
        <time>2025-09-17T08:59:39Z</time>
      </trkpt>
      <trkpt lat="43.47328" lon="2.20276">
        <ele>607</ele>
        <time>2025-09-17T08:59:45Z</time>
      </trkpt>
      <trkpt lat="43.473" lon="2.20349">
        <ele>607</ele>
        <time>2025-09-17T08:59:55Z</time>
      </trkpt>
      <trkpt lat="43.47297" lon="2.20382">
        <ele>609</ele>
        <time>2025-09-17T09:00:00Z</time>
      </trkpt>
      <trkpt lat="43.47298" lon="2.20398">
        <ele>609</ele>
        <time>2025-09-17T09:00:02Z</time>
      </trkpt>
      <trkpt lat="43.47302" lon="2.20414">
        <ele>609</ele>
        <time>2025-09-17T09:00:04Z</time>
      </trkpt>
      <trkpt lat="43.47311" lon="2.20434">
        <ele>606</ele>
        <time>2025-09-17T09:00:07Z</time>
      </trkpt>
      <trkpt lat="43.47331" lon="2.20468">
        <ele>598</ele>
        <time>2025-09-17T09:00:12Z</time>
      </trkpt>
      <trkpt lat="43.47343" lon="2.20499">
        <ele>591</ele>
        <time>2025-09-17T09:00:17Z</time>
      </trkpt>
      <trkpt lat="43.47349" lon="2.20503">
        <ele>588</ele>
        <time>2025-09-17T09:00:18Z</time>
      </trkpt>
      <trkpt lat="43.47355" lon="2.20499">
        <ele>586</ele>
        <time>2025-09-17T09:00:19Z</time>
      </trkpt>
      <trkpt lat="43.47357" lon="2.2049">
        <ele>586</ele>
        <time>2025-09-17T09:00:21Z</time>
      </trkpt>
      <trkpt lat="43.47347" lon="2.20464">
        <ele>592</ele>
        <time>2025-09-17T09:00:24Z</time>
      </trkpt>
      <trkpt lat="43.47339" lon="2.2043">
        <ele>597</ele>
        <time>2025-09-17T09:00:29Z</time>
      </trkpt>
      <trkpt lat="43.47337" lon="2.20413">
        <ele>599</ele>
        <time>2025-09-17T09:00:31Z</time>
      </trkpt>
      <trkpt lat="43.47338" lon="2.20394">
        <ele>600</ele>
        <time>2025-09-17T09:00:34Z</time>
      </trkpt>
      <trkpt lat="43.47344" lon="2.2038">
        <ele>599</ele>
        <time>2025-09-17T09:00:36Z</time>
      </trkpt>
      <trkpt lat="43.47358" lon="2.20366">
        <ele>594</ele>
        <time>2025-09-17T09:00:39Z</time>
      </trkpt>
      <trkpt lat="43.47385" lon="2.2035">
        <ele>585</ele>
        <time>2025-09-17T09:00:44Z</time>
      </trkpt>
      <trkpt lat="43.47395" lon="2.20339">
        <ele>582</ele>
        <time>2025-09-17T09:00:46Z</time>
      </trkpt>
      <trkpt lat="43.47399" lon="2.20339">
        <ele>580</ele>
        <time>2025-09-17T09:00:47Z</time>
      </trkpt>
      <trkpt lat="43.47402" lon="2.20343">
        <ele>579</ele>
        <time>2025-09-17T09:00:48Z</time>
      </trkpt>
      <trkpt lat="43.47403" lon="2.20351">
        <ele>578</ele>
        <time>2025-09-17T09:00:49Z</time>
      </trkpt>
      <trkpt lat="43.47389" lon="2.20387">
        <ele>581</ele>
        <time>2025-09-17T09:00:54Z</time>
      </trkpt>
      <trkpt lat="43.47386" lon="2.204">
        <ele>581</ele>
        <time>2025-09-17T09:00:56Z</time>
      </trkpt>
      <trkpt lat="43.47386" lon="2.20425">
        <ele>580</ele>
        <time>2025-09-17T09:00:59Z</time>
      </trkpt>
      <trkpt lat="43.4739" lon="2.20447">
        <ele>577</ele>
        <time>2025-09-17T09:01:02Z</time>
      </trkpt>
      <trkpt lat="43.47409" lon="2.20494">
        <ele>566</ele>
        <time>2025-09-17T09:01:09Z</time>
      </trkpt>
      <trkpt lat="43.47411" lon="2.20505">
        <ele>563</ele>
        <time>2025-09-17T09:01:10Z</time>
      </trkpt>
      <trkpt lat="43.4741" lon="2.20516">
        <ele>561</ele>
        <time>2025-09-17T09:01:12Z</time>
      </trkpt>
      <trkpt lat="43.47387" lon="2.20553">
        <ele>565</ele>
        <time>2025-09-17T09:01:18Z</time>
      </trkpt>
      <trkpt lat="43.47377" lon="2.20582">
        <ele>566</ele>
        <time>2025-09-17T09:01:22Z</time>
      </trkpt>
      <trkpt lat="43.47357" lon="2.20652">
        <ele>565</ele>
        <time>2025-09-17T09:01:32Z</time>
      </trkpt>
      <trkpt lat="43.47341" lon="2.20766">
        <ele>561</ele>
        <time>2025-09-17T09:01:47Z</time>
      </trkpt>
      <trkpt lat="43.47334" lon="2.20788">
        <ele>564</ele>
        <time>2025-09-17T09:01:50Z</time>
      </trkpt>
      <trkpt lat="43.47332" lon="2.20801">
        <ele>565</ele>
        <time>2025-09-17T09:01:52Z</time>
      </trkpt>
      <trkpt lat="43.47336" lon="2.20806">
        <ele>564</ele>
        <time>2025-09-17T09:01:53Z</time>
      </trkpt>
      <trkpt lat="43.47341" lon="2.20807">
        <ele>563</ele>
        <time>2025-09-17T09:01:54Z</time>
      </trkpt>
      <trkpt lat="43.47348" lon="2.20801">
        <ele>562</ele>
        <time>2025-09-17T09:01:55Z</time>
      </trkpt>
      <trkpt lat="43.47351" lon="2.20782">
        <ele>560</ele>
        <time>2025-09-17T09:01:58Z</time>
      </trkpt>
      <trkpt lat="43.47348" lon="2.20801">
        <ele>562</ele>
        <time>2025-09-17T09:02:00Z</time>
      </trkpt>
      <trkpt lat="43.47354" lon="2.20807">
        <ele>562</ele>
        <time>2025-09-17T09:02:02Z</time>
      </trkpt>
      <trkpt lat="43.47376" lon="2.20799">
        <ele>557</ele>
        <time>2025-09-17T09:02:06Z</time>
      </trkpt>
      <trkpt lat="43.47414" lon="2.20767">
        <ele>541</ele>
        <time>2025-09-17T09:02:14Z</time>
      </trkpt>
      <trkpt lat="43.47448" lon="2.20741">
        <ele>536</ele>
        <time>2025-09-17T09:02:20Z</time>
      </trkpt>
      <trkpt lat="43.47472" lon="2.20727">
        <ele>534</ele>
        <time>2025-09-17T09:02:25Z</time>
      </trkpt>
      <trkpt lat="43.47501" lon="2.20707">
        <ele>527</ele>
        <time>2025-09-17T09:02:31Z</time>
      </trkpt>
      <trkpt lat="43.47531" lon="2.20711">
        <ele>522</ele>
        <time>2025-09-17T09:02:36Z</time>
      </trkpt>
      <trkpt lat="43.47547" lon="2.20732">
        <ele>525</ele>
        <time>2025-09-17T09:02:40Z</time>
      </trkpt>
      <trkpt lat="43.47586" lon="2.20809">
        <ele>533</ele>
        <time>2025-09-17T09:02:52Z</time>
      </trkpt>
      <trkpt lat="43.47605" lon="2.20842">
        <ele>535</ele>
        <time>2025-09-17T09:02:58Z</time>
      </trkpt>
      <trkpt lat="43.47681" lon="2.20876">
        <ele>528</ele>
        <time>2025-09-17T09:03:12Z</time>
      </trkpt>
      <trkpt lat="43.47723" lon="2.20925">
        <ele>534</ele>
        <time>2025-09-17T09:03:22Z</time>
      </trkpt>
      <trkpt lat="43.47767" lon="2.2092">
        <ele>521</ele>
        <time>2025-09-17T09:03:30Z</time>
      </trkpt>
      <trkpt lat="43.47777" lon="2.20923">
        <ele>519</ele>
        <time>2025-09-17T09:03:31Z</time>
      </trkpt>
      <trkpt lat="43.47784" lon="2.20932">
        <ele>519</ele>
        <time>2025-09-17T09:03:33Z</time>
      </trkpt>
      <trkpt lat="43.47792" lon="2.20966">
        <ele>526</ele>
        <time>2025-09-17T09:03:38Z</time>
      </trkpt>
      <trkpt lat="43.47805" lon="2.2099">
        <ele>528</ele>
        <time>2025-09-17T09:03:42Z</time>
      </trkpt>
      <trkpt lat="43.47813" lon="2.20996">
        <ele>527</ele>
        <time>2025-09-17T09:03:43Z</time>
      </trkpt>
      <trkpt lat="43.47847" lon="2.21005">
        <ele>520</ele>
        <time>2025-09-17T09:03:49Z</time>
      </trkpt>
      <trkpt lat="43.47879" lon="2.20998">
        <ele>512</ele>
        <time>2025-09-17T09:03:55Z</time>
      </trkpt>
      <trkpt lat="43.47908" lon="2.21001">
        <ele>506</ele>
        <time>2025-09-17T09:04:00Z</time>
      </trkpt>
      <trkpt lat="43.47919" lon="2.21011">
        <ele>505</ele>
        <time>2025-09-17T09:04:03Z</time>
      </trkpt>
      <trkpt lat="43.47928" lon="2.21023">
        <ele>504</ele>
        <time>2025-09-17T09:04:05Z</time>
      </trkpt>
      <trkpt lat="43.4793" lon="2.21041">
        <ele>506</ele>
        <time>2025-09-17T09:04:07Z</time>
      </trkpt>
      <trkpt lat="43.47929" lon="2.2106">
        <ele>508</ele>
        <time>2025-09-17T09:04:10Z</time>
      </trkpt>
      <trkpt lat="43.47924" lon="2.21079">
        <ele>512</ele>
        <time>2025-09-17T09:04:12Z</time>
      </trkpt>
      <trkpt lat="43.47908" lon="2.21108">
        <ele>514</ele>
        <time>2025-09-17T09:04:17Z</time>
      </trkpt>
      <trkpt lat="43.47859" lon="2.21168">
        <ele>517</ele>
        <time>2025-09-17T09:04:29Z</time>
      </trkpt>
      <trkpt lat="43.47843" lon="2.21179">
        <ele>517</ele>
        <time>2025-09-17T09:04:32Z</time>
      </trkpt>
      <trkpt lat="43.47824" lon="2.21185">
        <ele>519</ele>
        <time>2025-09-17T09:04:35Z</time>
      </trkpt>
      <trkpt lat="43.47789" lon="2.21192">
        <ele>521</ele>
        <time>2025-09-17T09:04:42Z</time>
      </trkpt>
      <trkpt lat="43.47757" lon="2.21192">
        <ele>526</ele>
        <time>2025-09-17T09:04:47Z</time>
      </trkpt>
      <trkpt lat="43.47725" lon="2.21196">
        <ele>532</ele>
        <time>2025-09-17T09:04:53Z</time>
      </trkpt>
      <trkpt lat="43.47691" lon="2.21209">
        <ele>536</ele>
        <time>2025-09-17T09:04:59Z</time>
      </trkpt>
      <trkpt lat="43.47639" lon="2.2125">
        <ele>543</ele>
        <time>2025-09-17T09:05:10Z</time>
      </trkpt>
      <trkpt lat="43.47626" lon="2.21264">
        <ele>548</ele>
        <time>2025-09-17T09:05:13Z</time>
      </trkpt>
      <trkpt lat="43.4762" lon="2.21289">
        <ele>548</ele>
        <time>2025-09-17T09:05:16Z</time>
      </trkpt>
      <trkpt lat="43.47636" lon="2.21372">
        <ele>532</ele>
        <time>2025-09-17T09:05:27Z</time>
      </trkpt>
      <trkpt lat="43.47637" lon="2.21403">
        <ele>530</ele>
        <time>2025-09-17T09:05:31Z</time>
      </trkpt>
      <trkpt lat="43.47627" lon="2.21447">
        <ele>529</ele>
        <time>2025-09-17T09:05:37Z</time>
      </trkpt>
      <trkpt lat="43.47588" lon="2.21523">
        <ele>529</ele>
        <time>2025-09-17T09:05:49Z</time>
      </trkpt>
      <trkpt lat="43.47555" lon="2.21567">
        <ele>530</ele>
        <time>2025-09-17T09:05:57Z</time>
      </trkpt>
      <trkpt lat="43.47518" lon="2.21606">
        <ele>538</ele>
        <time>2025-09-17T09:06:06Z</time>
      </trkpt>
      <trkpt lat="43.47503" lon="2.21625">
        <ele>542</ele>
        <time>2025-09-17T09:06:09Z</time>
      </trkpt>
      <trkpt lat="43.47503" lon="2.21648">
        <ele>540</ele>
        <time>2025-09-17T09:06:12Z</time>
      </trkpt>
      <trkpt lat="43.47529" lon="2.21674">
        <ele>534</ele>
        <time>2025-09-17T09:06:18Z</time>
      </trkpt>
      <trkpt lat="43.47581" lon="2.21703">
        <ele>528</ele>
        <time>2025-09-17T09:06:28Z</time>
      </trkpt>
      <trkpt lat="43.47639" lon="2.21719">
        <ele>522</ele>
        <time>2025-09-17T09:06:39Z</time>
      </trkpt>
      <trkpt lat="43.47701" lon="2.2171">
        <ele>513</ele>
        <time>2025-09-17T09:06:50Z</time>
      </trkpt>
      <trkpt lat="43.4776" lon="2.21689">
        <ele>504</ele>
        <time>2025-09-17T09:07:01Z</time>
      </trkpt>
      <trkpt lat="43.47816" lon="2.2168">
        <ele>501</ele>
        <time>2025-09-17T09:07:11Z</time>
      </trkpt>
      <trkpt lat="43.47887" lon="2.21678">
        <ele>493</ele>
        <time>2025-09-17T09:07:23Z</time>
      </trkpt>
      <trkpt lat="43.47914" lon="2.21695">
        <ele>490</ele>
        <time>2025-09-17T09:07:28Z</time>
      </trkpt>
      <trkpt lat="43.47938" lon="2.21737">
        <ele>485</ele>
        <time>2025-09-17T09:07:35Z</time>
      </trkpt>
      <trkpt lat="43.47937" lon="2.21755">
        <ele>485</ele>
        <time>2025-09-17T09:07:38Z</time>
      </trkpt>
      <trkpt lat="43.4792" lon="2.21797">
        <ele>483</ele>
        <time>2025-09-17T09:07:44Z</time>
      </trkpt>
      <trkpt lat="43.47886" lon="2.21872">
        <ele>483</ele>
        <time>2025-09-17T09:07:55Z</time>
      </trkpt>
      <trkpt lat="43.47875" lon="2.21923">
        <ele>477</ele>
        <time>2025-09-17T09:08:02Z</time>
      </trkpt>
      <trkpt lat="43.47868" lon="2.21941">
        <ele>475</ele>
        <time>2025-09-17T09:08:05Z</time>
      </trkpt>
      <trkpt lat="43.47821" lon="2.22001">
        <ele>475</ele>
        <time>2025-09-17T09:08:16Z</time>
      </trkpt>
      <trkpt lat="43.47817" lon="2.22008">
        <ele>474</ele>
        <time>2025-09-17T09:08:17Z</time>
      </trkpt>
      <trkpt lat="43.47816" lon="2.22016">
        <ele>471</ele>
        <time>2025-09-17T09:08:18Z</time>
      </trkpt>
      <trkpt lat="43.47818" lon="2.22021">
        <ele>469</ele>
        <time>2025-09-17T09:08:19Z</time>
      </trkpt>
      <trkpt lat="43.4778" lon="2.22035">
        <ele>473</ele>
        <time>2025-09-17T09:08:26Z</time>
      </trkpt>
      <trkpt lat="43.47698" lon="2.22077">
        <ele>481</ele>
        <time>2025-09-17T09:08:42Z</time>
      </trkpt>
      <trkpt lat="43.47679" lon="2.22094">
        <ele>482</ele>
        <time>2025-09-17T09:08:46Z</time>
      </trkpt>
      <trkpt lat="43.47647" lon="2.22131">
        <ele>484</ele>
        <time>2025-09-17T09:08:53Z</time>
      </trkpt>
      <trkpt lat="43.4762" lon="2.22176">
        <ele>483</ele>
        <time>2025-09-17T09:09:01Z</time>
      </trkpt>
      <trkpt lat="43.47616" lon="2.22191">
        <ele>481</ele>
        <time>2025-09-17T09:09:03Z</time>
      </trkpt>
      <trkpt lat="43.47608" lon="2.22202">
        <ele>480</ele>
        <time>2025-09-17T09:09:05Z</time>
      </trkpt>
      <trkpt lat="43.47594" lon="2.22214">
        <ele>481</ele>
        <time>2025-09-17T09:09:08Z</time>
      </trkpt>
      <trkpt lat="43.47576" lon="2.22223">
        <ele>482</ele>
        <time>2025-09-17T09:09:11Z</time>
      </trkpt>
      <trkpt lat="43.47566" lon="2.22224">
        <ele>481</ele>
        <time>2025-09-17T09:09:13Z</time>
      </trkpt>
      <trkpt lat="43.47557" lon="2.22221">
        <ele>482</ele>
        <time>2025-09-17T09:09:15Z</time>
      </trkpt>
      <trkpt lat="43.4755" lon="2.22215">
        <ele>484</ele>
        <time>2025-09-17T09:09:16Z</time>
      </trkpt>
      <trkpt lat="43.47516" lon="2.22154">
        <ele>501</ele>
        <time>2025-09-17T09:09:26Z</time>
      </trkpt>
      <trkpt lat="43.47506" lon="2.22142">
        <ele>504</ele>
        <time>2025-09-17T09:09:28Z</time>
      </trkpt>
      <trkpt lat="43.47477" lon="2.22134">
        <ele>510</ele>
        <time>2025-09-17T09:09:34Z</time>
      </trkpt>
      <trkpt lat="43.47457" lon="2.22138">
        <ele>511</ele>
        <time>2025-09-17T09:09:37Z</time>
      </trkpt>
      <trkpt lat="43.47449" lon="2.22144">
        <ele>510</ele>
        <time>2025-09-17T09:09:39Z</time>
      </trkpt>
      <trkpt lat="43.47439" lon="2.22161">
        <ele>507</ele>
        <time>2025-09-17T09:09:42Z</time>
      </trkpt>
      <trkpt lat="43.47437" lon="2.22176">
        <ele>503</ele>
        <time>2025-09-17T09:09:44Z</time>
      </trkpt>
      <trkpt lat="43.47438" lon="2.22194">
        <ele>500</ele>
        <time>2025-09-17T09:09:46Z</time>
      </trkpt>
      <trkpt lat="43.47442" lon="2.22217">
        <ele>495</ele>
        <time>2025-09-17T09:09:49Z</time>
      </trkpt>
      <trkpt lat="43.47439" lon="2.22232">
        <ele>493</ele>
        <time>2025-09-17T09:09:51Z</time>
      </trkpt>
      <trkpt lat="43.47435" lon="2.22237">
        <ele>493</ele>
        <time>2025-09-17T09:09:52Z</time>
      </trkpt>
      <trkpt lat="43.4743" lon="2.2224">
        <ele>493</ele>
        <time>2025-09-17T09:09:53Z</time>
      </trkpt>
      <trkpt lat="43.47424" lon="2.2225">
        <ele>493</ele>
        <time>2025-09-17T09:09:55Z</time>
      </trkpt>
      <trkpt lat="43.47418" lon="2.22276">
        <ele>492</ele>
        <time>2025-09-17T09:09:58Z</time>
      </trkpt>
      <trkpt lat="43.47414" lon="2.22285">
        <ele>492</ele>
        <time>2025-09-17T09:10:00Z</time>
      </trkpt>
      <trkpt lat="43.47408" lon="2.22289">
        <ele>493</ele>
        <time>2025-09-17T09:10:01Z</time>
      </trkpt>
      <trkpt lat="43.47393" lon="2.22292">
        <ele>497</ele>
        <time>2025-09-17T09:10:03Z</time>
      </trkpt>
      <trkpt lat="43.47387" lon="2.22297">
        <ele>497</ele>
        <time>2025-09-17T09:10:05Z</time>
      </trkpt>
      <trkpt lat="43.47363" lon="2.22335">
        <ele>493</ele>
        <time>2025-09-17T09:10:11Z</time>
      </trkpt>
      <trkpt lat="43.47356" lon="2.22342">
        <ele>494</ele>
        <time>2025-09-17T09:10:13Z</time>
      </trkpt>
      <trkpt lat="43.47349" lon="2.22346">
        <ele>495</ele>
        <time>2025-09-17T09:10:14Z</time>
      </trkpt>
      <trkpt lat="43.47341" lon="2.22346">
        <ele>495</ele>
        <time>2025-09-17T09:10:15Z</time>
      </trkpt>
      <trkpt lat="43.47321" lon="2.22339">
        <ele>498</ele>
        <time>2025-09-17T09:10:19Z</time>
      </trkpt>
      <trkpt lat="43.47306" lon="2.22339">
        <ele>499</ele>
        <time>2025-09-17T09:10:22Z</time>
      </trkpt>
      <trkpt lat="43.47261" lon="2.22355">
        <ele>499</ele>
        <time>2025-09-17T09:10:30Z</time>
      </trkpt>
      <trkpt lat="43.47255" lon="2.22362">
        <ele>498</ele>
        <time>2025-09-17T09:10:31Z</time>
      </trkpt>
      <trkpt lat="43.47254" lon="2.22373">
        <ele>496</ele>
        <time>2025-09-17T09:10:33Z</time>
      </trkpt>
      <trkpt lat="43.4726" lon="2.224">
        <ele>490</ele>
        <time>2025-09-17T09:10:37Z</time>
      </trkpt>
      <trkpt lat="43.47262" lon="2.22458">
        <ele>491</ele>
        <time>2025-09-17T09:10:44Z</time>
      </trkpt>
      <trkpt lat="43.47265" lon="2.22467">
        <ele>492</ele>
        <time>2025-09-17T09:10:45Z</time>
      </trkpt>
      <trkpt lat="43.4727" lon="2.2247">
        <ele>493</ele>
        <time>2025-09-17T09:10:46Z</time>
      </trkpt>
      <trkpt lat="43.47279" lon="2.22465">
        <ele>494</ele>
        <time>2025-09-17T09:10:48Z</time>
      </trkpt>
      <trkpt lat="43.47319" lon="2.22429">
        <ele>489</ele>
        <time>2025-09-17T09:10:57Z</time>
      </trkpt>
      <trkpt lat="43.47328" lon="2.22427">
        <ele>489</ele>
        <time>2025-09-17T09:10:58Z</time>
      </trkpt>
      <trkpt lat="43.47332" lon="2.22435">
        <ele>491</ele>
        <time>2025-09-17T09:10:59Z</time>
      </trkpt>
      <trkpt lat="43.47329" lon="2.22442">
        <ele>493</ele>
        <time>2025-09-17T09:11:00Z</time>
      </trkpt>
      <trkpt lat="43.47268" lon="2.22497">
        <ele>496</ele>
        <time>2025-09-17T09:11:13Z</time>
      </trkpt>
      <trkpt lat="43.47241" lon="2.22528">
        <ele>503</ele>
        <time>2025-09-17T09:11:20Z</time>
      </trkpt>
      <trkpt lat="43.47145" lon="2.22598">
        <ele>516</ele>
        <time>2025-09-17T09:11:39Z</time>
      </trkpt>
      <trkpt lat="43.47122" lon="2.22608">
        <ele>519</ele>
        <time>2025-09-17T09:11:43Z</time>
      </trkpt>
      <trkpt lat="43.47066" lon="2.22616">
        <ele>524</ele>
        <time>2025-09-17T09:11:53Z</time>
      </trkpt>
      <trkpt lat="43.47063" lon="2.22624">
        <ele>526</ele>
        <time>2025-09-17T09:11:54Z</time>
      </trkpt>
      <trkpt lat="43.47067" lon="2.2263">
        <ele>527</ele>
        <time>2025-09-17T09:11:56Z</time>
      </trkpt>
      <trkpt lat="43.47137" lon="2.22628">
        <ele>526</ele>
        <time>2025-09-17T09:12:08Z</time>
      </trkpt>
      <trkpt lat="43.4719" lon="2.22615">
        <ele>524</ele>
        <time>2025-09-17T09:12:18Z</time>
      </trkpt>
      <trkpt lat="43.47242" lon="2.2261">
        <ele>528</ele>
        <time>2025-09-17T09:12:27Z</time>
      </trkpt>
      <trkpt lat="43.4735" lon="2.22556">
        <ele>531</ele>
        <time>2025-09-17T09:12:47Z</time>
      </trkpt>
      <trkpt lat="43.47356" lon="2.22561">
        <ele>534</ele>
        <time>2025-09-17T09:12:49Z</time>
      </trkpt>
      <trkpt lat="43.47354" lon="2.22571">
        <ele>537</ele>
        <time>2025-09-17T09:12:50Z</time>
      </trkpt>
      <trkpt lat="43.47233" lon="2.22662">
        <ele>546</ele>
        <time>2025-09-17T09:13:14Z</time>
      </trkpt>
      <trkpt lat="43.47207" lon="2.22677">
        <ele>549</ele>
        <time>2025-09-17T09:13:19Z</time>
      </trkpt>
      <trkpt lat="43.47097" lon="2.22714">
        <ele>553</ele>
        <time>2025-09-17T09:13:40Z</time>
      </trkpt>
      <trkpt lat="43.47079" lon="2.22723">
        <ele>554</ele>
        <time>2025-09-17T09:13:43Z</time>
      </trkpt>
      <trkpt lat="43.47051" lon="2.22761">
        <ele>565</ele>
        <time>2025-09-17T09:13:50Z</time>
      </trkpt>
      <trkpt lat="43.47025" lon="2.2279">
        <ele>572</ele>
        <time>2025-09-17T09:13:56Z</time>
      </trkpt>
      <trkpt lat="43.47021" lon="2.22802">
        <ele>575</ele>
        <time>2025-09-17T09:13:58Z</time>
      </trkpt>
      <trkpt lat="43.47017" lon="2.22826">
        <ele>583</ele>
        <time>2025-09-17T09:14:01Z</time>
      </trkpt>
      <trkpt lat="43.47012" lon="2.22832">
        <ele>584</ele>
        <time>2025-09-17T09:14:02Z</time>
      </trkpt>
      <trkpt lat="43.47019" lon="2.22836">
        <ele>586</ele>
        <time>2025-09-17T09:14:03Z</time>
      </trkpt>
      <trkpt lat="43.47024" lon="2.22828">
        <ele>584</ele>
        <time>2025-09-17T09:14:05Z</time>
      </trkpt>
      <trkpt lat="43.47027" lon="2.2281">
        <ele>579</ele>
        <time>2025-09-17T09:14:07Z</time>
      </trkpt>
      <trkpt lat="43.47058" lon="2.22774">
        <ele>570</ele>
        <time>2025-09-17T09:14:14Z</time>
      </trkpt>
      <trkpt lat="43.47077" lon="2.22758">
        <ele>567</ele>
        <time>2025-09-17T09:14:18Z</time>
      </trkpt>
      <trkpt lat="43.47095" lon="2.22751">
        <ele>567</ele>
        <time>2025-09-17T09:14:22Z</time>
      </trkpt>
      <trkpt lat="43.4712" lon="2.22746">
        <ele>570</ele>
        <time>2025-09-17T09:14:26Z</time>
      </trkpt>
      <trkpt lat="43.47229" lon="2.22741">
        <ele>578</ele>
        <time>2025-09-17T09:14:45Z</time>
      </trkpt>
      <trkpt lat="43.47258" lon="2.22747">
        <ele>582</ele>
        <time>2025-09-17T09:14:51Z</time>
      </trkpt>
      <trkpt lat="43.47323" lon="2.22738">
        <ele>584</ele>
        <time>2025-09-17T09:15:02Z</time>
      </trkpt>
      <trkpt lat="43.47346" lon="2.22738">
        <ele>587</ele>
        <time>2025-09-17T09:15:06Z</time>
      </trkpt>
      <trkpt lat="43.47381" lon="2.22734">
        <ele>591</ele>
        <time>2025-09-17T09:15:13Z</time>
      </trkpt>
      <trkpt lat="43.47431" lon="2.22712">
        <ele>593</ele>
        <time>2025-09-17T09:15:22Z</time>
      </trkpt>
      <trkpt lat="43.47473" lon="2.22672">
        <ele>589</ele>
        <time>2025-09-17T09:15:31Z</time>
      </trkpt>
      <trkpt lat="43.47485" lon="2.2265">
        <ele>585</ele>
        <time>2025-09-17T09:15:35Z</time>
      </trkpt>
      <trkpt lat="43.4749" lon="2.22646">
        <ele>585</ele>
        <time>2025-09-17T09:15:36Z</time>
      </trkpt>
      <trkpt lat="43.47495" lon="2.22648">
        <ele>586</ele>
        <time>2025-09-17T09:15:37Z</time>
      </trkpt>
      <trkpt lat="43.47513" lon="2.22667">
        <ele>592</ele>
        <time>2025-09-17T09:15:41Z</time>
      </trkpt>
      <trkpt lat="43.47538" lon="2.22686">
        <ele>597</ele>
        <time>2025-09-17T09:15:46Z</time>
      </trkpt>
      <trkpt lat="43.47578" lon="2.2271">
        <ele>605</ele>
        <time>2025-09-17T09:15:53Z</time>
      </trkpt>
      <trkpt lat="43.47594" lon="2.22716">
        <ele>607</ele>
        <time>2025-09-17T09:15:56Z</time>
      </trkpt>
      <trkpt lat="43.47677" lon="2.22704">
        <ele>597</ele>
        <time>2025-09-17T09:16:11Z</time>
      </trkpt>
      <trkpt lat="43.47721" lon="2.22711">
        <ele>601</ele>
        <time>2025-09-17T09:16:19Z</time>
      </trkpt>
      <trkpt lat="43.4775" lon="2.22705">
        <ele>601</ele>
        <time>2025-09-17T09:16:24Z</time>
      </trkpt>
      <trkpt lat="43.478" lon="2.22689">
        <ele>601</ele>
        <time>2025-09-17T09:16:33Z</time>
      </trkpt>
      <trkpt lat="43.47818" lon="2.22686">
        <ele>602</ele>
        <time>2025-09-17T09:16:37Z</time>
      </trkpt>
      <trkpt lat="43.47857" lon="2.22693">
        <ele>605</ele>
        <time>2025-09-17T09:16:44Z</time>
      </trkpt>
      <trkpt lat="43.47882" lon="2.22689">
        <ele>605</ele>
        <time>2025-09-17T09:16:48Z</time>
      </trkpt>
      <trkpt lat="43.47925" lon="2.22672">
        <ele>602</ele>
        <time>2025-09-17T09:16:56Z</time>
      </trkpt>
      <trkpt lat="43.47946" lon="2.2266">
        <ele>600</ele>
        <time>2025-09-17T09:17:00Z</time>
      </trkpt>
      <trkpt lat="43.48016" lon="2.22645">
        <ele>598</ele>
        <time>2025-09-17T09:17:13Z</time>
      </trkpt>
      <trkpt lat="43.48065" lon="2.2264">
        <ele>596</ele>
        <time>2025-09-17T09:17:22Z</time>
      </trkpt>
      <trkpt lat="43.48084" lon="2.22635">
        <ele>595</ele>
        <time>2025-09-17T09:17:25Z</time>
      </trkpt>
      <trkpt lat="43.48106" lon="2.22619">
        <ele>593</ele>
        <time>2025-09-17T09:17:29Z</time>
      </trkpt>
      <trkpt lat="43.48122" lon="2.226">
        <ele>591</ele>
        <time>2025-09-17T09:17:33Z</time>
      </trkpt>
      <trkpt lat="43.4816" lon="2.22562">
        <ele>588</ele>
        <time>2025-09-17T09:17:42Z</time>
      </trkpt>
      <trkpt lat="43.48201" lon="2.22511">
        <ele>586</ele>
        <time>2025-09-17T09:17:51Z</time>
      </trkpt>
      <trkpt lat="43.48229" lon="2.22471">
        <ele>584</ele>
        <time>2025-09-17T09:17:59Z</time>
      </trkpt>
      <trkpt lat="43.48247" lon="2.22455">
        <ele>584</ele>
        <time>2025-09-17T09:18:02Z</time>
      </trkpt>
      <trkpt lat="43.48224" lon="2.22493">
        <ele>589</ele>
        <time>2025-09-17T09:18:09Z</time>
      </trkpt>
      <trkpt lat="43.48195" lon="2.22555">
        <ele>595</ele>
        <time>2025-09-17T09:18:18Z</time>
      </trkpt>
      <trkpt lat="43.4814" lon="2.22646">
        <ele>604</ele>
        <time>2025-09-17T09:18:34Z</time>
      </trkpt>
      <trkpt lat="43.48118" lon="2.22679">
        <ele>606</ele>
        <time>2025-09-17T09:18:39Z</time>
      </trkpt>
      <trkpt lat="43.48092" lon="2.22695">
        <ele>605</ele>
        <time>2025-09-17T09:18:44Z</time>
      </trkpt>
      <trkpt lat="43.48032" lon="2.22713">
        <ele>612</ele>
        <time>2025-09-17T09:18:55Z</time>
      </trkpt>
      <trkpt lat="43.47991" lon="2.22734">
        <ele>619</ele>
        <time>2025-09-17T09:19:03Z</time>
      </trkpt>
      <trkpt lat="43.47943" lon="2.22777">
        <ele>626</ele>
        <time>2025-09-17T09:19:13Z</time>
      </trkpt>
      <trkpt lat="43.47911" lon="2.22823">
        <ele>636</ele>
        <time>2025-09-17T09:19:22Z</time>
      </trkpt>
      <trkpt lat="43.47896" lon="2.2286">
        <ele>640</ele>
        <time>2025-09-17T09:19:27Z</time>
      </trkpt>
      <trkpt lat="43.47878" lon="2.22932">
        <ele>645</ele>
        <time>2025-09-17T09:19:37Z</time>
      </trkpt>
      <trkpt lat="43.47879" lon="2.22939">
        <ele>645</ele>
        <time>2025-09-17T09:19:38Z</time>
      </trkpt>
      <trkpt lat="43.47881" lon="2.22941">
        <ele>645</ele>
        <time>2025-09-17T09:19:38Z</time>
      </trkpt>
      <trkpt lat="43.47885" lon="2.2294">
        <ele>645</ele>
        <time>2025-09-17T09:19:39Z</time>
      </trkpt>
      <trkpt lat="43.47887" lon="2.22934">
        <ele>645</ele>
        <time>2025-09-17T09:19:40Z</time>
      </trkpt>
      <trkpt lat="43.479" lon="2.22874">
        <ele>641</ele>
        <time>2025-09-17T09:19:48Z</time>
      </trkpt>
      <trkpt lat="43.47914" lon="2.22846">
        <ele>639</ele>
        <time>2025-09-17T09:19:52Z</time>
      </trkpt>
      <trkpt lat="43.4793" lon="2.22829">
        <ele>635</ele>
        <time>2025-09-17T09:19:56Z</time>
      </trkpt>
      <trkpt lat="43.47936" lon="2.22825">
        <ele>634</ele>
        <time>2025-09-17T09:19:57Z</time>
      </trkpt>
      <trkpt lat="43.47942" lon="2.22824">
        <ele>633</ele>
        <time>2025-09-17T09:19:58Z</time>
      </trkpt>
      <trkpt lat="43.47948" lon="2.22826">
        <ele>632</ele>
        <time>2025-09-17T09:19:59Z</time>
      </trkpt>
      <trkpt lat="43.47952" lon="2.2283">
        <ele>632</ele>
        <time>2025-09-17T09:20:00Z</time>
      </trkpt>
      <trkpt lat="43.47954" lon="2.22838">
        <ele>632</ele>
        <time>2025-09-17T09:20:01Z</time>
      </trkpt>
      <trkpt lat="43.47953" lon="2.2286">
        <ele>632</ele>
        <time>2025-09-17T09:20:04Z</time>
      </trkpt>
      <trkpt lat="43.47921" lon="2.23033">
        <ele>630</ele>
        <time>2025-09-17T09:20:27Z</time>
      </trkpt>
      <trkpt lat="43.47889" lon="2.23113">
        <ele>624</ele>
        <time>2025-09-17T09:20:39Z</time>
      </trkpt>
      <trkpt lat="43.47853" lon="2.23188">
        <ele>620</ele>
        <time>2025-09-17T09:20:50Z</time>
      </trkpt>
      <trkpt lat="43.4784" lon="2.23221">
        <ele>616</ele>
        <time>2025-09-17T09:20:55Z</time>
      </trkpt>
      <trkpt lat="43.47797" lon="2.23353">
        <ele>610</ele>
        <time>2025-09-17T09:21:14Z</time>
      </trkpt>
      <trkpt lat="43.4778" lon="2.23388">
        <ele>609</ele>
        <time>2025-09-17T09:21:19Z</time>
      </trkpt>
      <trkpt lat="43.47755" lon="2.23427">
        <ele>607</ele>
        <time>2025-09-17T09:21:26Z</time>
      </trkpt>
      <trkpt lat="43.47742" lon="2.23456">
        <ele>608</ele>
        <time>2025-09-17T09:21:31Z</time>
      </trkpt>
      <trkpt lat="43.47732" lon="2.23472">
        <ele>609</ele>
        <time>2025-09-17T09:21:33Z</time>
      </trkpt>
      <trkpt lat="43.47683" lon="2.23518">
        <ele>611</ele>
        <time>2025-09-17T09:21:44Z</time>
      </trkpt>
      <trkpt lat="43.47632" lon="2.23544">
        <ele>615</ele>
        <time>2025-09-17T09:21:53Z</time>
      </trkpt>
      <trkpt lat="43.47627" lon="2.23552">
        <ele>615</ele>
        <time>2025-09-17T09:21:55Z</time>
      </trkpt>
      <trkpt lat="43.47626" lon="2.2356">
        <ele>615</ele>
        <time>2025-09-17T09:21:56Z</time>
      </trkpt>
      <trkpt lat="43.47631" lon="2.23571">
        <ele>615</ele>
        <time>2025-09-17T09:21:58Z</time>
      </trkpt>
      <trkpt lat="43.47643" lon="2.23583">
        <ele>616</ele>
        <time>2025-09-17T09:22:00Z</time>
      </trkpt>
      <trkpt lat="43.4766" lon="2.23586">
        <ele>617</ele>
        <time>2025-09-17T09:22:03Z</time>
      </trkpt>
      <trkpt lat="43.47698" lon="2.23575">
        <ele>619</ele>
        <time>2025-09-17T09:22:10Z</time>
      </trkpt>
      <trkpt lat="43.47734" lon="2.23547">
        <ele>617</ele>
        <time>2025-09-17T09:22:18Z</time>
      </trkpt>
      <trkpt lat="43.47865" lon="2.23484">
        <ele>624</ele>
        <time>2025-09-17T09:22:42Z</time>
      </trkpt>
      <trkpt lat="43.47892" lon="2.23439">
        <ele>623</ele>
        <time>2025-09-17T09:22:50Z</time>
      </trkpt>
      <trkpt lat="43.47939" lon="2.23398">
        <ele>627</ele>
        <time>2025-09-17T09:23:00Z</time>
      </trkpt>
      <trkpt lat="43.48058" lon="2.23355">
        <ele>638</ele>
        <time>2025-09-17T09:23:22Z</time>
      </trkpt>
      <trkpt lat="43.48087" lon="2.23364">
        <ele>641</ele>
        <time>2025-09-17T09:23:27Z</time>
      </trkpt>
      <trkpt lat="43.48143" lon="2.23425">
        <ele>645</ele>
        <time>2025-09-17T09:23:40Z</time>
      </trkpt>
      <trkpt lat="43.48211" lon="2.23478">
        <ele>643</ele>
        <time>2025-09-17T09:23:53Z</time>
      </trkpt>
      <trkpt lat="43.48265" lon="2.23523">
        <ele>642</ele>
        <time>2025-09-17T09:24:05Z</time>
      </trkpt>
      <trkpt lat="43.48287" lon="2.23548">
        <ele>642</ele>
        <time>2025-09-17T09:24:10Z</time>
      </trkpt>
      <trkpt lat="43.483" lon="2.23568">
        <ele>643</ele>
        <time>2025-09-17T09:24:13Z</time>
      </trkpt>
      <trkpt lat="43.48305" lon="2.23581">
        <ele>644</ele>
        <time>2025-09-17T09:24:15Z</time>
      </trkpt>
      <trkpt lat="43.48309" lon="2.23613">
        <ele>641</ele>
        <time>2025-09-17T09:24:19Z</time>
      </trkpt>
      <trkpt lat="43.4831" lon="2.23648">
        <ele>638</ele>
        <time>2025-09-17T09:24:24Z</time>
      </trkpt>
      <trkpt lat="43.48299" lon="2.23667">
        <ele>640</ele>
        <time>2025-09-17T09:24:27Z</time>
      </trkpt>
      <trkpt lat="43.48277" lon="2.2368">
        <ele>644</ele>
        <time>2025-09-17T09:24:31Z</time>
      </trkpt>
      <trkpt lat="43.48256" lon="2.237">
        <ele>646</ele>
        <time>2025-09-17T09:24:36Z</time>
      </trkpt>
      <trkpt lat="43.48206" lon="2.23789">
        <ele>642</ele>
        <time>2025-09-17T09:24:50Z</time>
      </trkpt>
      <trkpt lat="43.48154" lon="2.23829">
        <ele>646</ele>
        <time>2025-09-17T09:25:01Z</time>
      </trkpt>
      <trkpt lat="43.48099" lon="2.23896">
        <ele>646</ele>
        <time>2025-09-17T09:25:14Z</time>
      </trkpt>
      <trkpt lat="43.48066" lon="2.2391">
        <ele>650</ele>
        <time>2025-09-17T09:25:20Z</time>
      </trkpt>
      <trkpt lat="43.48023" lon="2.2394">
        <ele>661</ele>
        <time>2025-09-17T09:25:29Z</time>
      </trkpt>
      <trkpt lat="43.48022" lon="2.23948">
        <ele>661</ele>
        <time>2025-09-17T09:25:30Z</time>
      </trkpt>
      <trkpt lat="43.48025" lon="2.23954">
        <ele>660</ele>
        <time>2025-09-17T09:25:31Z</time>
      </trkpt>
      <trkpt lat="43.48064" lon="2.23961">
        <ele>654</ele>
        <time>2025-09-17T09:25:38Z</time>
      </trkpt>
      <trkpt lat="43.48109" lon="2.23989">
        <ele>652</ele>
        <time>2025-09-17T09:25:46Z</time>
      </trkpt>
      <trkpt lat="43.48166" lon="2.24009">
        <ele>650</ele>
        <time>2025-09-17T09:25:57Z</time>
      </trkpt>
      <trkpt lat="43.48181" lon="2.24019">
        <ele>650</ele>
        <time>2025-09-17T09:26:00Z</time>
      </trkpt>
      <trkpt lat="43.48192" lon="2.2403">
        <ele>652</ele>
        <time>2025-09-17T09:26:02Z</time>
      </trkpt>
      <trkpt lat="43.482" lon="2.2405">
        <ele>655</ele>
        <time>2025-09-17T09:26:05Z</time>
      </trkpt>
      <trkpt lat="43.48206" lon="2.24084">
        <ele>663</ele>
        <time>2025-09-17T09:26:10Z</time>
      </trkpt>
      <trkpt lat="43.4821" lon="2.24088">
        <ele>663</ele>
        <time>2025-09-17T09:26:11Z</time>
      </trkpt>
      <trkpt lat="43.48245" lon="2.24075">
        <ele>656</ele>
        <time>2025-09-17T09:26:17Z</time>
      </trkpt>
      <trkpt lat="43.48283" lon="2.24073">
        <ele>653</ele>
        <time>2025-09-17T09:26:24Z</time>
      </trkpt>
      <trkpt lat="43.48306" lon="2.24075">
        <ele>652</ele>
        <time>2025-09-17T09:26:28Z</time>
      </trkpt>
      <trkpt lat="43.4832" lon="2.2408">
        <ele>652</ele>
        <time>2025-09-17T09:26:31Z</time>
      </trkpt>
      <trkpt lat="43.48332" lon="2.24088">
        <ele>653</ele>
        <time>2025-09-17T09:26:33Z</time>
      </trkpt>
      <trkpt lat="43.48346" lon="2.24108">
        <ele>653</ele>
        <time>2025-09-17T09:26:36Z</time>
      </trkpt>
      <trkpt lat="43.48353" lon="2.24143">
        <ele>655</ele>
        <time>2025-09-17T09:26:41Z</time>
      </trkpt>
      <trkpt lat="43.48354" lon="2.24166">
        <ele>658</ele>
        <time>2025-09-17T09:26:44Z</time>
      </trkpt>
      <trkpt lat="43.48351" lon="2.2421">
        <ele>663</ele>
        <time>2025-09-17T09:26:50Z</time>
      </trkpt>
      <trkpt lat="43.48346" lon="2.2423">
        <ele>667</ele>
        <time>2025-09-17T09:26:53Z</time>
      </trkpt>
      <trkpt lat="43.4833" lon="2.24265">
        <ele>676</ele>
        <time>2025-09-17T09:26:58Z</time>
      </trkpt>
      <trkpt lat="43.48328" lon="2.24273">
        <ele>677</ele>
        <time>2025-09-17T09:26:59Z</time>
      </trkpt>
      <trkpt lat="43.48331" lon="2.24283">
        <ele>678</ele>
        <time>2025-09-17T09:27:00Z</time>
      </trkpt>
      <trkpt lat="43.48341" lon="2.24297">
        <ele>675</ele>
        <time>2025-09-17T09:27:03Z</time>
      </trkpt>
      <trkpt lat="43.48346" lon="2.24311">
        <ele>674</ele>
        <time>2025-09-17T09:27:05Z</time>
      </trkpt>
      <trkpt lat="43.48358" lon="2.24434">
        <ele>680</ele>
        <time>2025-09-17T09:27:21Z</time>
      </trkpt>
      <trkpt lat="43.48357" lon="2.24504">
        <ele>684</ele>
        <time>2025-09-17T09:27:30Z</time>
      </trkpt>
      <trkpt lat="43.48346" lon="2.24605">
        <ele>689</ele>
        <time>2025-09-17T09:27:43Z</time>
      </trkpt>
      <trkpt lat="43.48342" lon="2.24621">
        <ele>690</ele>
        <time>2025-09-17T09:27:45Z</time>
      </trkpt>
      <trkpt lat="43.48329" lon="2.24655">
        <ele>694</ele>
        <time>2025-09-17T09:27:50Z</time>
      </trkpt>
      <trkpt lat="43.48325" lon="2.24675">
        <ele>695</ele>
        <time>2025-09-17T09:27:53Z</time>
      </trkpt>
      <trkpt lat="43.48325" lon="2.24697">
        <ele>694</ele>
        <time>2025-09-17T09:27:56Z</time>
      </trkpt>
      <trkpt lat="43.48337" lon="2.24757">
        <ele>689</ele>
        <time>2025-09-17T09:28:04Z</time>
      </trkpt>
      <trkpt lat="43.48349" lon="2.24771">
        <ele>689</ele>
        <time>2025-09-17T09:28:07Z</time>
      </trkpt>
      <trkpt lat="43.48363" lon="2.24772">
        <ele>687</ele>
        <time>2025-09-17T09:28:09Z</time>
      </trkpt>
      <trkpt lat="43.48408" lon="2.24766">
        <ele>679</ele>
        <time>2025-09-17T09:28:17Z</time>
      </trkpt>
      <trkpt lat="43.48426" lon="2.24761">
        <ele>676</ele>
        <time>2025-09-17T09:28:21Z</time>
      </trkpt>
      <trkpt lat="43.48449" lon="2.24767">
        <ele>677</ele>
        <time>2025-09-17T09:28:25Z</time>
      </trkpt>
      <trkpt lat="43.48544" lon="2.24836">
        <ele>680</ele>
        <time>2025-09-17T09:28:44Z</time>
      </trkpt>
      <trkpt lat="43.48641" lon="2.24871">
        <ele>680</ele>
        <time>2025-09-17T09:29:02Z</time>
      </trkpt>
      <trkpt lat="43.48682" lon="2.24893">
        <ele>681</ele>
        <time>2025-09-17T09:29:09Z</time>
      </trkpt>
      <trkpt lat="43.48712" lon="2.24894">
        <ele>682</ele>
        <time>2025-09-17T09:29:15Z</time>
      </trkpt>
      <trkpt lat="43.4872" lon="2.249">
        <ele>683</ele>
        <time>2025-09-17T09:29:16Z</time>
      </trkpt>
      <trkpt lat="43.48721" lon="2.24911">
        <ele>684</ele>
        <time>2025-09-17T09:29:18Z</time>
      </trkpt>
      <trkpt lat="43.48725" lon="2.24916">
        <ele>684</ele>
        <time>2025-09-17T09:29:19Z</time>
      </trkpt>
      <trkpt lat="43.48725" lon="2.24916">
        <ele>684</ele>
        <time>2025-09-17T09:29:19Z</time>
      </trkpt>
      <trkpt lat="43.48804" lon="2.2492">
        <ele>686</ele>
        <time>2025-09-17T09:29:33Z</time>
      </trkpt>
      <trkpt lat="43.48816" lon="2.24925">
        <ele>687</ele>
        <time>2025-09-17T09:29:35Z</time>
      </trkpt>
      <trkpt lat="43.48825" lon="2.24939">
        <ele>688</ele>
        <time>2025-09-17T09:29:38Z</time>
      </trkpt>
      <trkpt lat="43.48831" lon="2.24954">
        <ele>688</ele>
        <time>2025-09-17T09:29:40Z</time>
      </trkpt>
      <trkpt lat="43.48833" lon="2.24973">
        <ele>689</ele>
        <time>2025-09-17T09:29:42Z</time>
      </trkpt>
      <trkpt lat="43.48832" lon="2.25002">
        <ele>690</ele>
        <time>2025-09-17T09:29:46Z</time>
      </trkpt>
      <trkpt lat="43.48827" lon="2.25032">
        <ele>689</ele>
        <time>2025-09-17T09:29:50Z</time>
      </trkpt>
      <trkpt lat="43.48812" lon="2.25069">
        <ele>688</ele>
        <time>2025-09-17T09:29:55Z</time>
      </trkpt>
      <trkpt lat="43.488" lon="2.25085">
        <ele>689</ele>
        <time>2025-09-17T09:29:58Z</time>
      </trkpt>
      <trkpt lat="43.48775" lon="2.25102">
        <ele>691</ele>
        <time>2025-09-17T09:30:03Z</time>
      </trkpt>
      <trkpt lat="43.48753" lon="2.25109">
        <ele>692</ele>
        <time>2025-09-17T09:30:07Z</time>
      </trkpt>
      <trkpt lat="43.48738" lon="2.25109">
        <ele>693</ele>
        <time>2025-09-17T09:30:10Z</time>
      </trkpt>
      <trkpt lat="43.48695" lon="2.25102">
        <ele>693</ele>
        <time>2025-09-17T09:30:18Z</time>
      </trkpt>
      <trkpt lat="43.48684" lon="2.25105">
        <ele>693</ele>
        <time>2025-09-17T09:30:20Z</time>
      </trkpt>
      <trkpt lat="43.48642" lon="2.25154">
        <ele>692</ele>
        <time>2025-09-17T09:30:29Z</time>
      </trkpt>
      <trkpt lat="43.48607" lon="2.25189">
        <ele>688</ele>
        <time>2025-09-17T09:30:37Z</time>
      </trkpt>
      <trkpt lat="43.48581" lon="2.25202">
        <ele>687</ele>
        <time>2025-09-17T09:30:42Z</time>
      </trkpt>
      <trkpt lat="43.48564" lon="2.25204">
        <ele>686</ele>
        <time>2025-09-17T09:30:45Z</time>
      </trkpt>
      <trkpt lat="43.48519" lon="2.25193">
        <ele>688</ele>
        <time>2025-09-17T09:30:53Z</time>
      </trkpt>
      <trkpt lat="43.48502" lon="2.252">
        <ele>688</ele>
        <time>2025-09-17T09:30:56Z</time>
      </trkpt>
      <trkpt lat="43.48495" lon="2.25211">
        <ele>687</ele>
        <time>2025-09-17T09:30:58Z</time>
      </trkpt>
      <trkpt lat="43.48491" lon="2.25275">
        <ele>688</ele>
        <time>2025-09-17T09:31:07Z</time>
      </trkpt>
      <trkpt lat="43.48482" lon="2.25263">
        <ele>688</ele>
        <time>2025-09-17T09:31:09Z</time>
      </trkpt>
      <trkpt lat="43.48413" lon="2.25198">
        <ele>695</ele>
        <time>2025-09-17T09:31:24Z</time>
      </trkpt>
      <trkpt lat="43.48404" lon="2.25193">
        <ele>696</ele>
        <time>2025-09-17T09:31:25Z</time>
      </trkpt>
      <trkpt lat="43.48321" lon="2.25188">
        <ele>704</ele>
        <time>2025-09-17T09:31:40Z</time>
      </trkpt>
      <trkpt lat="43.4829" lon="2.25199">
        <ele>711</ele>
        <time>2025-09-17T09:31:46Z</time>
      </trkpt>
      <trkpt lat="43.48262" lon="2.2522">
        <ele>717</ele>
        <time>2025-09-17T09:31:52Z</time>
      </trkpt>
      <trkpt lat="43.48226" lon="2.25258">
        <ele>726</ele>
        <time>2025-09-17T09:32:00Z</time>
      </trkpt>
      <trkpt lat="43.48167" lon="2.2531">
        <ele>739</ele>
        <time>2025-09-17T09:32:12Z</time>
      </trkpt>
      <trkpt lat="43.48121" lon="2.25337">
        <ele>746</ele>
        <time>2025-09-17T09:32:21Z</time>
      </trkpt>
      <trkpt lat="43.48066" lon="2.25351">
        <ele>753</ele>
        <time>2025-09-17T09:32:31Z</time>
      </trkpt>
      <trkpt lat="43.48042" lon="2.25361">
        <ele>754</ele>
        <time>2025-09-17T09:32:35Z</time>
      </trkpt>
      <trkpt lat="43.48038" lon="2.25355">
        <ele>755</ele>
        <time>2025-09-17T09:32:36Z</time>
      </trkpt>
      <trkpt lat="43.48024" lon="2.2535">
        <ele>758</ele>
        <time>2025-09-17T09:32:39Z</time>
      </trkpt>
      <trkpt lat="43.47992" lon="2.25348">
        <ele>762</ele>
        <time>2025-09-17T09:32:45Z</time>
      </trkpt>
      <trkpt lat="43.47981" lon="2.2535">
        <ele>763</ele>
        <time>2025-09-17T09:32:47Z</time>
      </trkpt>
      <trkpt lat="43.47933" lon="2.25368">
        <ele>767</ele>
        <time>2025-09-17T09:32:56Z</time>
      </trkpt>
      <trkpt lat="43.47881" lon="2.2538">
        <ele>773</ele>
        <time>2025-09-17T09:33:05Z</time>
      </trkpt>
      <trkpt lat="43.47874" lon="2.25386">
        <ele>773</ele>
        <time>2025-09-17T09:33:06Z</time>
      </trkpt>
      <trkpt lat="43.47833" lon="2.25438">
        <ele>772</ele>
        <time>2025-09-17T09:33:16Z</time>
      </trkpt>
      <trkpt lat="43.47795" lon="2.25505">
        <ele>774</ele>
        <time>2025-09-17T09:33:27Z</time>
      </trkpt>
      <trkpt lat="43.47771" lon="2.25543">
        <ele>777</ele>
        <time>2025-09-17T09:33:34Z</time>
      </trkpt>
      <trkpt lat="43.47766" lon="2.25555">
        <ele>778</ele>
        <time>2025-09-17T09:33:36Z</time>
      </trkpt>
      <trkpt lat="43.47764" lon="2.25573">
        <ele>777</ele>
        <time>2025-09-17T09:33:38Z</time>
      </trkpt>
      <trkpt lat="43.47767" lon="2.25586">
        <ele>776</ele>
        <time>2025-09-17T09:33:40Z</time>
      </trkpt>
      <trkpt lat="43.47777" lon="2.25602">
        <ele>776</ele>
        <time>2025-09-17T09:33:42Z</time>
      </trkpt>
      <trkpt lat="43.47783" lon="2.25605">
        <ele>775</ele>
        <time>2025-09-17T09:33:44Z</time>
      </trkpt>
      <trkpt lat="43.47832" lon="2.25614">
        <ele>767</ele>
        <time>2025-09-17T09:33:52Z</time>
      </trkpt>
      <trkpt lat="43.47839" lon="2.25619">
        <ele>766</ele>
        <time>2025-09-17T09:33:54Z</time>
      </trkpt>
      <trkpt lat="43.47848" lon="2.25629">
        <ele>766</ele>
        <time>2025-09-17T09:33:56Z</time>
      </trkpt>
      <trkpt lat="43.47869" lon="2.25666">
        <ele>767</ele>
        <time>2025-09-17T09:34:02Z</time>
      </trkpt>
      <trkpt lat="43.47877" lon="2.25692">
        <ele>769</ele>
        <time>2025-09-17T09:34:06Z</time>
      </trkpt>
      <trkpt lat="43.47886" lon="2.25766">
        <ele>774</ele>
        <time>2025-09-17T09:34:15Z</time>
      </trkpt>
      <trkpt lat="43.47886" lon="2.25778">
        <ele>775</ele>
        <time>2025-09-17T09:34:17Z</time>
      </trkpt>
      <trkpt lat="43.47881" lon="2.25816">
        <ele>778</ele>
        <time>2025-09-17T09:34:22Z</time>
      </trkpt>
      <trkpt lat="43.47875" lon="2.25836">
        <ele>780</ele>
        <time>2025-09-17T09:34:25Z</time>
      </trkpt>
      <trkpt lat="43.47848" lon="2.25886">
        <ele>784</ele>
        <time>2025-09-17T09:34:33Z</time>
      </trkpt>
      <trkpt lat="43.47833" lon="2.25928">
        <ele>783</ele>
        <time>2025-09-17T09:34:39Z</time>
      </trkpt>
      <trkpt lat="43.47826" lon="2.25938">
        <ele>783</ele>
        <time>2025-09-17T09:34:40Z</time>
      </trkpt>
      <trkpt lat="43.47817" lon="2.25945">
        <ele>783</ele>
        <time>2025-09-17T09:34:42Z</time>
      </trkpt>
      <trkpt lat="43.47795" lon="2.25949">
        <ele>785</ele>
        <time>2025-09-17T09:34:46Z</time>
      </trkpt>
      <trkpt lat="43.47758" lon="2.25938">
        <ele>792</ele>
        <time>2025-09-17T09:34:53Z</time>
      </trkpt>
      <trkpt lat="43.47747" lon="2.25938">
        <ele>794</ele>
        <time>2025-09-17T09:34:55Z</time>
      </trkpt>
      <trkpt lat="43.47738" lon="2.2594">
        <ele>795</ele>
        <time>2025-09-17T09:34:57Z</time>
      </trkpt>
      <trkpt lat="43.47711" lon="2.25955">
        <ele>800</ele>
        <time>2025-09-17T09:35:02Z</time>
      </trkpt>
      <trkpt lat="43.47702" lon="2.25963">
        <ele>801</ele>
        <time>2025-09-17T09:35:04Z</time>
      </trkpt>
      <trkpt lat="43.47694" lon="2.25973">
        <ele>801</ele>
        <time>2025-09-17T09:35:06Z</time>
      </trkpt>
      <trkpt lat="43.47685" lon="2.25992">
        <ele>801</ele>
        <time>2025-09-17T09:35:08Z</time>
      </trkpt>
      <trkpt lat="43.47667" lon="2.26039">
        <ele>803</ele>
        <time>2025-09-17T09:35:15Z</time>
      </trkpt>
      <trkpt lat="43.47664" lon="2.26051">
        <ele>804</ele>
        <time>2025-09-17T09:35:17Z</time>
      </trkpt>
      <trkpt lat="43.47662" lon="2.26067">
        <ele>804</ele>
        <time>2025-09-17T09:35:19Z</time>
      </trkpt>
      <trkpt lat="43.47659" lon="2.26133">
        <ele>806</ele>
        <time>2025-09-17T09:35:28Z</time>
      </trkpt>
      <trkpt lat="43.47657" lon="2.26208">
        <ele>805</ele>
        <time>2025-09-17T09:35:37Z</time>
      </trkpt>
      <trkpt lat="43.47641" lon="2.26292">
        <ele>811</ele>
        <time>2025-09-17T09:35:49Z</time>
      </trkpt>
      <trkpt lat="43.47618" lon="2.2635">
        <ele>817</ele>
        <time>2025-09-17T09:35:57Z</time>
      </trkpt>
      <trkpt lat="43.47584" lon="2.26457">
        <ele>822</ele>
        <time>2025-09-17T09:36:12Z</time>
      </trkpt>
      <trkpt lat="43.47562" lon="2.26499">
        <ele>823</ele>
        <time>2025-09-17T09:36:19Z</time>
      </trkpt>
      <trkpt lat="43.47547" lon="2.26509">
        <ele>824</ele>
        <time>2025-09-17T09:36:22Z</time>
      </trkpt>
      <trkpt lat="43.47529" lon="2.26511">
        <ele>826</ele>
        <time>2025-09-17T09:36:25Z</time>
      </trkpt>
      <trkpt lat="43.47492" lon="2.26523">
        <ele>828</ele>
        <time>2025-09-17T09:36:32Z</time>
      </trkpt>
      <trkpt lat="43.47472" lon="2.26521">
        <ele>830</ele>
        <time>2025-09-17T09:36:35Z</time>
      </trkpt>
      <trkpt lat="43.47435" lon="2.26502">
        <ele>837</ele>
        <time>2025-09-17T09:36:42Z</time>
      </trkpt>
      <trkpt lat="43.47372" lon="2.26489">
        <ele>847</ele>
        <time>2025-09-17T09:36:54Z</time>
      </trkpt>
      <trkpt lat="43.47354" lon="2.26488">
        <ele>849</ele>
        <time>2025-09-17T09:36:57Z</time>
      </trkpt>
      <trkpt lat="43.47339" lon="2.2649">
        <ele>851</ele>
        <time>2025-09-17T09:37:00Z</time>
      </trkpt>
      <trkpt lat="43.47317" lon="2.26503">
        <ele>853</ele>
        <time>2025-09-17T09:37:04Z</time>
      </trkpt>
      <trkpt lat="43.473" lon="2.26521">
        <ele>855</ele>
        <time>2025-09-17T09:37:08Z</time>
      </trkpt>
      <trkpt lat="43.47289" lon="2.26538">
        <ele>856</ele>
        <time>2025-09-17T09:37:11Z</time>
      </trkpt>
      <trkpt lat="43.47272" lon="2.26574">
        <ele>856</ele>
        <time>2025-09-17T09:37:16Z</time>
      </trkpt>
      <trkpt lat="43.47262" lon="2.26589">
        <ele>856</ele>
        <time>2025-09-17T09:37:19Z</time>
      </trkpt>
      <trkpt lat="43.47225" lon="2.26629">
        <ele>860</ele>
        <time>2025-09-17T09:37:27Z</time>
      </trkpt>
      <trkpt lat="43.47182" lon="2.2667">
        <ele>862</ele>
        <time>2025-09-17T09:37:36Z</time>
      </trkpt>
      <trkpt lat="43.47168" lon="2.26677">
        <ele>864</ele>
        <time>2025-09-17T09:37:39Z</time>
      </trkpt>
      <trkpt lat="43.47154" lon="2.26679">
        <ele>865</ele>
        <time>2025-09-17T09:37:42Z</time>
      </trkpt>
      <trkpt lat="43.47138" lon="2.26679">
        <ele>866</ele>
        <time>2025-09-17T09:37:44Z</time>
      </trkpt>
      <trkpt lat="43.4705" lon="2.26655">
        <ele>873</ele>
        <time>2025-09-17T09:38:00Z</time>
      </trkpt>
      <trkpt lat="43.47014" lon="2.26655">
        <ele>872</ele>
        <time>2025-09-17T09:38:07Z</time>
      </trkpt>
      <trkpt lat="43.47001" lon="2.26652">
        <ele>872</ele>
        <time>2025-09-17T09:38:09Z</time>
      </trkpt>
      <trkpt lat="43.46965" lon="2.26632">
        <ele>875</ele>
        <time>2025-09-17T09:38:16Z</time>
      </trkpt>
      <trkpt lat="43.4694" lon="2.26623">
        <ele>875</ele>
        <time>2025-09-17T09:38:21Z</time>
      </trkpt>
      <trkpt lat="43.46906" lon="2.26604">
        <ele>878</ele>
        <time>2025-09-17T09:38:27Z</time>
      </trkpt>
      <trkpt lat="43.46778" lon="2.26543">
        <ele>885</ele>
        <time>2025-09-17T09:38:51Z</time>
      </trkpt>
      <trkpt lat="43.46735" lon="2.26534">
        <ele>885</ele>
        <time>2025-09-17T09:38:59Z</time>
      </trkpt>
      <trkpt lat="43.46666" lon="2.26504">
        <ele>890</ele>
        <time>2025-09-17T09:39:12Z</time>
      </trkpt>
      <trkpt lat="43.46609" lon="2.26489">
        <ele>894</ele>
        <time>2025-09-17T09:39:22Z</time>
      </trkpt>
      <trkpt lat="43.46596" lon="2.26488">
        <ele>894</ele>
        <time>2025-09-17T09:39:25Z</time>
      </trkpt>
      <trkpt lat="43.46586" lon="2.26495">
        <ele>893</ele>
        <time>2025-09-17T09:39:27Z</time>
      </trkpt>
      <trkpt lat="43.46569" lon="2.26519">
        <ele>891</ele>
        <time>2025-09-17T09:39:31Z</time>
      </trkpt>
      <trkpt lat="43.46555" lon="2.26533">
        <ele>891</ele>
        <time>2025-09-17T09:39:34Z</time>
      </trkpt>
      <trkpt lat="43.46493" lon="2.26569">
        <ele>897</ele>
        <time>2025-09-17T09:39:46Z</time>
      </trkpt>
      <trkpt lat="43.46475" lon="2.26586">
        <ele>899</ele>
        <time>2025-09-17T09:39:50Z</time>
      </trkpt>
      <trkpt lat="43.46467" lon="2.26607">
        <ele>900</ele>
        <time>2025-09-17T09:39:53Z</time>
      </trkpt>
      <trkpt lat="43.46462" lon="2.26662">
        <ele>899</ele>
        <time>2025-09-17T09:40:00Z</time>
      </trkpt>
      <trkpt lat="43.46463" lon="2.26689">
        <ele>900</ele>
        <time>2025-09-17T09:40:04Z</time>
      </trkpt>
      <trkpt lat="43.46469" lon="2.2673">
        <ele>901</ele>
        <time>2025-09-17T09:40:09Z</time>
      </trkpt>
      <trkpt lat="43.46468" lon="2.26741">
        <ele>902</ele>
        <time>2025-09-17T09:40:10Z</time>
      </trkpt>
      <trkpt lat="43.46465" lon="2.26744">
        <ele>903</ele>
        <time>2025-09-17T09:40:11Z</time>
      </trkpt>
      <trkpt lat="43.46461" lon="2.26741">
        <ele>904</ele>
        <time>2025-09-17T09:40:12Z</time>
      </trkpt>
      <trkpt lat="43.46457" lon="2.26733">
        <ele>905</ele>
        <time>2025-09-17T09:40:13Z</time>
      </trkpt>
      <trkpt lat="43.46446" lon="2.26689">
        <ele>906</ele>
        <time>2025-09-17T09:40:19Z</time>
      </trkpt>
      <trkpt lat="43.46417" lon="2.2661">
        <ele>915</ele>
        <time>2025-09-17T09:40:31Z</time>
      </trkpt>
      <trkpt lat="43.46395" lon="2.26563">
        <ele>919</ele>
        <time>2025-09-17T09:40:38Z</time>
      </trkpt>
      <trkpt lat="43.4639" lon="2.26547">
        <ele>920</ele>
        <time>2025-09-17T09:40:40Z</time>
      </trkpt>
      <trkpt lat="43.46377" lon="2.26475">
        <ele>921</ele>
        <time>2025-09-17T09:40:50Z</time>
      </trkpt>
      <trkpt lat="43.46373" lon="2.26463">
        <ele>921</ele>
        <time>2025-09-17T09:40:51Z</time>
      </trkpt>
      <trkpt lat="43.46344" lon="2.26402">
        <ele>919</ele>
        <time>2025-09-17T09:41:01Z</time>
      </trkpt>
      <trkpt lat="43.46324" lon="2.26372">
        <ele>917</ele>
        <time>2025-09-17T09:41:06Z</time>
      </trkpt>
      <trkpt lat="43.46452" lon="2.26337">
        <ele>913</ele>
        <time>2025-09-17T09:41:29Z</time>
      </trkpt>
      <trkpt lat="43.46536" lon="2.26341">
        <ele>911</ele>
        <time>2025-09-17T09:41:44Z</time>
      </trkpt>
      <trkpt lat="43.46624" lon="2.26322">
        <ele>913</ele>
        <time>2025-09-17T09:42:00Z</time>
      </trkpt>
      <trkpt lat="43.46738" lon="2.26306">
        <ele>919</ele>
        <time>2025-09-17T09:42:20Z</time>
      </trkpt>
      <trkpt lat="43.46775" lon="2.26313">
        <ele>922</ele>
        <time>2025-09-17T09:42:27Z</time>
      </trkpt>
      <trkpt lat="43.46782" lon="2.26308">
        <ele>922</ele>
        <time>2025-09-17T09:42:28Z</time>
      </trkpt>
      <trkpt lat="43.46834" lon="2.2619">
        <ele>919</ele>
        <time>2025-09-17T09:42:46Z</time>
      </trkpt>
      <trkpt lat="43.46834" lon="2.26171">
        <ele>918</ele>
        <time>2025-09-17T09:42:49Z</time>
      </trkpt>
      <trkpt lat="43.46826" lon="2.26154">
        <ele>918</ele>
        <time>2025-09-17T09:42:51Z</time>
      </trkpt>
      <trkpt lat="43.46794" lon="2.26124">
        <ele>914</ele>
        <time>2025-09-17T09:42:58Z</time>
      </trkpt>
      <trkpt lat="43.46786" lon="2.26091">
        <ele>913</ele>
        <time>2025-09-17T09:43:03Z</time>
      </trkpt>
      <trkpt lat="43.46784" lon="2.26046">
        <ele>912</ele>
        <time>2025-09-17T09:43:09Z</time>
      </trkpt>
      <trkpt lat="43.46792" lon="2.25995">
        <ele>912</ele>
        <time>2025-09-17T09:43:15Z</time>
      </trkpt>
      <trkpt lat="43.46858" lon="2.25891">
        <ele>913</ele>
        <time>2025-09-17T09:43:33Z</time>
      </trkpt>
      <trkpt lat="43.46887" lon="2.25849">
        <ele>913</ele>
        <time>2025-09-17T09:43:41Z</time>
      </trkpt>
      <trkpt lat="43.46915" lon="2.2582">
        <ele>915</ele>
        <time>2025-09-17T09:43:47Z</time>
      </trkpt>
      <trkpt lat="43.4693" lon="2.25781">
        <ele>913</ele>
        <time>2025-09-17T09:43:53Z</time>
      </trkpt>
      <trkpt lat="43.46941" lon="2.25747">
        <ele>911</ele>
        <time>2025-09-17T09:43:57Z</time>
      </trkpt>
      <trkpt lat="43.46954" lon="2.2572">
        <ele>912</ele>
        <time>2025-09-17T09:44:02Z</time>
      </trkpt>
      <trkpt lat="43.46959" lon="2.25699">
        <ele>912</ele>
        <time>2025-09-17T09:44:04Z</time>
      </trkpt>
      <trkpt lat="43.4696" lon="2.25677">
        <ele>911</ele>
        <time>2025-09-17T09:44:07Z</time>
      </trkpt>
      <trkpt lat="43.46955" lon="2.25663">
        <ele>911</ele>
        <time>2025-09-17T09:44:09Z</time>
      </trkpt>
      <trkpt lat="43.46944" lon="2.25643">
        <ele>910</ele>
        <time>2025-09-17T09:44:12Z</time>
      </trkpt>
      <trkpt lat="43.46936" lon="2.25612">
        <ele>910</ele>
        <time>2025-09-17T09:44:17Z</time>
      </trkpt>
      <trkpt lat="43.46936" lon="2.2558">
        <ele>911</ele>
        <time>2025-09-17T09:44:21Z</time>
      </trkpt>
      <trkpt lat="43.46947" lon="2.25525">
        <ele>914</ele>
        <time>2025-09-17T09:44:28Z</time>
      </trkpt>
      <trkpt lat="43.46937" lon="2.25509">
        <ele>914</ele>
        <time>2025-09-17T09:44:31Z</time>
      </trkpt>
      <trkpt lat="43.46916" lon="2.25498">
        <ele>912</ele>
        <time>2025-09-17T09:44:35Z</time>
      </trkpt>
      <trkpt lat="43.46886" lon="2.25489">
        <ele>917</ele>
        <time>2025-09-17T09:44:40Z</time>
      </trkpt>
      <trkpt lat="43.46963" lon="2.25423">
        <ele>923</ele>
        <time>2025-09-17T09:44:57Z</time>
      </trkpt>
      <trkpt lat="43.4697" lon="2.25411">
        <ele>924</ele>
        <time>2025-09-17T09:44:59Z</time>
      </trkpt>
      <trkpt lat="43.46985" lon="2.25352">
        <ele>926</ele>
        <time>2025-09-17T09:45:07Z</time>
      </trkpt>
      <trkpt lat="43.46987" lon="2.25328">
        <ele>926</ele>
        <time>2025-09-17T09:45:10Z</time>
      </trkpt>
      <trkpt lat="43.46987" lon="2.25301">
        <ele>926</ele>
        <time>2025-09-17T09:45:13Z</time>
      </trkpt>
      <trkpt lat="43.46984" lon="2.25281">
        <ele>926</ele>
        <time>2025-09-17T09:45:16Z</time>
      </trkpt>
      <trkpt lat="43.46956" lon="2.25202">
        <ele>928</ele>
        <time>2025-09-17T09:45:27Z</time>
      </trkpt>
      <trkpt lat="43.46954" lon="2.25193">
        <ele>928</ele>
        <time>2025-09-17T09:45:28Z</time>
      </trkpt>
      <trkpt lat="43.46955" lon="2.25166">
        <ele>927</ele>
        <time>2025-09-17T09:45:32Z</time>
      </trkpt>
      <trkpt lat="43.46964" lon="2.25072">
        <ele>925</ele>
        <time>2025-09-17T09:45:44Z</time>
      </trkpt>
      <trkpt lat="43.46974" lon="2.25016">
        <ele>924</ele>
        <time>2025-09-17T09:45:52Z</time>
      </trkpt>
      <trkpt lat="43.47022" lon="2.24839">
        <ele>910</ele>
        <time>2025-09-17T09:46:16Z</time>
      </trkpt>
      <trkpt lat="43.47037" lon="2.24774">
        <ele>904</ele>
        <time>2025-09-17T09:46:25Z</time>
      </trkpt>
      <trkpt lat="43.47042" lon="2.2473">
        <ele>900</ele>
        <time>2025-09-17T09:46:31Z</time>
      </trkpt>
      <trkpt lat="43.4704" lon="2.24711">
        <ele>898</ele>
        <time>2025-09-17T09:46:33Z</time>
      </trkpt>
      <trkpt lat="43.47032" lon="2.24688">
        <ele>896</ele>
        <time>2025-09-17T09:46:36Z</time>
      </trkpt>
      <trkpt lat="43.47024" lon="2.24678">
        <ele>896</ele>
        <time>2025-09-17T09:46:38Z</time>
      </trkpt>
      <trkpt lat="43.47001" lon="2.24656">
        <ele>893</ele>
        <time>2025-09-17T09:46:43Z</time>
      </trkpt>
      <trkpt lat="43.46992" lon="2.24651">
        <ele>892</ele>
        <time>2025-09-17T09:46:45Z</time>
      </trkpt>
      <trkpt lat="43.46938" lon="2.2464">
        <ele>891</ele>
        <time>2025-09-17T09:46:55Z</time>
      </trkpt>
      <trkpt lat="43.4685" lon="2.24586">
        <ele>883</ele>
        <time>2025-09-17T09:47:12Z</time>
      </trkpt>
      <trkpt lat="43.46833" lon="2.24571">
        <ele>882</ele>
        <time>2025-09-17T09:47:15Z</time>
      </trkpt>
      <trkpt lat="43.46814" lon="2.24547">
        <ele>883</ele>
        <time>2025-09-17T09:47:20Z</time>
      </trkpt>
      <trkpt lat="43.46809" lon="2.24537">
        <ele>883</ele>
        <time>2025-09-17T09:47:22Z</time>
      </trkpt>
      <trkpt lat="43.46806" lon="2.24526">
        <ele>882</ele>
        <time>2025-09-17T09:47:23Z</time>
      </trkpt>
      <trkpt lat="43.46808" lon="2.24502">
        <ele>878</ele>
        <time>2025-09-17T09:47:26Z</time>
      </trkpt>
      <trkpt lat="43.46827" lon="2.24431">
        <ele>869</ele>
        <time>2025-09-17T09:47:36Z</time>
      </trkpt>
      <trkpt lat="43.4683" lon="2.24405">
        <ele>867</ele>
        <time>2025-09-17T09:47:39Z</time>
      </trkpt>
      <trkpt lat="43.46828" lon="2.24376">
        <ele>864</ele>
        <time>2025-09-17T09:47:43Z</time>
      </trkpt>
      <trkpt lat="43.46824" lon="2.24356">
        <ele>862</ele>
        <time>2025-09-17T09:47:46Z</time>
      </trkpt>
      <trkpt lat="43.46819" lon="2.24344">
        <ele>862</ele>
        <time>2025-09-17T09:47:48Z</time>
      </trkpt>
      <trkpt lat="43.46761" lon="2.24242">
        <ele>855</ele>
        <time>2025-09-17T09:48:04Z</time>
      </trkpt>
      <trkpt lat="43.46751" lon="2.24229">
        <ele>854</ele>
        <time>2025-09-17T09:48:07Z</time>
      </trkpt>
      <trkpt lat="43.46684" lon="2.24174">
        <ele>850</ele>
        <time>2025-09-17T09:48:21Z</time>
      </trkpt>
      <trkpt lat="43.46618" lon="2.24108">
        <ele>838</ele>
        <time>2025-09-17T09:48:35Z</time>
      </trkpt>
      <trkpt lat="43.46608" lon="2.24101">
        <ele>837</ele>
        <time>2025-09-17T09:48:37Z</time>
      </trkpt>
      <trkpt lat="43.46577" lon="2.24092">
        <ele>840</ele>
        <time>2025-09-17T09:48:43Z</time>
      </trkpt>
      <trkpt lat="43.4657" lon="2.24088">
        <ele>839</ele>
        <time>2025-09-17T09:48:44Z</time>
      </trkpt>
      <trkpt lat="43.46564" lon="2.24081">
        <ele>838</ele>
        <time>2025-09-17T09:48:46Z</time>
      </trkpt>
      <trkpt lat="43.46562" lon="2.24072">
        <ele>835</ele>
        <time>2025-09-17T09:48:47Z</time>
      </trkpt>
      <trkpt lat="43.46506" lon="2.24053">
        <ele>837</ele>
        <time>2025-09-17T09:48:57Z</time>
      </trkpt>
      <trkpt lat="43.46488" lon="2.24051">
        <ele>838</ele>
        <time>2025-09-17T09:49:00Z</time>
      </trkpt>
      <trkpt lat="43.46435" lon="2.24056">
        <ele>841</ele>
        <time>2025-09-17T09:49:10Z</time>
      </trkpt>
      <trkpt lat="43.46362" lon="2.24075">
        <ele>846</ele>
        <time>2025-09-17T09:49:23Z</time>
      </trkpt>
      <trkpt lat="43.46319" lon="2.24103">
        <ele>853</ele>
        <time>2025-09-17T09:49:31Z</time>
      </trkpt>
      <trkpt lat="43.46312" lon="2.24106">
        <ele>854</ele>
        <time>2025-09-17T09:49:33Z</time>
      </trkpt>
      <trkpt lat="43.46306" lon="2.24106">
        <ele>855</ele>
        <time>2025-09-17T09:49:34Z</time>
      </trkpt>
      <trkpt lat="43.46302" lon="2.24103">
        <ele>854</ele>
        <time>2025-09-17T09:49:35Z</time>
      </trkpt>
      <trkpt lat="43.46292" lon="2.24081">
        <ele>849</ele>
        <time>2025-09-17T09:49:38Z</time>
      </trkpt>
      <trkpt lat="43.46281" lon="2.24065">
        <ele>847</ele>
        <time>2025-09-17T09:49:41Z</time>
      </trkpt>
      <trkpt lat="43.46274" lon="2.24061">
        <ele>846</ele>
        <time>2025-09-17T09:49:42Z</time>
      </trkpt>
      <trkpt lat="43.46265" lon="2.2405">
        <ele>844</ele>
        <time>2025-09-17T09:49:44Z</time>
      </trkpt>
      <trkpt lat="43.46241" lon="2.24046">
        <ele>845</ele>
        <time>2025-09-17T09:49:49Z</time>
      </trkpt>
      <trkpt lat="43.46124" lon="2.24001">
        <ele>845</ele>
        <time>2025-09-17T09:50:10Z</time>
      </trkpt>
      <trkpt lat="43.46065" lon="2.23997">
        <ele>852</ele>
        <time>2025-09-17T09:50:21Z</time>
      </trkpt>
      <trkpt lat="43.46052" lon="2.23989">
        <ele>854</ele>
        <time>2025-09-17T09:50:23Z</time>
      </trkpt>
      <trkpt lat="43.46042" lon="2.23969">
        <ele>854</ele>
        <time>2025-09-17T09:50:26Z</time>
      </trkpt>
      <trkpt lat="43.46039" lon="2.2394">
        <ele>852</ele>
        <time>2025-09-17T09:50:30Z</time>
      </trkpt>
      <trkpt lat="43.46039" lon="2.23914">
        <ele>849</ele>
        <time>2025-09-17T09:50:33Z</time>
      </trkpt>
      <trkpt lat="43.46031" lon="2.23881">
        <ele>848</ele>
        <time>2025-09-17T09:50:38Z</time>
      </trkpt>
      <trkpt lat="43.46017" lon="2.23854">
        <ele>848</ele>
        <time>2025-09-17T09:50:42Z</time>
      </trkpt>
      <trkpt lat="43.46009" lon="2.23844">
        <ele>849</ele>
        <time>2025-09-17T09:50:44Z</time>
      </trkpt>
      <trkpt lat="43.4595" lon="2.23792">
        <ele>850</ele>
        <time>2025-09-17T09:50:57Z</time>
      </trkpt>
      <trkpt lat="43.45937" lon="2.23777">
        <ele>850</ele>
        <time>2025-09-17T09:51:00Z</time>
      </trkpt>
      <trkpt lat="43.45928" lon="2.23751">
        <ele>847</ele>
        <time>2025-09-17T09:51:03Z</time>
      </trkpt>
      <trkpt lat="43.45927" lon="2.23733">
        <ele>846</ele>
        <time>2025-09-17T09:51:06Z</time>
      </trkpt>
      <trkpt lat="43.45929" lon="2.23717">
        <ele>846</ele>
        <time>2025-09-17T09:51:08Z</time>
      </trkpt>
      <trkpt lat="43.45947" lon="2.23663">
        <ele>846</ele>
        <time>2025-09-17T09:51:15Z</time>
      </trkpt>
      <trkpt lat="43.45957" lon="2.2365">
        <ele>849</ele>
        <time>2025-09-17T09:51:18Z</time>
      </trkpt>
      <trkpt lat="43.45965" lon="2.23646">
        <ele>850</ele>
        <time>2025-09-17T09:51:19Z</time>
      </trkpt>
      <trkpt lat="43.45971" lon="2.23645">
        <ele>850</ele>
        <time>2025-09-17T09:51:20Z</time>
      </trkpt>
      <trkpt lat="43.45998" lon="2.23653">
        <ele>848</ele>
        <time>2025-09-17T09:51:25Z</time>
      </trkpt>
      <trkpt lat="43.46041" lon="2.23669">
        <ele>849</ele>
        <time>2025-09-17T09:51:33Z</time>
      </trkpt>
      <trkpt lat="43.46058" lon="2.23682">
        <ele>848</ele>
        <time>2025-09-17T09:51:37Z</time>
      </trkpt>
      <trkpt lat="43.46072" lon="2.23698">
        <ele>847</ele>
        <time>2025-09-17T09:51:40Z</time>
      </trkpt>
      <trkpt lat="43.46083" lon="2.23718">
        <ele>844</ele>
        <time>2025-09-17T09:51:43Z</time>
      </trkpt>
      <trkpt lat="43.46108" lon="2.23791">
        <ele>836</ele>
        <time>2025-09-17T09:51:54Z</time>
      </trkpt>
      <trkpt lat="43.46117" lon="2.23807">
        <ele>833</ele>
        <time>2025-09-17T09:51:56Z</time>
      </trkpt>
      <trkpt lat="43.46126" lon="2.23815">
        <ele>831</ele>
        <time>2025-09-17T09:51:58Z</time>
      </trkpt>
      <trkpt lat="43.46138" lon="2.23817">
        <ele>830</ele>
        <time>2025-09-17T09:52:00Z</time>
      </trkpt>
      <trkpt lat="43.46157" lon="2.23813">
        <ele>831</ele>
        <time>2025-09-17T09:52:04Z</time>
      </trkpt>
      <trkpt lat="43.46188" lon="2.23803">
        <ele>831</ele>
        <time>2025-09-17T09:52:09Z</time>
      </trkpt>
      <trkpt lat="43.46219" lon="2.2379">
        <ele>830</ele>
        <time>2025-09-17T09:52:15Z</time>
      </trkpt>
      <trkpt lat="43.46245" lon="2.23775">
        <ele>830</ele>
        <time>2025-09-17T09:52:20Z</time>
      </trkpt>
      <trkpt lat="43.46308" lon="2.23721">
        <ele>829</ele>
        <time>2025-09-17T09:52:33Z</time>
      </trkpt>
      <trkpt lat="43.4632" lon="2.23715">
        <ele>828</ele>
        <time>2025-09-17T09:52:36Z</time>
      </trkpt>
      <trkpt lat="43.46425" lon="2.23691">
        <ele>817</ele>
        <time>2025-09-17T09:52:55Z</time>
      </trkpt>
      <trkpt lat="43.46435" lon="2.23685">
        <ele>818</ele>
        <time>2025-09-17T09:52:57Z</time>
      </trkpt>
      <trkpt lat="43.46439" lon="2.23678">
        <ele>819</ele>
        <time>2025-09-17T09:52:58Z</time>
      </trkpt>
      <trkpt lat="43.46442" lon="2.23664">
        <ele>821</ele>
        <time>2025-09-17T09:53:00Z</time>
      </trkpt>
      <trkpt lat="43.46391" lon="2.23642">
        <ele>830</ele>
        <time>2025-09-17T09:53:09Z</time>
      </trkpt>
      <trkpt lat="43.46375" lon="2.23629">
        <ele>834</ele>
        <time>2025-09-17T09:53:12Z</time>
      </trkpt>
      <trkpt lat="43.46357" lon="2.23606">
        <ele>840</ele>
        <time>2025-09-17T09:53:17Z</time>
      </trkpt>
      <trkpt lat="43.4635" lon="2.23587">
        <ele>844</ele>
        <time>2025-09-17T09:53:20Z</time>
      </trkpt>
      <trkpt lat="43.46335" lon="2.23507">
        <ele>849</ele>
        <time>2025-09-17T09:53:30Z</time>
      </trkpt>
      <trkpt lat="43.46316" lon="2.23441">
        <ele>846</ele>
        <time>2025-09-17T09:53:39Z</time>
      </trkpt>
      <trkpt lat="43.46301" lon="2.23413">
        <ele>845</ele>
        <time>2025-09-17T09:53:44Z</time>
      </trkpt>
      <trkpt lat="43.46291" lon="2.23401">
        <ele>845</ele>
        <time>2025-09-17T09:53:46Z</time>
      </trkpt>
      <trkpt lat="43.4623" lon="2.23342">
        <ele>847</ele>
        <time>2025-09-17T09:54:00Z</time>
      </trkpt>
      <trkpt lat="43.46198" lon="2.23297">
        <ele>848</ele>
        <time>2025-09-17T09:54:08Z</time>
      </trkpt>
      <trkpt lat="43.46182" lon="2.2327">
        <ele>849</ele>
        <time>2025-09-17T09:54:12Z</time>
      </trkpt>
      <trkpt lat="43.46175" lon="2.23253">
        <ele>849</ele>
        <time>2025-09-17T09:54:15Z</time>
      </trkpt>
      <trkpt lat="43.46161" lon="2.23205">
        <ele>848</ele>
        <time>2025-09-17T09:54:21Z</time>
      </trkpt>
      <trkpt lat="43.46144" lon="2.23163">
        <ele>850</ele>
        <time>2025-09-17T09:54:28Z</time>
      </trkpt>
      <trkpt lat="43.46106" lon="2.23101">
        <ele>854</ele>
        <time>2025-09-17T09:54:38Z</time>
      </trkpt>
      <trkpt lat="43.46072" lon="2.23054">
        <ele>857</ele>
        <time>2025-09-17T09:54:47Z</time>
      </trkpt>
      <trkpt lat="43.46058" lon="2.23037">
        <ele>858</ele>
        <time>2025-09-17T09:54:50Z</time>
      </trkpt>
      <trkpt lat="43.46011" lon="2.22997">
        <ele>861</ele>
        <time>2025-09-17T09:55:00Z</time>
      </trkpt>
      <trkpt lat="43.45938" lon="2.22941">
        <ele>867</ele>
        <time>2025-09-17T09:55:15Z</time>
      </trkpt>
      <trkpt lat="43.45918" lon="2.22922">
        <ele>869</ele>
        <time>2025-09-17T09:55:19Z</time>
      </trkpt>
      <trkpt lat="43.45898" lon="2.22898">
        <ele>869</ele>
        <time>2025-09-17T09:55:24Z</time>
      </trkpt>
      <trkpt lat="43.45884" lon="2.22887">
        <ele>870</ele>
        <time>2025-09-17T09:55:27Z</time>
      </trkpt>
      <trkpt lat="43.45853" lon="2.22868">
        <ele>873</ele>
        <time>2025-09-17T09:55:33Z</time>
      </trkpt>
      <trkpt lat="43.45831" lon="2.22851">
        <ele>875</ele>
        <time>2025-09-17T09:55:37Z</time>
      </trkpt>
      <trkpt lat="43.45806" lon="2.22823">
        <ele>875</ele>
        <time>2025-09-17T09:55:43Z</time>
      </trkpt>
      <trkpt lat="43.45726" lon="2.22759">
        <ele>878</ele>
        <time>2025-09-17T09:55:59Z</time>
      </trkpt>
      <trkpt lat="43.45651" lon="2.22716">
        <ele>880</ele>
        <time>2025-09-17T09:56:14Z</time>
      </trkpt>
      <trkpt lat="43.45614" lon="2.22703">
        <ele>881</ele>
        <time>2025-09-17T09:56:21Z</time>
      </trkpt>
      <trkpt lat="43.45565" lon="2.22694">
        <ele>883</ele>
        <time>2025-09-17T09:56:29Z</time>
      </trkpt>
      <trkpt lat="43.45506" lon="2.22687">
        <ele>885</ele>
        <time>2025-09-17T09:56:40Z</time>
      </trkpt>
      <trkpt lat="43.45417" lon="2.22687">
        <ele>886</ele>
        <time>2025-09-17T09:56:56Z</time>
      </trkpt>
      <trkpt lat="43.4539" lon="2.22695">
        <ele>887</ele>
        <time>2025-09-17T09:57:01Z</time>
      </trkpt>
      <trkpt lat="43.45378" lon="2.22699">
        <ele>887</ele>
        <time>2025-09-17T09:57:03Z</time>
      </trkpt>
      <trkpt lat="43.45363" lon="2.22711">
        <ele>887</ele>
        <time>2025-09-17T09:57:06Z</time>
      </trkpt>
      <trkpt lat="43.45313" lon="2.22741">
        <ele>884</ele>
        <time>2025-09-17T09:57:16Z</time>
      </trkpt>
      <trkpt lat="43.45297" lon="2.22746">
        <ele>882</ele>
        <time>2025-09-17T09:57:18Z</time>
      </trkpt>
      <trkpt lat="43.45289" lon="2.22746">
        <ele>882</ele>
        <time>2025-09-17T09:57:20Z</time>
      </trkpt>
      <trkpt lat="43.45255" lon="2.2272">
        <ele>881</ele>
        <time>2025-09-17T09:57:27Z</time>
      </trkpt>
      <trkpt lat="43.45221" lon="2.22701">
        <ele>878</ele>
        <time>2025-09-17T09:57:33Z</time>
      </trkpt>
      <trkpt lat="43.45203" lon="2.22689">
        <ele>877</ele>
        <time>2025-09-17T09:57:37Z</time>
      </trkpt>
      <trkpt lat="43.45191" lon="2.22684">
        <ele>876</ele>
        <time>2025-09-17T09:57:39Z</time>
      </trkpt>
      <trkpt lat="43.45181" lon="2.22685">
        <ele>874</ele>
        <time>2025-09-17T09:57:41Z</time>
      </trkpt>
      <trkpt lat="43.45146" lon="2.22698">
        <ele>870</ele>
        <time>2025-09-17T09:57:47Z</time>
      </trkpt>
      <trkpt lat="43.45117" lon="2.22716">
        <ele>868</ele>
        <time>2025-09-17T09:57:53Z</time>
      </trkpt>
      <trkpt lat="43.45096" lon="2.22728">
        <ele>866</ele>
        <time>2025-09-17T09:57:57Z</time>
      </trkpt>
      <trkpt lat="43.45076" lon="2.22732">
        <ele>865</ele>
        <time>2025-09-17T09:58:01Z</time>
      </trkpt>
      <trkpt lat="43.4506" lon="2.22733">
        <ele>865</ele>
        <time>2025-09-17T09:58:04Z</time>
      </trkpt>
      <trkpt lat="43.45052" lon="2.22731">
        <ele>865</ele>
        <time>2025-09-17T09:58:05Z</time>
      </trkpt>
      <trkpt lat="43.45043" lon="2.22729">
        <ele>865</ele>
        <time>2025-09-17T09:58:07Z</time>
      </trkpt>
      <trkpt lat="43.45009" lon="2.22728">
        <ele>865</ele>
        <time>2025-09-17T09:58:13Z</time>
      </trkpt>
      <trkpt lat="43.44977" lon="2.22714">
        <ele>866</ele>
        <time>2025-09-17T09:58:19Z</time>
      </trkpt>
      <trkpt lat="43.44944" lon="2.22701">
        <ele>866</ele>
        <time>2025-09-17T09:58:25Z</time>
      </trkpt>
      <trkpt lat="43.44893" lon="2.22688">
        <ele>865</ele>
        <time>2025-09-17T09:58:34Z</time>
      </trkpt>
      <trkpt lat="43.4488" lon="2.22683">
        <ele>865</ele>
        <time>2025-09-17T09:58:36Z</time>
      </trkpt>
      <trkpt lat="43.44867" lon="2.22672">
        <ele>866</ele>
        <time>2025-09-17T09:58:39Z</time>
      </trkpt>
      <trkpt lat="43.44857" lon="2.22656">
        <ele>867</ele>
        <time>2025-09-17T09:58:42Z</time>
      </trkpt>
      <trkpt lat="43.44852" lon="2.22641">
        <ele>867</ele>
        <time>2025-09-17T09:58:44Z</time>
      </trkpt>
      <trkpt lat="43.44847" lon="2.2262">
        <ele>867</ele>
        <time>2025-09-17T09:58:47Z</time>
      </trkpt>
      <trkpt lat="43.4484" lon="2.2256">
        <ele>867</ele>
        <time>2025-09-17T09:58:55Z</time>
      </trkpt>
      <trkpt lat="43.44828" lon="2.22471">
        <ele>865</ele>
        <time>2025-09-17T09:59:06Z</time>
      </trkpt>
      <trkpt lat="43.44814" lon="2.22416">
        <ele>863</ele>
        <time>2025-09-17T09:59:14Z</time>
      </trkpt>
      <trkpt lat="43.44807" lon="2.22389">
        <ele>864</ele>
        <time>2025-09-17T09:59:18Z</time>
      </trkpt>
      <trkpt lat="43.44786" lon="2.22335">
        <ele>865</ele>
        <time>2025-09-17T09:59:25Z</time>
      </trkpt>
      <trkpt lat="43.44769" lon="2.22307">
        <ele>867</ele>
        <time>2025-09-17T09:59:30Z</time>
      </trkpt>
      <trkpt lat="43.44764" lon="2.22299">
        <ele>867</ele>
        <time>2025-09-17T09:59:32Z</time>
      </trkpt>
      <trkpt lat="43.44756" lon="2.2229">
        <ele>868</ele>
        <time>2025-09-17T09:59:33Z</time>
      </trkpt>
      <trkpt lat="43.44735" lon="2.22275">
        <ele>869</ele>
        <time>2025-09-17T09:59:38Z</time>
      </trkpt>
      <trkpt lat="43.44683" lon="2.22228">
        <ele>876</ele>
        <time>2025-09-17T09:59:49Z</time>
      </trkpt>
      <trkpt lat="43.44671" lon="2.2222">
        <ele>878</ele>
        <time>2025-09-17T09:59:51Z</time>
      </trkpt>
      <trkpt lat="43.44661" lon="2.22218">
        <ele>878</ele>
        <time>2025-09-17T09:59:53Z</time>
      </trkpt>
      <trkpt lat="43.44638" lon="2.22221">
        <ele>879</ele>
        <time>2025-09-17T09:59:57Z</time>
      </trkpt>
      <trkpt lat="43.44616" lon="2.22229">
        <ele>878</ele>
        <time>2025-09-17T10:00:01Z</time>
      </trkpt>
      <trkpt lat="43.44606" lon="2.22236">
        <ele>878</ele>
        <time>2025-09-17T10:00:03Z</time>
      </trkpt>
      <trkpt lat="43.44602" lon="2.22239">
        <ele>878</ele>
        <time>2025-09-17T10:00:04Z</time>
      </trkpt>
      <trkpt lat="43.44587" lon="2.22258">
        <ele>876</ele>
        <time>2025-09-17T10:00:07Z</time>
      </trkpt>
      <trkpt lat="43.44545" lon="2.22305">
        <ele>877</ele>
        <time>2025-09-17T10:00:17Z</time>
      </trkpt>
      <trkpt lat="43.44525" lon="2.22319">
        <ele>878</ele>
        <time>2025-09-17T10:00:21Z</time>
      </trkpt>
      <trkpt lat="43.44503" lon="2.22332">
        <ele>879</ele>
        <time>2025-09-17T10:00:25Z</time>
      </trkpt>
      <trkpt lat="43.44487" lon="2.2234">
        <ele>880</ele>
        <time>2025-09-17T10:00:28Z</time>
      </trkpt>
      <trkpt lat="43.44449" lon="2.22368">
        <ele>880</ele>
        <time>2025-09-17T10:00:36Z</time>
      </trkpt>
      <trkpt lat="43.44404" lon="2.22373">
        <ele>881</ele>
        <time>2025-09-17T10:00:44Z</time>
      </trkpt>
      <trkpt lat="43.44371" lon="2.22378">
        <ele>878</ele>
        <time>2025-09-17T10:00:50Z</time>
      </trkpt>
      <trkpt lat="43.44361" lon="2.22376">
        <ele>878</ele>
        <time>2025-09-17T10:00:52Z</time>
      </trkpt>
      <trkpt lat="43.44352" lon="2.22369">
        <ele>879</ele>
        <time>2025-09-17T10:00:54Z</time>
      </trkpt>
      <trkpt lat="43.44334" lon="2.22345">
        <ele>882</ele>
        <time>2025-09-17T10:00:58Z</time>
      </trkpt>
      <trkpt lat="43.44321" lon="2.22333">
        <ele>883</ele>
        <time>2025-09-17T10:01:01Z</time>
      </trkpt>
      <trkpt lat="43.44296" lon="2.22321">
        <ele>882</ele>
        <time>2025-09-17T10:01:06Z</time>
      </trkpt>
      <trkpt lat="43.44251" lon="2.22312">
        <ele>878</ele>
        <time>2025-09-17T10:01:14Z</time>
      </trkpt>
      <trkpt lat="43.44243" lon="2.22306">
        <ele>877</ele>
        <time>2025-09-17T10:01:15Z</time>
      </trkpt>
      <trkpt lat="43.44237" lon="2.22299">
        <ele>877</ele>
        <time>2025-09-17T10:01:17Z</time>
      </trkpt>
      <trkpt lat="43.44222" lon="2.22249">
        <ele>878</ele>
        <time>2025-09-17T10:01:24Z</time>
      </trkpt>
      <trkpt lat="43.44221" lon="2.22231">
        <ele>877</ele>
        <time>2025-09-17T10:01:26Z</time>
      </trkpt>
      <trkpt lat="43.44223" lon="2.22214">
        <ele>878</ele>
        <time>2025-09-17T10:01:28Z</time>
      </trkpt>
      <trkpt lat="43.44237" lon="2.22173">
        <ele>880</ele>
        <time>2025-09-17T10:01:34Z</time>
      </trkpt>
      <trkpt lat="43.44262" lon="2.22112">
        <ele>883</ele>
        <time>2025-09-17T10:01:43Z</time>
      </trkpt>
      <trkpt lat="43.44285" lon="2.22046">
        <ele>883</ele>
        <time>2025-09-17T10:01:53Z</time>
      </trkpt>
      <trkpt lat="43.44333" lon="2.21921">
        <ele>875</ele>
        <time>2025-09-17T10:02:11Z</time>
      </trkpt>
      <trkpt lat="43.44355" lon="2.21879">
        <ele>872</ele>
        <time>2025-09-17T10:02:18Z</time>
      </trkpt>
      <trkpt lat="43.44396" lon="2.21821">
        <ele>871</ele>
        <time>2025-09-17T10:02:28Z</time>
      </trkpt>
      <trkpt lat="43.44481" lon="2.2171">
        <ele>869</ele>
        <time>2025-09-17T10:02:49Z</time>
      </trkpt>
      <trkpt lat="43.4455" lon="2.21636">
        <ele>870</ele>
        <time>2025-09-17T10:03:04Z</time>
      </trkpt>
      <trkpt lat="43.44574" lon="2.21619">
        <ele>871</ele>
        <time>2025-09-17T10:03:09Z</time>
      </trkpt>
      <trkpt lat="43.44604" lon="2.21605">
        <ele>875</ele>
        <time>2025-09-17T10:03:15Z</time>
      </trkpt>
      <trkpt lat="43.44632" lon="2.2158">
        <ele>877</ele>
        <time>2025-09-17T10:03:21Z</time>
      </trkpt>
      <trkpt lat="43.44642" lon="2.21563">
        <ele>879</ele>
        <time>2025-09-17T10:03:24Z</time>
      </trkpt>
      <trkpt lat="43.44648" lon="2.21547">
        <ele>880</ele>
        <time>2025-09-17T10:03:26Z</time>
      </trkpt>
      <trkpt lat="43.4465" lon="2.21517">
        <ele>880</ele>
        <time>2025-09-17T10:03:30Z</time>
      </trkpt>
      <trkpt lat="43.44644" lon="2.21497">
        <ele>878</ele>
        <time>2025-09-17T10:03:33Z</time>
      </trkpt>
      <trkpt lat="43.44566" lon="2.21427">
        <ele>877</ele>
        <time>2025-09-17T10:03:49Z</time>
      </trkpt>
      <trkpt lat="43.44542" lon="2.21402">
        <ele>878</ele>
        <time>2025-09-17T10:03:55Z</time>
      </trkpt>
      <trkpt lat="43.44518" lon="2.21386">
        <ele>878</ele>
        <time>2025-09-17T10:03:59Z</time>
      </trkpt>
      <trkpt lat="43.44488" lon="2.21373">
        <ele>877</ele>
        <time>2025-09-17T10:04:05Z</time>
      </trkpt>
      <trkpt lat="43.44457" lon="2.21365">
        <ele>875</ele>
        <time>2025-09-17T10:04:10Z</time>
      </trkpt>
      <trkpt lat="43.44441" lon="2.21359">
        <ele>874</ele>
        <time>2025-09-17T10:04:13Z</time>
      </trkpt>
      <trkpt lat="43.44427" lon="2.21345">
        <ele>875</ele>
        <time>2025-09-17T10:04:16Z</time>
      </trkpt>
      <trkpt lat="43.44377" lon="2.21309">
        <ele>877</ele>
        <time>2025-09-17T10:04:27Z</time>
      </trkpt>
      <trkpt lat="43.44363" lon="2.21294">
        <ele>878</ele>
        <time>2025-09-17T10:04:30Z</time>
      </trkpt>
      <trkpt lat="43.44349" lon="2.21273">
        <ele>882</ele>
        <time>2025-09-17T10:04:33Z</time>
      </trkpt>
      <trkpt lat="43.44324" lon="2.2125">
        <ele>885</ele>
        <time>2025-09-17T10:04:39Z</time>
      </trkpt>
      <trkpt lat="43.44281" lon="2.21233">
        <ele>881</ele>
        <time>2025-09-17T10:04:47Z</time>
      </trkpt>
      <trkpt lat="43.44265" lon="2.21219">
        <ele>881</ele>
        <time>2025-09-17T10:04:50Z</time>
      </trkpt>
      <trkpt lat="43.44256" lon="2.21207">
        <ele>882</ele>
        <time>2025-09-17T10:04:52Z</time>
      </trkpt>
      <trkpt lat="43.44226" lon="2.21151">
        <ele>883</ele>
        <time>2025-09-17T10:05:01Z</time>
      </trkpt>
      <trkpt lat="43.44183" lon="2.21102">
        <ele>878</ele>
        <time>2025-09-17T10:05:11Z</time>
      </trkpt>
      <trkpt lat="43.44158" lon="2.21066">
        <ele>876</ele>
        <time>2025-09-17T10:05:18Z</time>
      </trkpt>
      <trkpt lat="43.44128" lon="2.2101">
        <ele>873</ele>
        <time>2025-09-17T10:05:27Z</time>
      </trkpt>
      <trkpt lat="43.44102" lon="2.20972">
        <ele>870</ele>
        <time>2025-09-17T10:05:33Z</time>
      </trkpt>
      <trkpt lat="43.44061" lon="2.20922">
        <ele>866</ele>
        <time>2025-09-17T10:05:43Z</time>
      </trkpt>
      <trkpt lat="43.44026" lon="2.20873">
        <ele>862</ele>
        <time>2025-09-17T10:05:52Z</time>
      </trkpt>
      <trkpt lat="43.43991" lon="2.20817">
        <ele>860</ele>
        <time>2025-09-17T10:06:02Z</time>
      </trkpt>
      <trkpt lat="43.43972" lon="2.2079">
        <ele>858</ele>
        <time>2025-09-17T10:06:06Z</time>
      </trkpt>
      <trkpt lat="43.43942" lon="2.20759">
        <ele>856</ele>
        <time>2025-09-17T10:06:13Z</time>
      </trkpt>
      <trkpt lat="43.43913" lon="2.20733">
        <ele>854</ele>
        <time>2025-09-17T10:06:19Z</time>
      </trkpt>
      <trkpt lat="43.43876" lon="2.2068">
        <ele>855</ele>
        <time>2025-09-17T10:06:29Z</time>
      </trkpt>
      <trkpt lat="43.43864" lon="2.20669">
        <ele>856</ele>
        <time>2025-09-17T10:06:31Z</time>
      </trkpt>
      <trkpt lat="43.43809" lon="2.20628">
        <ele>856</ele>
        <time>2025-09-17T10:06:42Z</time>
      </trkpt>
      <trkpt lat="43.43792" lon="2.20613">
        <ele>858</ele>
        <time>2025-09-17T10:06:46Z</time>
      </trkpt>
      <trkpt lat="43.43775" lon="2.20607">
        <ele>859</ele>
        <time>2025-09-17T10:06:49Z</time>
      </trkpt>
      <trkpt lat="43.43761" lon="2.2061">
        <ele>859</ele>
        <time>2025-09-17T10:06:52Z</time>
      </trkpt>
      <trkpt lat="43.43708" lon="2.20638">
        <ele>862</ele>
        <time>2025-09-17T10:07:02Z</time>
      </trkpt>
      <trkpt lat="43.43655" lon="2.20678">
        <ele>865</ele>
        <time>2025-09-17T10:07:13Z</time>
      </trkpt>
      <trkpt lat="43.43591" lon="2.20749">
        <ele>862</ele>
        <time>2025-09-17T10:07:27Z</time>
      </trkpt>
      <trkpt lat="43.43571" lon="2.20768">
        <ele>860</ele>
        <time>2025-09-17T10:07:31Z</time>
      </trkpt>
      <trkpt lat="43.43547" lon="2.20778">
        <ele>859</ele>
        <time>2025-09-17T10:07:36Z</time>
      </trkpt>
      <trkpt lat="43.43523" lon="2.20777">
        <ele>860</ele>
        <time>2025-09-17T10:07:40Z</time>
      </trkpt>
      <trkpt lat="43.43491" lon="2.20763">
        <ele>866</ele>
        <time>2025-09-17T10:07:46Z</time>
      </trkpt>
      <trkpt lat="43.43455" lon="2.2075">
        <ele>868</ele>
        <time>2025-09-17T10:07:53Z</time>
      </trkpt>
      <trkpt lat="43.43419" lon="2.20747">
        <ele>867</ele>
        <time>2025-09-17T10:07:59Z</time>
      </trkpt>
      <trkpt lat="43.43382" lon="2.20758">
        <ele>864</ele>
        <time>2025-09-17T10:08:06Z</time>
      </trkpt>
      <trkpt lat="43.43352" lon="2.2077">
        <ele>862</ele>
        <time>2025-09-17T10:08:11Z</time>
      </trkpt>
      <trkpt lat="43.43308" lon="2.20771">
        <ele>860</ele>
        <time>2025-09-17T10:08:19Z</time>
      </trkpt>
      <trkpt lat="43.43293" lon="2.20764">
        <ele>862</ele>
        <time>2025-09-17T10:08:22Z</time>
      </trkpt>
      <trkpt lat="43.4325" lon="2.20735">
        <ele>865</ele>
        <time>2025-09-17T10:08:31Z</time>
      </trkpt>
      <trkpt lat="43.43239" lon="2.20721">
        <ele>867</ele>
        <time>2025-09-17T10:08:33Z</time>
      </trkpt>
      <trkpt lat="43.43226" lon="2.20699">
        <ele>870</ele>
        <time>2025-09-17T10:08:37Z</time>
      </trkpt>
      <trkpt lat="43.43215" lon="2.20684">
        <ele>871</ele>
        <time>2025-09-17T10:08:40Z</time>
      </trkpt>
      <trkpt lat="43.43199" lon="2.2067">
        <ele>871</ele>
        <time>2025-09-17T10:08:43Z</time>
      </trkpt>
      <trkpt lat="43.43182" lon="2.20663">
        <ele>869</ele>
        <time>2025-09-17T10:08:46Z</time>
      </trkpt>
      <trkpt lat="43.43167" lon="2.20663">
        <ele>867</ele>
        <time>2025-09-17T10:08:49Z</time>
      </trkpt>
      <trkpt lat="43.43151" lon="2.20671">
        <ele>868</ele>
        <time>2025-09-17T10:08:52Z</time>
      </trkpt>
      <trkpt lat="43.43068" lon="2.20751">
        <ele>875</ele>
        <time>2025-09-17T10:09:10Z</time>
      </trkpt>
      <trkpt lat="43.43028" lon="2.20773">
        <ele>875</ele>
        <time>2025-09-17T10:09:18Z</time>
      </trkpt>
      <trkpt lat="43.43004" lon="2.20772">
        <ele>876</ele>
        <time>2025-09-17T10:09:22Z</time>
      </trkpt>
      <trkpt lat="43.43003" lon="2.20772">
        <ele>876</ele>
        <time>2025-09-17T10:09:22Z</time>
      </trkpt>
      <trkpt lat="43.42977" lon="2.2078">
        <ele>873</ele>
        <time>2025-09-17T10:09:27Z</time>
      </trkpt>
      <trkpt lat="43.42914" lon="2.20785">
        <ele>868</ele>
        <time>2025-09-17T10:09:38Z</time>
      </trkpt>
      <trkpt lat="43.42856" lon="2.20784">
        <ele>864</ele>
        <time>2025-09-17T10:09:48Z</time>
      </trkpt>
      <trkpt lat="43.4283" lon="2.20788">
        <ele>863</ele>
        <time>2025-09-17T10:09:53Z</time>
      </trkpt>
      <trkpt lat="43.42793" lon="2.20799">
        <ele>862</ele>
        <time>2025-09-17T10:10:00Z</time>
      </trkpt>
      <trkpt lat="43.42783" lon="2.20808">
        <ele>861</ele>
        <time>2025-09-17T10:10:02Z</time>
      </trkpt>
      <trkpt lat="43.42773" lon="2.20795">
        <ele>862</ele>
        <time>2025-09-17T10:10:04Z</time>
      </trkpt>
      <trkpt lat="43.42773" lon="2.20793">
        <ele>862</ele>
        <time>2025-09-17T10:10:05Z</time>
      </trkpt>
      <trkpt lat="43.4277" lon="2.2078">
        <ele>862</ele>
        <time>2025-09-17T10:10:06Z</time>
      </trkpt>
      <trkpt lat="43.4277" lon="2.20761">
        <ele>863</ele>
        <time>2025-09-17T10:10:09Z</time>
      </trkpt>
      <trkpt lat="43.42776" lon="2.20735">
        <ele>862</ele>
        <time>2025-09-17T10:10:12Z</time>
      </trkpt>
      <trkpt lat="43.42786" lon="2.20722">
        <ele>862</ele>
        <time>2025-09-17T10:10:15Z</time>
      </trkpt>
      <trkpt lat="43.42793" lon="2.20701">
        <ele>861</ele>
        <time>2025-09-17T10:10:18Z</time>
      </trkpt>
      <trkpt lat="43.42794" lon="2.20664">
        <ele>859</ele>
        <time>2025-09-17T10:10:23Z</time>
      </trkpt>
      <trkpt lat="43.42805" lon="2.20631">
        <ele>857</ele>
        <time>2025-09-17T10:10:27Z</time>
      </trkpt>
      <trkpt lat="43.42816" lon="2.20588">
        <ele>852</ele>
        <time>2025-09-17T10:10:33Z</time>
      </trkpt>
      <trkpt lat="43.42843" lon="2.20529">
        <ele>849</ele>
        <time>2025-09-17T10:10:42Z</time>
      </trkpt>
      <trkpt lat="43.42859" lon="2.20489">
        <ele>846</ele>
        <time>2025-09-17T10:10:48Z</time>
      </trkpt>
      <trkpt lat="43.42874" lon="2.20406">
        <ele>840</ele>
        <time>2025-09-17T10:10:59Z</time>
      </trkpt>
      <trkpt lat="43.42814" lon="2.20223">
        <ele>830</ele>
        <time>2025-09-17T10:11:25Z</time>
      </trkpt>
      <trkpt lat="43.42833" lon="2.2021">
        <ele>831</ele>
        <time>2025-09-17T10:11:29Z</time>
      </trkpt>
      <trkpt lat="43.42857" lon="2.20188">
        <ele>831</ele>
        <time>2025-09-17T10:11:34Z</time>
      </trkpt>
      <trkpt lat="43.42884" lon="2.20169">
        <ele>830</ele>
        <time>2025-09-17T10:11:39Z</time>
      </trkpt>
      <trkpt lat="43.42907" lon="2.20164">
        <ele>829</ele>
        <time>2025-09-17T10:11:44Z</time>
      </trkpt>
      <trkpt lat="43.42976" lon="2.2017">
        <ele>822</ele>
        <time>2025-09-17T10:11:56Z</time>
      </trkpt>
      <trkpt lat="43.43006" lon="2.20168">
        <ele>820</ele>
        <time>2025-09-17T10:12:01Z</time>
      </trkpt>
      <trkpt lat="43.43033" lon="2.20159">
        <ele>821</ele>
        <time>2025-09-17T10:12:06Z</time>
      </trkpt>
      <trkpt lat="43.43053" lon="2.20141">
        <ele>821</ele>
        <time>2025-09-17T10:12:10Z</time>
      </trkpt>
      <trkpt lat="43.43087" lon="2.20078">
        <ele>818</ele>
        <time>2025-09-17T10:12:21Z</time>
      </trkpt>
      <trkpt lat="43.43115" lon="2.20042">
        <ele>817</ele>
        <time>2025-09-17T10:12:27Z</time>
      </trkpt>
      <trkpt lat="43.43162" lon="2.19996">
        <ele>808</ele>
        <time>2025-09-17T10:12:38Z</time>
      </trkpt>
      <trkpt lat="43.43179" lon="2.19981">
        <ele>807</ele>
        <time>2025-09-17T10:12:41Z</time>
      </trkpt>
      <trkpt lat="43.43208" lon="2.19962">
        <ele>806</ele>
        <time>2025-09-17T10:12:47Z</time>
      </trkpt>
      <trkpt lat="43.4326" lon="2.19938">
        <ele>803</ele>
        <time>2025-09-17T10:12:57Z</time>
      </trkpt>
      <trkpt lat="43.43287" lon="2.19918">
        <ele>803</ele>
        <time>2025-09-17T10:13:02Z</time>
      </trkpt>
      <trkpt lat="43.433" lon="2.19901">
        <ele>803</ele>
        <time>2025-09-17T10:13:05Z</time>
      </trkpt>
      <trkpt lat="43.43307" lon="2.19882">
        <ele>801</ele>
        <time>2025-09-17T10:13:08Z</time>
      </trkpt>
      <trkpt lat="43.43321" lon="2.19827">
        <ele>795</ele>
        <time>2025-09-17T10:13:16Z</time>
      </trkpt>
      <trkpt lat="43.43341" lon="2.19668">
        <ele>782</ele>
        <time>2025-09-17T10:13:36Z</time>
      </trkpt>
      <trkpt lat="43.43341" lon="2.19603">
        <ele>777</ele>
        <time>2025-09-17T10:13:45Z</time>
      </trkpt>
      <trkpt lat="43.43344" lon="2.19591">
        <ele>777</ele>
        <time>2025-09-17T10:13:46Z</time>
      </trkpt>
      <trkpt lat="43.4335" lon="2.19581">
        <ele>776</ele>
        <time>2025-09-17T10:13:48Z</time>
      </trkpt>
      <trkpt lat="43.43373" lon="2.19563">
        <ele>773</ele>
        <time>2025-09-17T10:13:53Z</time>
      </trkpt>
      <trkpt lat="43.43397" lon="2.19546">
        <ele>770</ele>
        <time>2025-09-17T10:13:58Z</time>
      </trkpt>
      <trkpt lat="43.43412" lon="2.19543">
        <ele>769</ele>
        <time>2025-09-17T10:14:00Z</time>
      </trkpt>
      <trkpt lat="43.4344" lon="2.19551">
        <ele>772</ele>
        <time>2025-09-17T10:14:05Z</time>
      </trkpt>
      <trkpt lat="43.43455" lon="2.19551">
        <ele>772</ele>
        <time>2025-09-17T10:14:08Z</time>
      </trkpt>
      <trkpt lat="43.4347" lon="2.19541">
        <ele>770</ele>
        <time>2025-09-17T10:14:11Z</time>
      </trkpt>
      <trkpt lat="43.43507" lon="2.19505">
        <ele>764</ele>
        <time>2025-09-17T10:14:19Z</time>
      </trkpt>
      <trkpt lat="43.43534" lon="2.19469">
        <ele>758</ele>
        <time>2025-09-17T10:14:26Z</time>
      </trkpt>
      <trkpt lat="43.4356" lon="2.19445">
        <ele>754</ele>
        <time>2025-09-17T10:14:31Z</time>
      </trkpt>
      <trkpt lat="43.43618" lon="2.19404">
        <ele>747</ele>
        <time>2025-09-17T10:14:43Z</time>
      </trkpt>
      <trkpt lat="43.43651" lon="2.19398">
        <ele>747</ele>
        <time>2025-09-17T10:14:49Z</time>
      </trkpt>
      <trkpt lat="43.43673" lon="2.19399">
        <ele>747</ele>
        <time>2025-09-17T10:14:53Z</time>
      </trkpt>
      <trkpt lat="43.4371" lon="2.1941">
        <ele>746</ele>
        <time>2025-09-17T10:15:00Z</time>
      </trkpt>
      <trkpt lat="43.43743" lon="2.19426">
        <ele>745</ele>
        <time>2025-09-17T10:15:06Z</time>
      </trkpt>
      <trkpt lat="43.43791" lon="2.19444">
        <ele>741</ele>
        <time>2025-09-17T10:15:15Z</time>
      </trkpt>
      <trkpt lat="43.43823" lon="2.1945">
        <ele>736</ele>
        <time>2025-09-17T10:15:20Z</time>
      </trkpt>
      <trkpt lat="43.43864" lon="2.19451">
        <ele>732</ele>
        <time>2025-09-17T10:15:28Z</time>
      </trkpt>
      <trkpt lat="43.43892" lon="2.19447">
        <ele>728</ele>
        <time>2025-09-17T10:15:33Z</time>
      </trkpt>
      <trkpt lat="43.43978" lon="2.19412">
        <ele>721</ele>
        <time>2025-09-17T10:15:49Z</time>
      </trkpt>
      <trkpt lat="43.44013" lon="2.19405">
        <ele>720</ele>
        <time>2025-09-17T10:15:55Z</time>
      </trkpt>
      <trkpt lat="43.44014" lon="2.19329">
        <ele>718</ele>
        <time>2025-09-17T10:16:05Z</time>
      </trkpt>
      <trkpt lat="43.44" lon="2.19214">
        <ele>710</ele>
        <time>2025-09-17T10:16:20Z</time>
      </trkpt>
      <trkpt lat="43.43993" lon="2.19134">
        <ele>704</ele>
        <time>2025-09-17T10:16:30Z</time>
      </trkpt>
      <trkpt lat="43.43988" lon="2.19096">
        <ele>700</ele>
        <time>2025-09-17T10:16:35Z</time>
      </trkpt>
      <trkpt lat="43.43974" lon="2.19024">
        <ele>695</ele>
        <time>2025-09-17T10:16:45Z</time>
      </trkpt>
      <trkpt lat="43.43954" lon="2.18976">
        <ele>693</ele>
        <time>2025-09-17T10:16:52Z</time>
      </trkpt>
      <trkpt lat="43.43911" lon="2.18915">
        <ele>692</ele>
        <time>2025-09-17T10:17:03Z</time>
      </trkpt>
      <trkpt lat="43.43902" lon="2.18895">
        <ele>692</ele>
        <time>2025-09-17T10:17:06Z</time>
      </trkpt>
      <trkpt lat="43.43899" lon="2.18876">
        <ele>692</ele>
        <time>2025-09-17T10:17:09Z</time>
      </trkpt>
      <trkpt lat="43.43898" lon="2.18851">
        <ele>692</ele>
        <time>2025-09-17T10:17:12Z</time>
      </trkpt>
      <trkpt lat="43.43903" lon="2.18792">
        <ele>689</ele>
        <time>2025-09-17T10:17:19Z</time>
      </trkpt>
      <trkpt lat="43.439" lon="2.18767">
        <ele>687</ele>
        <time>2025-09-17T10:17:23Z</time>
      </trkpt>
      <trkpt lat="43.43894" lon="2.18739">
        <ele>686</ele>
        <time>2025-09-17T10:17:26Z</time>
      </trkpt>
      <trkpt lat="43.43881" lon="2.18709">
        <ele>685</ele>
        <time>2025-09-17T10:17:31Z</time>
      </trkpt>
      <trkpt lat="43.43866" lon="2.18682">
        <ele>683</ele>
        <time>2025-09-17T10:17:35Z</time>
      </trkpt>
      <trkpt lat="43.43851" lon="2.18633">
        <ele>683</ele>
        <time>2025-09-17T10:17:42Z</time>
      </trkpt>
      <trkpt lat="43.43838" lon="2.18617">
        <ele>683</ele>
        <time>2025-09-17T10:17:45Z</time>
      </trkpt>
      <trkpt lat="43.43825" lon="2.18612">
        <ele>683</ele>
        <time>2025-09-17T10:17:48Z</time>
      </trkpt>
      <trkpt lat="43.43784" lon="2.18589">
        <ele>681</ele>
        <time>2025-09-17T10:17:56Z</time>
      </trkpt>
      <trkpt lat="43.43732" lon="2.18548">
        <ele>682</ele>
        <time>2025-09-17T10:18:06Z</time>
      </trkpt>
      <trkpt lat="43.43698" lon="2.18476">
        <ele>681</ele>
        <time>2025-09-17T10:18:17Z</time>
      </trkpt>
      <trkpt lat="43.43663" lon="2.18381">
        <ele>681</ele>
        <time>2025-09-17T10:18:31Z</time>
      </trkpt>
      <trkpt lat="43.4364" lon="2.18344">
        <ele>682</ele>
        <time>2025-09-17T10:18:37Z</time>
      </trkpt>
      <trkpt lat="43.43621" lon="2.18292">
        <ele>680</ele>
        <time>2025-09-17T10:18:45Z</time>
      </trkpt>
      <trkpt lat="43.43608" lon="2.18226">
        <ele>677</ele>
        <time>2025-09-17T10:18:54Z</time>
      </trkpt>
      <trkpt lat="43.43593" lon="2.18175">
        <ele>674</ele>
        <time>2025-09-17T10:19:01Z</time>
      </trkpt>
      <trkpt lat="43.43582" lon="2.18148">
        <ele>672</ele>
        <time>2025-09-17T10:19:05Z</time>
      </trkpt>
      <trkpt lat="43.43564" lon="2.18092">
        <ele>671</ele>
        <time>2025-09-17T10:19:13Z</time>
      </trkpt>
      <trkpt lat="43.4356" lon="2.18015">
        <ele>667</ele>
        <time>2025-09-17T10:19:23Z</time>
      </trkpt>
      <trkpt lat="43.43541" lon="2.17984">
        <ele>667</ele>
        <time>2025-09-17T10:19:28Z</time>
      </trkpt>
      <trkpt lat="43.43509" lon="2.17977">
        <ele>667</ele>
        <time>2025-09-17T10:19:34Z</time>
      </trkpt>
      <trkpt lat="43.43482" lon="2.17963">
        <ele>668</ele>
        <time>2025-09-17T10:19:39Z</time>
      </trkpt>
      <trkpt lat="43.43455" lon="2.17931">
        <ele>668</ele>
        <time>2025-09-17T10:19:45Z</time>
      </trkpt>
      <trkpt lat="43.43437" lon="2.17903">
        <ele>669</ele>
        <time>2025-09-17T10:19:50Z</time>
      </trkpt>
      <trkpt lat="43.43427" lon="2.17882">
        <ele>670</ele>
        <time>2025-09-17T10:19:53Z</time>
      </trkpt>
      <trkpt lat="43.434" lon="2.17839">
        <ele>672</ele>
        <time>2025-09-17T10:20:01Z</time>
      </trkpt>
      <trkpt lat="43.43391" lon="2.17808">
        <ele>674</ele>
        <time>2025-09-17T10:20:05Z</time>
      </trkpt>
      <trkpt lat="43.43358" lon="2.17743">
        <ele>676</ele>
        <time>2025-09-17T10:20:15Z</time>
      </trkpt>
      <trkpt lat="43.43315" lon="2.17671">
        <ele>679</ele>
        <time>2025-09-17T10:20:27Z</time>
      </trkpt>
      <trkpt lat="43.43279" lon="2.17596">
        <ele>678</ele>
        <time>2025-09-17T10:20:39Z</time>
      </trkpt>
      <trkpt lat="43.43246" lon="2.17512">
        <ele>677</ele>
        <time>2025-09-17T10:20:51Z</time>
      </trkpt>
      <trkpt lat="43.43193" lon="2.17397">
        <ele>673</ele>
        <time>2025-09-17T10:21:09Z</time>
      </trkpt>
      <trkpt lat="43.43178" lon="2.17356">
        <ele>672</ele>
        <time>2025-09-17T10:21:15Z</time>
      </trkpt>
      <trkpt lat="43.43111" lon="2.1723">
        <ele>666</ele>
        <time>2025-09-17T10:21:35Z</time>
      </trkpt>
      <trkpt lat="43.43084" lon="2.17195">
        <ele>665</ele>
        <time>2025-09-17T10:21:42Z</time>
      </trkpt>
      <trkpt lat="43.43067" lon="2.17158">
        <ele>664</ele>
        <time>2025-09-17T10:21:47Z</time>
      </trkpt>
      <trkpt lat="43.43071" lon="2.17146">
        <ele>664</ele>
        <time>2025-09-17T10:21:49Z</time>
      </trkpt>
      <trkpt lat="43.4307" lon="2.17127">
        <ele>664</ele>
        <time>2025-09-17T10:21:51Z</time>
      </trkpt>
      <trkpt lat="43.43043" lon="2.17014">
        <ele>662</ele>
        <time>2025-09-17T10:22:07Z</time>
      </trkpt>
      <trkpt lat="43.43048" lon="2.16995">
        <ele>662</ele>
        <time>2025-09-17T10:22:09Z</time>
      </trkpt>
      <trkpt lat="43.43055" lon="2.16981">
        <ele>662</ele>
        <time>2025-09-17T10:22:12Z</time>
      </trkpt>
      <trkpt lat="43.43074" lon="2.16957">
        <ele>662</ele>
        <time>2025-09-17T10:22:16Z</time>
      </trkpt>
      <trkpt lat="43.43052" lon="2.16918">
        <ele>662</ele>
        <time>2025-09-17T10:22:23Z</time>
      </trkpt>
      <trkpt lat="43.43014" lon="2.1686">
        <ele>663</ele>
        <time>2025-09-17T10:22:33Z</time>
      </trkpt>
      <trkpt lat="43.43007" lon="2.16845">
        <ele>663</ele>
        <time>2025-09-17T10:22:35Z</time>
      </trkpt>
      <trkpt lat="43.43002" lon="2.16828">
        <ele>663</ele>
        <time>2025-09-17T10:22:37Z</time>
      </trkpt>
      <trkpt lat="43.43" lon="2.16798">
        <ele>664</ele>
        <time>2025-09-17T10:22:41Z</time>
      </trkpt>
      <trkpt lat="43.43005" lon="2.1677">
        <ele>664</ele>
        <time>2025-09-17T10:22:45Z</time>
      </trkpt>
      <trkpt lat="43.43007" lon="2.16673">
        <ele>665</ele>
        <time>2025-09-17T10:22:57Z</time>
      </trkpt>
      <trkpt lat="43.43011" lon="2.1665">
        <ele>665</ele>
        <time>2025-09-17T10:23:01Z</time>
      </trkpt>
      <trkpt lat="43.43023" lon="2.16599">
        <ele>664</ele>
        <time>2025-09-17T10:23:07Z</time>
      </trkpt>
      <trkpt lat="43.43039" lon="2.16568">
        <ele>663</ele>
        <time>2025-09-17T10:23:12Z</time>
      </trkpt>
      <trkpt lat="43.4305" lon="2.16518">
        <ele>661</ele>
        <time>2025-09-17T10:23:19Z</time>
      </trkpt>
      <trkpt lat="43.4304" lon="2.16506">
        <ele>660</ele>
        <time>2025-09-17T10:23:21Z</time>
      </trkpt>
      <trkpt lat="43.4302" lon="2.16473">
        <ele>658</ele>
        <time>2025-09-17T10:23:27Z</time>
      </trkpt>
      <trkpt lat="43.43004" lon="2.16437">
        <ele>654</ele>
        <time>2025-09-17T10:23:32Z</time>
      </trkpt>
      <trkpt lat="43.4296" lon="2.16321">
        <ele>646</ele>
        <time>2025-09-17T10:23:49Z</time>
      </trkpt>
      <trkpt lat="43.42947" lon="2.16307">
        <ele>645</ele>
        <time>2025-09-17T10:23:52Z</time>
      </trkpt>
      <trkpt lat="43.42932" lon="2.163">
        <ele>643</ele>
        <time>2025-09-17T10:23:55Z</time>
      </trkpt>
      <trkpt lat="43.42915" lon="2.16299">
        <ele>642</ele>
        <time>2025-09-17T10:23:58Z</time>
      </trkpt>
      <trkpt lat="43.42905" lon="2.16287">
        <ele>643</ele>
        <time>2025-09-17T10:24:01Z</time>
      </trkpt>
      <trkpt lat="43.42906" lon="2.16282">
        <ele>642</ele>
        <time>2025-09-17T10:24:01Z</time>
      </trkpt>
      <trkpt lat="43.42913" lon="2.16273">
        <ele>641</ele>
        <time>2025-09-17T10:24:03Z</time>
      </trkpt>
      <trkpt lat="43.42912" lon="2.16256">
        <ele>640</ele>
        <time>2025-09-17T10:24:05Z</time>
      </trkpt>
      <trkpt lat="43.42906" lon="2.16241">
        <ele>642</ele>
        <time>2025-09-17T10:24:07Z</time>
      </trkpt>
      <trkpt lat="43.42898" lon="2.16199">
        <ele>651</ele>
        <time>2025-09-17T10:24:13Z</time>
      </trkpt>
      <trkpt lat="43.42898" lon="2.16181">
        <ele>655</ele>
        <time>2025-09-17T10:24:15Z</time>
      </trkpt>
      <trkpt lat="43.42864" lon="2.16132">
        <ele>660</ele>
        <time>2025-09-17T10:24:24Z</time>
      </trkpt>
      <trkpt lat="43.42852" lon="2.16102">
        <ele>666</ele>
        <time>2025-09-17T10:24:28Z</time>
      </trkpt>
      <trkpt lat="43.42837" lon="2.16048">
        <ele>675</ele>
        <time>2025-09-17T10:24:36Z</time>
      </trkpt>
      <trkpt lat="43.42807" lon="2.1601">
        <ele>681</ele>
        <time>2025-09-17T10:24:43Z</time>
      </trkpt>
      <trkpt lat="43.42792" lon="2.15981">
        <ele>685</ele>
        <time>2025-09-17T10:24:48Z</time>
      </trkpt>
      <trkpt lat="43.4279" lon="2.15971">
        <ele>686</ele>
        <time>2025-09-17T10:24:49Z</time>
      </trkpt>
      <trkpt lat="43.42795" lon="2.1594">
        <ele>690</ele>
        <time>2025-09-17T10:24:53Z</time>
      </trkpt>
      <trkpt lat="43.42841" lon="2.15843">
        <ele>696</ele>
        <time>2025-09-17T10:25:08Z</time>
      </trkpt>
      <trkpt lat="43.42843" lon="2.1583">
        <ele>696</ele>
        <time>2025-09-17T10:25:10Z</time>
      </trkpt>
      <trkpt lat="43.42844" lon="2.15767">
        <ele>700</ele>
        <time>2025-09-17T10:25:18Z</time>
      </trkpt>
      <trkpt lat="43.42859" lon="2.15732">
        <ele>701</ele>
        <time>2025-09-17T10:25:23Z</time>
      </trkpt>
      <trkpt lat="43.42861" lon="2.15723">
        <ele>701</ele>
        <time>2025-09-17T10:25:25Z</time>
      </trkpt>
      <trkpt lat="43.42861" lon="2.15712">
        <ele>702</ele>
        <time>2025-09-17T10:25:26Z</time>
      </trkpt>
      <trkpt lat="43.42824" lon="2.15647">
        <ele>705</ele>
        <time>2025-09-17T10:25:37Z</time>
      </trkpt>
      <trkpt lat="43.42803" lon="2.15625">
        <ele>704</ele>
        <time>2025-09-17T10:25:41Z</time>
      </trkpt>
      <trkpt lat="43.42743" lon="2.15602">
        <ele>695</ele>
        <time>2025-09-17T10:25:52Z</time>
      </trkpt>
      <trkpt lat="43.42695" lon="2.15574">
        <ele>696</ele>
        <time>2025-09-17T10:26:02Z</time>
      </trkpt>
      <trkpt lat="43.42648" lon="2.15568">
        <ele>694</ele>
        <time>2025-09-17T10:26:10Z</time>
      </trkpt>
      <trkpt lat="43.42504" lon="2.15576">
        <ele>686</ele>
        <time>2025-09-17T10:26:36Z</time>
      </trkpt>
      <trkpt lat="43.4247" lon="2.1555">
        <ele>686</ele>
        <time>2025-09-17T10:26:43Z</time>
      </trkpt>
      <trkpt lat="43.42419" lon="2.1549">
        <ele>685</ele>
        <time>2025-09-17T10:26:55Z</time>
      </trkpt>
      <trkpt lat="43.42262" lon="2.15384">
        <ele>674</ele>
        <time>2025-09-17T10:27:26Z</time>
      </trkpt>
      <trkpt lat="43.42146" lon="2.15276">
        <ele>664</ele>
        <time>2025-09-17T10:27:51Z</time>
      </trkpt>
      <trkpt lat="43.42138" lon="2.15259">
        <ele>663</ele>
        <time>2025-09-17T10:27:53Z</time>
      </trkpt>
      <trkpt lat="43.42126" lon="2.15176">
        <ele>659</ele>
        <time>2025-09-17T10:28:04Z</time>
      </trkpt>
      <trkpt lat="43.42124" lon="2.15166">
        <ele>658</ele>
        <time>2025-09-17T10:28:05Z</time>
      </trkpt>
      <trkpt lat="43.4212" lon="2.1516">
        <ele>657</ele>
        <time>2025-09-17T10:28:07Z</time>
      </trkpt>
      <trkpt lat="43.42115" lon="2.15156">
        <ele>657</ele>
        <time>2025-09-17T10:28:08Z</time>
      </trkpt>
      <trkpt lat="43.42035" lon="2.15121">
        <ele>651</ele>
        <time>2025-09-17T10:28:23Z</time>
      </trkpt>
      <trkpt lat="43.42029" lon="2.15114">
        <ele>650</ele>
        <time>2025-09-17T10:28:24Z</time>
      </trkpt>
      <trkpt lat="43.42024" lon="2.15095">
        <ele>649</ele>
        <time>2025-09-17T10:28:27Z</time>
      </trkpt>
      <trkpt lat="43.42024" lon="2.15076">
        <ele>648</ele>
        <time>2025-09-17T10:28:29Z</time>
      </trkpt>
      <trkpt lat="43.42017" lon="2.15042">
        <ele>648</ele>
        <time>2025-09-17T10:28:34Z</time>
      </trkpt>
      <trkpt lat="43.41996" lon="2.15012">
        <ele>648</ele>
        <time>2025-09-17T10:28:39Z</time>
      </trkpt>
      <trkpt lat="43.4196" lon="2.14976">
        <ele>648</ele>
        <time>2025-09-17T10:28:47Z</time>
      </trkpt>
      <trkpt lat="43.4194" lon="2.14965">
        <ele>647</ele>
        <time>2025-09-17T10:28:51Z</time>
      </trkpt>
      <trkpt lat="43.4192" lon="2.1495">
        <ele>646</ele>
        <time>2025-09-17T10:28:55Z</time>
      </trkpt>
      <trkpt lat="43.41899" lon="2.1493">
        <ele>646</ele>
        <time>2025-09-17T10:28:59Z</time>
      </trkpt>
      <trkpt lat="43.41874" lon="2.14894">
        <ele>646</ele>
        <time>2025-09-17T10:29:06Z</time>
      </trkpt>
      <trkpt lat="43.41773" lon="2.14778">
        <ele>648</ele>
        <time>2025-09-17T10:29:29Z</time>
      </trkpt>
      <trkpt lat="43.41745" lon="2.14761">
        <ele>649</ele>
        <time>2025-09-17T10:29:35Z</time>
      </trkpt>
      <trkpt lat="43.41676" lon="2.14746">
        <ele>651</ele>
        <time>2025-09-17T10:29:47Z</time>
      </trkpt>
      <trkpt lat="43.4155" lon="2.14653">
        <ele>652</ele>
        <time>2025-09-17T10:30:12Z</time>
      </trkpt>
      <trkpt lat="43.41509" lon="2.14617">
        <ele>651</ele>
        <time>2025-09-17T10:30:21Z</time>
      </trkpt>
      <trkpt lat="43.41501" lon="2.146">
        <ele>651</ele>
        <time>2025-09-17T10:30:24Z</time>
      </trkpt>
      <trkpt lat="43.41496" lon="2.14583">
        <ele>650</ele>
        <time>2025-09-17T10:30:26Z</time>
      </trkpt>
      <trkpt lat="43.41485" lon="2.14518">
        <ele>648</ele>
        <time>2025-09-17T10:30:35Z</time>
      </trkpt>
      <trkpt lat="43.4147" lon="2.14484">
        <ele>647</ele>
        <time>2025-09-17T10:30:40Z</time>
      </trkpt>
      <trkpt lat="43.41439" lon="2.14434">
        <ele>644</ele>
        <time>2025-09-17T10:30:48Z</time>
      </trkpt>
      <trkpt lat="43.41432" lon="2.14412">
        <ele>643</ele>
        <time>2025-09-17T10:30:51Z</time>
      </trkpt>
      <trkpt lat="43.41424" lon="2.14376">
        <ele>642</ele>
        <time>2025-09-17T10:30:56Z</time>
      </trkpt>
      <trkpt lat="43.41412" lon="2.14338">
        <ele>640</ele>
        <time>2025-09-17T10:31:02Z</time>
      </trkpt>
      <trkpt lat="43.41407" lon="2.14316">
        <ele>639</ele>
        <time>2025-09-17T10:31:05Z</time>
      </trkpt>
      <trkpt lat="43.41395" lon="2.14222">
        <ele>637</ele>
        <time>2025-09-17T10:31:17Z</time>
      </trkpt>
      <trkpt lat="43.41382" lon="2.14145">
        <ele>633</ele>
        <time>2025-09-17T10:31:27Z</time>
      </trkpt>
      <trkpt lat="43.41354" lon="2.14061">
        <ele>630</ele>
        <time>2025-09-17T10:31:39Z</time>
      </trkpt>
      <trkpt lat="43.41309" lon="2.13965">
        <ele>630</ele>
        <time>2025-09-17T10:31:54Z</time>
      </trkpt>
      <trkpt lat="43.41185" lon="2.13838">
        <ele>629</ele>
        <time>2025-09-17T10:32:21Z</time>
      </trkpt>
      <trkpt lat="43.40964" lon="2.13651">
        <ele>642</ele>
        <time>2025-09-17T10:33:08Z</time>
      </trkpt>
      <trkpt lat="43.40889" lon="2.13641">
        <ele>641</ele>
        <time>2025-09-17T10:33:21Z</time>
      </trkpt>
      <trkpt lat="43.40747" lon="2.13658">
        <ele>644</ele>
        <time>2025-09-17T10:33:46Z</time>
      </trkpt>
      <trkpt lat="43.40734" lon="2.13658">
        <ele>644</ele>
        <time>2025-09-17T10:33:49Z</time>
      </trkpt>
      <trkpt lat="43.40723" lon="2.13664">
        <ele>643</ele>
        <time>2025-09-17T10:33:51Z</time>
      </trkpt>
      <trkpt lat="43.40717" lon="2.13673">
        <ele>643</ele>
        <time>2025-09-17T10:33:52Z</time>
      </trkpt>
      <trkpt lat="43.40691" lon="2.13742">
        <ele>639</ele>
        <time>2025-09-17T10:34:02Z</time>
      </trkpt>
      <trkpt lat="43.40681" lon="2.13759">
        <ele>638</ele>
        <time>2025-09-17T10:34:05Z</time>
      </trkpt>
      <trkpt lat="43.40618" lon="2.13838">
        <ele>630</ele>
        <time>2025-09-17T10:34:20Z</time>
      </trkpt>
      <trkpt lat="43.40599" lon="2.13855">
        <ele>628</ele>
        <time>2025-09-17T10:34:24Z</time>
      </trkpt>
      <trkpt lat="43.40586" lon="2.13862">
        <ele>628</ele>
        <time>2025-09-17T10:34:27Z</time>
      </trkpt>
      <trkpt lat="43.40578" lon="2.13863">
        <ele>628</ele>
        <time>2025-09-17T10:34:28Z</time>
      </trkpt>
      <trkpt lat="43.40564" lon="2.1386">
        <ele>628</ele>
        <time>2025-09-17T10:34:31Z</time>
      </trkpt>
      <trkpt lat="43.4056" lon="2.13855">
        <ele>628</ele>
        <time>2025-09-17T10:34:32Z</time>
      </trkpt>
      <trkpt lat="43.40556" lon="2.13842">
        <ele>628</ele>
        <time>2025-09-17T10:34:34Z</time>
      </trkpt>
      <trkpt lat="43.40543" lon="2.13718">
        <ele>623</ele>
        <time>2025-09-17T10:34:50Z</time>
      </trkpt>
      <trkpt lat="43.40543" lon="2.13707">
        <ele>622</ele>
        <time>2025-09-17T10:34:51Z</time>
      </trkpt>
      <trkpt lat="43.4055" lon="2.13675">
        <ele>621</ele>
        <time>2025-09-17T10:34:56Z</time>
      </trkpt>
      <trkpt lat="43.4055" lon="2.13664">
        <ele>620</ele>
        <time>2025-09-17T10:34:57Z</time>
      </trkpt>
      <trkpt lat="43.40543" lon="2.13634">
        <ele>620</ele>
        <time>2025-09-17T10:35:01Z</time>
      </trkpt>
      <trkpt lat="43.40533" lon="2.13602">
        <ele>618</ele>
        <time>2025-09-17T10:35:06Z</time>
      </trkpt>
      <trkpt lat="43.40528" lon="2.13578">
        <ele>618</ele>
        <time>2025-09-17T10:35:09Z</time>
      </trkpt>
      <trkpt lat="43.40528" lon="2.13566">
        <ele>618</ele>
        <time>2025-09-17T10:35:10Z</time>
      </trkpt>
      <trkpt lat="43.40524" lon="2.13559">
        <ele>617</ele>
        <time>2025-09-17T10:35:11Z</time>
      </trkpt>
      <trkpt lat="43.4052" lon="2.13559">
        <ele>616</ele>
        <time>2025-09-17T10:35:12Z</time>
      </trkpt>
      <trkpt lat="43.40511" lon="2.13566">
        <ele>614</ele>
        <time>2025-09-17T10:35:14Z</time>
      </trkpt>
      <trkpt lat="43.40494" lon="2.13585">
        <ele>610</ele>
        <time>2025-09-17T10:35:18Z</time>
      </trkpt>
      <trkpt lat="43.40477" lon="2.13593">
        <ele>607</ele>
        <time>2025-09-17T10:35:21Z</time>
      </trkpt>
      <trkpt lat="43.40468" lon="2.13593">
        <ele>606</ele>
        <time>2025-09-17T10:35:23Z</time>
      </trkpt>
      <trkpt lat="43.40457" lon="2.13587">
        <ele>604</ele>
        <time>2025-09-17T10:35:25Z</time>
      </trkpt>
      <trkpt lat="43.40438" lon="2.13563">
        <ele>601</ele>
        <time>2025-09-17T10:35:29Z</time>
      </trkpt>
      <trkpt lat="43.40438" lon="2.13546">
        <ele>600</ele>
        <time>2025-09-17T10:35:32Z</time>
      </trkpt>
      <trkpt lat="43.40453" lon="2.13525">
        <ele>602</ele>
        <time>2025-09-17T10:35:35Z</time>
      </trkpt>
      <trkpt lat="43.40472" lon="2.13486">
        <ele>606</ele>
        <time>2025-09-17T10:35:41Z</time>
      </trkpt>
      <trkpt lat="43.40475" lon="2.13475">
        <ele>606</ele>
        <time>2025-09-17T10:35:43Z</time>
      </trkpt>
      <trkpt lat="43.40475" lon="2.13456">
        <ele>605</ele>
        <time>2025-09-17T10:35:45Z</time>
      </trkpt>
      <trkpt lat="43.4046" lon="2.1342">
        <ele>599</ele>
        <time>2025-09-17T10:35:51Z</time>
      </trkpt>
      <trkpt lat="43.40444" lon="2.13365">
        <ele>592</ele>
        <time>2025-09-17T10:35:58Z</time>
      </trkpt>
      <trkpt lat="43.40447" lon="2.13333">
        <ele>592</ele>
        <time>2025-09-17T10:36:03Z</time>
      </trkpt>
      <trkpt lat="43.40452" lon="2.13315">
        <ele>593</ele>
        <time>2025-09-17T10:36:05Z</time>
      </trkpt>
      <trkpt lat="43.40452" lon="2.13309">
        <ele>594</ele>
        <time>2025-09-17T10:36:06Z</time>
      </trkpt>
      <trkpt lat="43.40449" lon="2.1331">
        <ele>593</ele>
        <time>2025-09-17T10:36:06Z</time>
      </trkpt>
      <trkpt lat="43.4044" lon="2.13319">
        <ele>591</ele>
        <time>2025-09-17T10:36:08Z</time>
      </trkpt>
      <trkpt lat="43.40434" lon="2.1333">
        <ele>589</ele>
        <time>2025-09-17T10:36:10Z</time>
      </trkpt>
      <trkpt lat="43.40421" lon="2.13364">
        <ele>586</ele>
        <time>2025-09-17T10:36:15Z</time>
      </trkpt>
      <trkpt lat="43.40412" lon="2.13381">
        <ele>585</ele>
        <time>2025-09-17T10:36:18Z</time>
      </trkpt>
      <trkpt lat="43.40405" lon="2.13404">
        <ele>585</ele>
        <time>2025-09-17T10:36:21Z</time>
      </trkpt>
      <trkpt lat="43.40393" lon="2.13412">
        <ele>584</ele>
        <time>2025-09-17T10:36:24Z</time>
      </trkpt>
      <trkpt lat="43.40371" lon="2.13418">
        <ele>582</ele>
        <time>2025-09-17T10:36:27Z</time>
      </trkpt>
      <trkpt lat="43.40355" lon="2.13415">
        <ele>581</ele>
        <time>2025-09-17T10:36:30Z</time>
      </trkpt>
      <trkpt lat="43.40349" lon="2.1341">
        <ele>580</ele>
        <time>2025-09-17T10:36:32Z</time>
      </trkpt>
      <trkpt lat="43.4033" lon="2.1336">
        <ele>578</ele>
        <time>2025-09-17T10:36:39Z</time>
      </trkpt>
      <trkpt lat="43.40322" lon="2.1335">
        <ele>580</ele>
        <time>2025-09-17T10:36:41Z</time>
      </trkpt>
      <trkpt lat="43.40315" lon="2.13347">
        <ele>582</ele>
        <time>2025-09-17T10:36:42Z</time>
      </trkpt>
      <trkpt lat="43.40303" lon="2.13324">
        <ele>585</ele>
        <time>2025-09-17T10:36:46Z</time>
      </trkpt>
      <trkpt lat="43.40287" lon="2.1329">
        <ele>587</ele>
        <time>2025-09-17T10:36:51Z</time>
      </trkpt>
      <trkpt lat="43.40282" lon="2.13275">
        <ele>587</ele>
        <time>2025-09-17T10:36:53Z</time>
      </trkpt>
      <trkpt lat="43.40271" lon="2.13259">
        <ele>587</ele>
        <time>2025-09-17T10:36:56Z</time>
      </trkpt>
      <trkpt lat="43.40247" lon="2.13237">
        <ele>588</ele>
        <time>2025-09-17T10:37:01Z</time>
      </trkpt>
      <trkpt lat="43.40236" lon="2.13231">
        <ele>590</ele>
        <time>2025-09-17T10:37:03Z</time>
      </trkpt>
      <trkpt lat="43.40217" lon="2.13224">
        <ele>593</ele>
        <time>2025-09-17T10:37:07Z</time>
      </trkpt>
      <trkpt lat="43.40209" lon="2.13219">
        <ele>594</ele>
        <time>2025-09-17T10:37:08Z</time>
      </trkpt>
      <trkpt lat="43.40196" lon="2.13206">
        <ele>595</ele>
        <time>2025-09-17T10:37:11Z</time>
      </trkpt>
      <trkpt lat="43.40154" lon="2.13172">
        <ele>596</ele>
        <time>2025-09-17T10:37:20Z</time>
      </trkpt>
      <trkpt lat="43.40087" lon="2.13125">
        <ele>597</ele>
        <time>2025-09-17T10:37:33Z</time>
      </trkpt>
      <trkpt lat="43.4007" lon="2.13118">
        <ele>597</ele>
        <time>2025-09-17T10:37:36Z</time>
      </trkpt>
      <trkpt lat="43.40036" lon="2.13109">
        <ele>600</ele>
        <time>2025-09-17T10:37:43Z</time>
      </trkpt>
      <trkpt lat="43.4003" lon="2.13099">
        <ele>598</ele>
        <time>2025-09-17T10:37:44Z</time>
      </trkpt>
      <trkpt lat="43.3997" lon="2.13052">
        <ele>597</ele>
        <time>2025-09-17T10:37:57Z</time>
      </trkpt>
      <trkpt lat="43.39962" lon="2.13048">
        <ele>597</ele>
        <time>2025-09-17T10:37:58Z</time>
      </trkpt>
      <trkpt lat="43.39943" lon="2.13045">
        <ele>600</ele>
        <time>2025-09-17T10:38:01Z</time>
      </trkpt>
      <trkpt lat="43.39937" lon="2.13041">
        <ele>601</ele>
        <time>2025-09-17T10:38:03Z</time>
      </trkpt>
      <trkpt lat="43.39933" lon="2.13036">
        <ele>601</ele>
        <time>2025-09-17T10:38:04Z</time>
      </trkpt>
      <trkpt lat="43.39928" lon="2.1302">
        <ele>600</ele>
        <time>2025-09-17T10:38:06Z</time>
      </trkpt>
      <trkpt lat="43.39921" lon="2.12988">
        <ele>599</ele>
        <time>2025-09-17T10:38:10Z</time>
      </trkpt>
      <trkpt lat="43.39903" lon="2.12921">
        <ele>601</ele>
        <time>2025-09-17T10:38:19Z</time>
      </trkpt>
      <trkpt lat="43.3988" lon="2.12853">
        <ele>599</ele>
        <time>2025-09-17T10:38:29Z</time>
      </trkpt>
      <trkpt lat="43.39873" lon="2.12833">
        <ele>598</ele>
        <time>2025-09-17T10:38:32Z</time>
      </trkpt>
      <trkpt lat="43.39865" lon="2.12784">
        <ele>601</ele>
        <time>2025-09-17T10:38:38Z</time>
      </trkpt>
      <trkpt lat="43.39862" lon="2.12756">
        <ele>602</ele>
        <time>2025-09-17T10:38:42Z</time>
      </trkpt>
      <trkpt lat="43.39862" lon="2.12692">
        <ele>603</ele>
        <time>2025-09-17T10:38:50Z</time>
      </trkpt>
      <trkpt lat="43.39864" lon="2.12656">
        <ele>603</ele>
        <time>2025-09-17T10:38:55Z</time>
      </trkpt>
      <trkpt lat="43.39864" lon="2.12628">
        <ele>604</ele>
        <time>2025-09-17T10:38:59Z</time>
      </trkpt>
      <trkpt lat="43.39868" lon="2.12615">
        <ele>603</ele>
        <time>2025-09-17T10:39:00Z</time>
      </trkpt>
      <trkpt lat="43.39873" lon="2.12602">
        <ele>602</ele>
        <time>2025-09-17T10:39:02Z</time>
      </trkpt>
      <trkpt lat="43.39891" lon="2.12571">
        <ele>598</ele>
        <time>2025-09-17T10:39:08Z</time>
      </trkpt>
      <trkpt lat="43.39898" lon="2.12555">
        <ele>595</ele>
        <time>2025-09-17T10:39:10Z</time>
      </trkpt>
      <trkpt lat="43.39904" lon="2.12531">
        <ele>593</ele>
        <time>2025-09-17T10:39:13Z</time>
      </trkpt>
      <trkpt lat="43.39911" lon="2.12494">
        <ele>589</ele>
        <time>2025-09-17T10:39:18Z</time>
      </trkpt>
      <trkpt lat="43.39913" lon="2.12473">
        <ele>587</ele>
        <time>2025-09-17T10:39:21Z</time>
      </trkpt>
      <trkpt lat="43.39905" lon="2.12453">
        <ele>586</ele>
        <time>2025-09-17T10:39:24Z</time>
      </trkpt>
      <trkpt lat="43.39891" lon="2.1245">
        <ele>588</ele>
        <time>2025-09-17T10:39:26Z</time>
      </trkpt>
      <trkpt lat="43.39874" lon="2.12453">
        <ele>591</ele>
        <time>2025-09-17T10:39:29Z</time>
      </trkpt>
      <trkpt lat="43.39853" lon="2.12454">
        <ele>595</ele>
        <time>2025-09-17T10:39:33Z</time>
      </trkpt>
      <trkpt lat="43.39819" lon="2.12438">
        <ele>599</ele>
        <time>2025-09-17T10:39:40Z</time>
      </trkpt>
      <trkpt lat="43.39796" lon="2.12423">
        <ele>601</ele>
        <time>2025-09-17T10:39:44Z</time>
      </trkpt>
      <trkpt lat="43.3978" lon="2.12406">
        <ele>604</ele>
        <time>2025-09-17T10:39:48Z</time>
      </trkpt>
      <trkpt lat="43.39777" lon="2.12396">
        <ele>605</ele>
        <time>2025-09-17T10:39:49Z</time>
      </trkpt>
      <trkpt lat="43.3978" lon="2.12386">
        <ele>605</ele>
        <time>2025-09-17T10:39:50Z</time>
      </trkpt>
      <trkpt lat="43.39789" lon="2.12373">
        <ele>604</ele>
        <time>2025-09-17T10:39:53Z</time>
      </trkpt>
      <trkpt lat="43.39804" lon="2.12353">
        <ele>601</ele>
        <time>2025-09-17T10:39:57Z</time>
      </trkpt>
      <trkpt lat="43.39814" lon="2.12348">
        <ele>599</ele>
        <time>2025-09-17T10:39:58Z</time>
      </trkpt>
      <trkpt lat="43.39825" lon="2.12343">
        <ele>597</ele>
        <time>2025-09-17T10:40:00Z</time>
      </trkpt>
      <trkpt lat="43.39838" lon="2.12337">
        <ele>595</ele>
        <time>2025-09-17T10:40:03Z</time>
      </trkpt>
      <trkpt lat="43.39849" lon="2.12328">
        <ele>593</ele>
        <time>2025-09-17T10:40:05Z</time>
      </trkpt>
      <trkpt lat="43.39857" lon="2.12308">
        <ele>594</ele>
        <time>2025-09-17T10:40:08Z</time>
      </trkpt>
      <trkpt lat="43.3986" lon="2.12284">
        <ele>596</ele>
        <time>2025-09-17T10:40:11Z</time>
      </trkpt>
      <trkpt lat="43.39861" lon="2.12261">
        <ele>599</ele>
        <time>2025-09-17T10:40:14Z</time>
      </trkpt>
      <trkpt lat="43.39859" lon="2.12244">
        <ele>601</ele>
        <time>2025-09-17T10:40:16Z</time>
      </trkpt>
      <trkpt lat="43.39848" lon="2.12173">
        <ele>607</ele>
        <time>2025-09-17T10:40:26Z</time>
      </trkpt>
      <trkpt lat="43.39849" lon="2.12144">
        <ele>608</ele>
        <time>2025-09-17T10:40:30Z</time>
      </trkpt>
      <trkpt lat="43.39859" lon="2.12068">
        <ele>608</ele>
        <time>2025-09-17T10:40:40Z</time>
      </trkpt>
      <trkpt lat="43.39866" lon="2.12025">
        <ele>607</ele>
        <time>2025-09-17T10:40:45Z</time>
      </trkpt>
      <trkpt lat="43.39872" lon="2.11991">
        <ele>606</ele>
        <time>2025-09-17T10:40:50Z</time>
      </trkpt>
      <trkpt lat="43.39878" lon="2.11944">
        <ele>603</ele>
        <time>2025-09-17T10:40:56Z</time>
      </trkpt>
      <trkpt lat="43.39881" lon="2.11913">
        <ele>601</ele>
        <time>2025-09-17T10:41:00Z</time>
      </trkpt>
      <trkpt lat="43.39876" lon="2.11868">
        <ele>595</ele>
        <time>2025-09-17T10:41:06Z</time>
      </trkpt>
      <trkpt lat="43.3987" lon="2.11843">
        <ele>594</ele>
        <time>2025-09-17T10:41:09Z</time>
      </trkpt>
      <trkpt lat="43.39861" lon="2.11828">
        <ele>596</ele>
        <time>2025-09-17T10:41:12Z</time>
      </trkpt>
      <trkpt lat="43.3984" lon="2.11811">
        <ele>603</ele>
        <time>2025-09-17T10:41:16Z</time>
      </trkpt>
      <trkpt lat="43.39827" lon="2.11797">
        <ele>608</ele>
        <time>2025-09-17T10:41:19Z</time>
      </trkpt>
      <trkpt lat="43.39814" lon="2.11777">
        <ele>612</ele>
        <time>2025-09-17T10:41:23Z</time>
      </trkpt>
      <trkpt lat="43.3981" lon="2.11755">
        <ele>612</ele>
        <time>2025-09-17T10:41:26Z</time>
      </trkpt>
      <trkpt lat="43.39806" lon="2.11708">
        <ele>609</ele>
        <time>2025-09-17T10:41:32Z</time>
      </trkpt>
      <trkpt lat="43.39806" lon="2.11648">
        <ele>604</ele>
        <time>2025-09-17T10:41:39Z</time>
      </trkpt>
      <trkpt lat="43.39802" lon="2.11618">
        <ele>605</ele>
        <time>2025-09-17T10:41:43Z</time>
      </trkpt>
      <trkpt lat="43.39795" lon="2.11592">
        <ele>608</ele>
        <time>2025-09-17T10:41:47Z</time>
      </trkpt>
      <trkpt lat="43.39793" lon="2.11566">
        <ele>606</ele>
        <time>2025-09-17T10:41:50Z</time>
      </trkpt>
      <trkpt lat="43.39793" lon="2.11543">
        <ele>604</ele>
        <time>2025-09-17T10:41:53Z</time>
      </trkpt>
      <trkpt lat="43.39791" lon="2.11483">
        <ele>597</ele>
        <time>2025-09-17T10:42:01Z</time>
      </trkpt>
      <trkpt lat="43.39791" lon="2.11437">
        <ele>589</ele>
        <time>2025-09-17T10:42:07Z</time>
      </trkpt>
      <trkpt lat="43.39795" lon="2.1142">
        <ele>586</ele>
        <time>2025-09-17T10:42:09Z</time>
      </trkpt>
      <trkpt lat="43.39793" lon="2.11414">
        <ele>585</ele>
        <time>2025-09-17T10:42:10Z</time>
      </trkpt>
      <trkpt lat="43.39788" lon="2.1141">
        <ele>586</ele>
        <time>2025-09-17T10:42:11Z</time>
      </trkpt>
      <trkpt lat="43.39771" lon="2.11399">
        <ele>588</ele>
        <time>2025-09-17T10:42:15Z</time>
      </trkpt>
      <trkpt lat="43.39705" lon="2.11373">
        <ele>594</ele>
        <time>2025-09-17T10:42:27Z</time>
      </trkpt>
      <trkpt lat="43.39653" lon="2.11347">
        <ele>594</ele>
        <time>2025-09-17T10:42:37Z</time>
      </trkpt>
      <trkpt lat="43.39632" lon="2.11334">
        <ele>592</ele>
        <time>2025-09-17T10:42:41Z</time>
      </trkpt>
      <trkpt lat="43.39608" lon="2.1133">
        <ele>594</ele>
        <time>2025-09-17T10:42:45Z</time>
      </trkpt>
      <trkpt lat="43.39595" lon="2.11322">
        <ele>594</ele>
        <time>2025-09-17T10:42:48Z</time>
      </trkpt>
      <trkpt lat="43.39587" lon="2.11313">
        <ele>595</ele>
        <time>2025-09-17T10:42:49Z</time>
      </trkpt>
      <trkpt lat="43.39561" lon="2.1126">
        <ele>597</ele>
        <time>2025-09-17T10:42:58Z</time>
      </trkpt>
      <trkpt lat="43.39552" lon="2.11246">
        <ele>598</ele>
        <time>2025-09-17T10:43:00Z</time>
      </trkpt>
      <trkpt lat="43.39544" lon="2.11236">
        <ele>599</ele>
        <time>2025-09-17T10:43:02Z</time>
      </trkpt>
      <trkpt lat="43.39537" lon="2.11229">
        <ele>600</ele>
        <time>2025-09-17T10:43:03Z</time>
      </trkpt>
      <trkpt lat="43.39533" lon="2.11221">
        <ele>600</ele>
        <time>2025-09-17T10:43:05Z</time>
      </trkpt>
      <trkpt lat="43.39529" lon="2.11208">
        <ele>600</ele>
        <time>2025-09-17T10:43:07Z</time>
      </trkpt>
      <trkpt lat="43.39527" lon="2.11193">
        <ele>599</ele>
        <time>2025-09-17T10:43:09Z</time>
      </trkpt>
      <trkpt lat="43.39523" lon="2.11146">
        <ele>596</ele>
        <time>2025-09-17T10:43:15Z</time>
      </trkpt>
      <trkpt lat="43.39522" lon="2.11118">
        <ele>596</ele>
        <time>2025-09-17T10:43:18Z</time>
      </trkpt>
      <trkpt lat="43.39525" lon="2.1109">
        <ele>594</ele>
        <time>2025-09-17T10:43:22Z</time>
      </trkpt>
      <trkpt lat="43.39529" lon="2.11068">
        <ele>594</ele>
        <time>2025-09-17T10:43:25Z</time>
      </trkpt>
      <trkpt lat="43.39539" lon="2.11027">
        <ele>595</ele>
        <time>2025-09-17T10:43:30Z</time>
      </trkpt>
      <trkpt lat="43.39547" lon="2.10993">
        <ele>596</ele>
        <time>2025-09-17T10:43:35Z</time>
      </trkpt>
      <trkpt lat="43.39551" lon="2.10985">
        <ele>596</ele>
        <time>2025-09-17T10:43:36Z</time>
      </trkpt>
      <trkpt lat="43.39557" lon="2.10978">
        <ele>595</ele>
        <time>2025-09-17T10:43:38Z</time>
      </trkpt>
      <trkpt lat="43.3958" lon="2.10968">
        <ele>592</ele>
        <time>2025-09-17T10:43:42Z</time>
      </trkpt>
      <trkpt lat="43.39606" lon="2.10959">
        <ele>587</ele>
        <time>2025-09-17T10:43:47Z</time>
      </trkpt>
      <trkpt lat="43.39612" lon="2.10955">
        <ele>586</ele>
        <time>2025-09-17T10:43:48Z</time>
      </trkpt>
      <trkpt lat="43.39623" lon="2.10938">
        <ele>585</ele>
        <time>2025-09-17T10:43:51Z</time>
      </trkpt>
      <trkpt lat="43.39634" lon="2.10918">
        <ele>584</ele>
        <time>2025-09-17T10:43:54Z</time>
      </trkpt>
      <trkpt lat="43.39638" lon="2.10901">
        <ele>583</ele>
        <time>2025-09-17T10:43:56Z</time>
      </trkpt>
      <trkpt lat="43.39643" lon="2.10892">
        <ele>582</ele>
        <time>2025-09-17T10:43:58Z</time>
      </trkpt>
      <trkpt lat="43.39645" lon="2.10884">
        <ele>582</ele>
        <time>2025-09-17T10:43:59Z</time>
      </trkpt>
      <trkpt lat="43.39645" lon="2.10877">
        <ele>582</ele>
        <time>2025-09-17T10:44:00Z</time>
      </trkpt>
      <trkpt lat="43.3964" lon="2.10858">
        <ele>583</ele>
        <time>2025-09-17T10:44:03Z</time>
      </trkpt>
      <trkpt lat="43.39632" lon="2.10835">
        <ele>586</ele>
        <time>2025-09-17T10:44:06Z</time>
      </trkpt>
      <trkpt lat="43.39625" lon="2.10824">
        <ele>588</ele>
        <time>2025-09-17T10:44:08Z</time>
      </trkpt>
      <trkpt lat="43.39619" lon="2.10802">
        <ele>590</ele>
        <time>2025-09-17T10:44:11Z</time>
      </trkpt>
      <trkpt lat="43.39619" lon="2.10781">
        <ele>590</ele>
        <time>2025-09-17T10:44:14Z</time>
      </trkpt>
      <trkpt lat="43.39623" lon="2.10742">
        <ele>588</ele>
        <time>2025-09-17T10:44:19Z</time>
      </trkpt>
      <trkpt lat="43.39623" lon="2.10727">
        <ele>588</ele>
        <time>2025-09-17T10:44:21Z</time>
      </trkpt>
      <trkpt lat="43.39625" lon="2.10693">
        <ele>587</ele>
        <time>2025-09-17T10:44:25Z</time>
      </trkpt>
      <trkpt lat="43.39625" lon="2.10671">
        <ele>587</ele>
        <time>2025-09-17T10:44:28Z</time>
      </trkpt>
      <trkpt lat="43.39623" lon="2.10665">
        <ele>587</ele>
        <time>2025-09-17T10:44:29Z</time>
      </trkpt>
      <trkpt lat="43.39623" lon="2.10659">
        <ele>587</ele>
        <time>2025-09-17T10:44:29Z</time>
      </trkpt>
      <trkpt lat="43.39612" lon="2.10648">
        <ele>590</ele>
        <time>2025-09-17T10:44:32Z</time>
      </trkpt>
      <trkpt lat="43.39608" lon="2.10641">
        <ele>592</ele>
        <time>2025-09-17T10:44:33Z</time>
      </trkpt>
      <trkpt lat="43.39606" lon="2.10635">
        <ele>592</ele>
        <time>2025-09-17T10:44:34Z</time>
      </trkpt>
      <trkpt lat="43.39604" lon="2.10624">
        <ele>593</ele>
        <time>2025-09-17T10:44:35Z</time>
      </trkpt>
      <trkpt lat="43.39604" lon="2.10592">
        <ele>593</ele>
        <time>2025-09-17T10:44:39Z</time>
      </trkpt>
      <trkpt lat="43.39606" lon="2.10575">
        <ele>593</ele>
        <time>2025-09-17T10:44:42Z</time>
      </trkpt>
      <trkpt lat="43.39623" lon="2.10536">
        <ele>591</ele>
        <time>2025-09-17T10:44:48Z</time>
      </trkpt>
      <trkpt lat="43.39636" lon="2.10504">
        <ele>591</ele>
        <time>2025-09-17T10:44:52Z</time>
      </trkpt>
      <trkpt lat="43.39649" lon="2.10478">
        <ele>592</ele>
        <time>2025-09-17T10:44:56Z</time>
      </trkpt>
      <trkpt lat="43.3966" lon="2.10444">
        <ele>595</ele>
        <time>2025-09-17T10:45:01Z</time>
      </trkpt>
      <trkpt lat="43.39666" lon="2.10433">
        <ele>595</ele>
        <time>2025-09-17T10:45:03Z</time>
      </trkpt>
      <trkpt lat="43.39675" lon="2.10427">
        <ele>595</ele>
        <time>2025-09-17T10:45:05Z</time>
      </trkpt>
      <trkpt lat="43.39681" lon="2.10425">
        <ele>594</ele>
        <time>2025-09-17T10:45:06Z</time>
      </trkpt>
      <trkpt lat="43.397" lon="2.10429">
        <ele>590</ele>
        <time>2025-09-17T10:45:09Z</time>
      </trkpt>
      <trkpt lat="43.39718" lon="2.10435">
        <ele>586</ele>
        <time>2025-09-17T10:45:13Z</time>
      </trkpt>
      <trkpt lat="43.39722" lon="2.10435">
        <ele>585</ele>
        <time>2025-09-17T10:45:13Z</time>
      </trkpt>
      <trkpt lat="43.39728" lon="2.10433">
        <ele>585</ele>
        <time>2025-09-17T10:45:14Z</time>
      </trkpt>
      <trkpt lat="43.39735" lon="2.10429">
        <ele>584</ele>
        <time>2025-09-17T10:45:16Z</time>
      </trkpt>
      <trkpt lat="43.39746" lon="2.10418">
        <ele>584</ele>
        <time>2025-09-17T10:45:18Z</time>
      </trkpt>
      <trkpt lat="43.3975" lon="2.1041">
        <ele>584</ele>
        <time>2025-09-17T10:45:19Z</time>
      </trkpt>
      <trkpt lat="43.39776" lon="2.10337">
        <ele>587</ele>
        <time>2025-09-17T10:45:30Z</time>
      </trkpt>
      <trkpt lat="43.39782" lon="2.10304">
        <ele>583</ele>
        <time>2025-09-17T10:45:34Z</time>
      </trkpt>
      <trkpt lat="43.39782" lon="2.10292">
        <ele>582</ele>
        <time>2025-09-17T10:45:36Z</time>
      </trkpt>
      <trkpt lat="43.39778" lon="2.10283">
        <ele>582</ele>
        <time>2025-09-17T10:45:37Z</time>
      </trkpt>
      <trkpt lat="43.39769" lon="2.1027">
        <ele>582</ele>
        <time>2025-09-17T10:45:40Z</time>
      </trkpt>
      <trkpt lat="43.3975" lon="2.10251">
        <ele>583</ele>
        <time>2025-09-17T10:45:44Z</time>
      </trkpt>
      <trkpt lat="43.39737" lon="2.1024">
        <ele>585</ele>
        <time>2025-09-17T10:45:46Z</time>
      </trkpt>
      <trkpt lat="43.39726" lon="2.10234">
        <ele>587</ele>
        <time>2025-09-17T10:45:49Z</time>
      </trkpt>
      <trkpt lat="43.39718" lon="2.10232">
        <ele>588</ele>
        <time>2025-09-17T10:45:50Z</time>
      </trkpt>
      <trkpt lat="43.39709" lon="2.10232">
        <ele>590</ele>
        <time>2025-09-17T10:45:52Z</time>
      </trkpt>
      <trkpt lat="43.397" lon="2.10234">
        <ele>591</ele>
        <time>2025-09-17T10:45:53Z</time>
      </trkpt>
      <trkpt lat="43.39684" lon="2.10231">
        <ele>594</ele>
        <time>2025-09-17T10:45:56Z</time>
      </trkpt>
      <trkpt lat="43.39676" lon="2.10223">
        <ele>596</ele>
        <time>2025-09-17T10:45:58Z</time>
      </trkpt>
      <trkpt lat="43.39674" lon="2.10206">
        <ele>595</ele>
        <time>2025-09-17T10:46:00Z</time>
      </trkpt>
      <trkpt lat="43.39675" lon="2.10195">
        <ele>595</ele>
        <time>2025-09-17T10:46:02Z</time>
      </trkpt>
      <trkpt lat="43.39685" lon="2.10165">
        <ele>592</ele>
        <time>2025-09-17T10:46:06Z</time>
      </trkpt>
      <trkpt lat="43.39694" lon="2.1015">
        <ele>592</ele>
        <time>2025-09-17T10:46:08Z</time>
      </trkpt>
      <trkpt lat="43.39707" lon="2.10133">
        <ele>590</ele>
        <time>2025-09-17T10:46:11Z</time>
      </trkpt>
      <trkpt lat="43.39722" lon="2.1012">
        <ele>587</ele>
        <time>2025-09-17T10:46:15Z</time>
      </trkpt>
      <trkpt lat="43.39735" lon="2.10107">
        <ele>584</ele>
        <time>2025-09-17T10:46:17Z</time>
      </trkpt>
      <trkpt lat="43.39736" lon="2.10103">
        <ele>584</ele>
        <time>2025-09-17T10:46:18Z</time>
      </trkpt>
      <trkpt lat="43.39735" lon="2.10096">
        <ele>585</ele>
        <time>2025-09-17T10:46:19Z</time>
      </trkpt>
      <trkpt lat="43.39715" lon="2.10071">
        <ele>590</ele>
        <time>2025-09-17T10:46:24Z</time>
      </trkpt>
      <trkpt lat="43.39711" lon="2.1006">
        <ele>591</ele>
        <time>2025-09-17T10:46:25Z</time>
      </trkpt>
      <trkpt lat="43.39705" lon="2.10047">
        <ele>591</ele>
        <time>2025-09-17T10:46:27Z</time>
      </trkpt>
      <trkpt lat="43.397" lon="2.10034">
        <ele>592</ele>
        <time>2025-09-17T10:46:29Z</time>
      </trkpt>
      <trkpt lat="43.39696" lon="2.10015">
        <ele>592</ele>
        <time>2025-09-17T10:46:32Z</time>
      </trkpt>
      <trkpt lat="43.39692" lon="2.0998">
        <ele>592</ele>
        <time>2025-09-17T10:46:36Z</time>
      </trkpt>
      <trkpt lat="43.3969" lon="2.0997">
        <ele>593</ele>
        <time>2025-09-17T10:46:38Z</time>
      </trkpt>
      <trkpt lat="43.39685" lon="2.09959">
        <ele>594</ele>
        <time>2025-09-17T10:46:39Z</time>
      </trkpt>
      <trkpt lat="43.39683" lon="2.09948">
        <ele>595</ele>
        <time>2025-09-17T10:46:41Z</time>
      </trkpt>
      <trkpt lat="43.39675" lon="2.09929">
        <ele>597</ele>
        <time>2025-09-17T10:46:44Z</time>
      </trkpt>
      <trkpt lat="43.39673" lon="2.0992">
        <ele>597</ele>
        <time>2025-09-17T10:46:45Z</time>
      </trkpt>
      <trkpt lat="43.39673" lon="2.0991">
        <ele>597</ele>
        <time>2025-09-17T10:46:46Z</time>
      </trkpt>
      <trkpt lat="43.39681" lon="2.09873">
        <ele>596</ele>
        <time>2025-09-17T10:46:51Z</time>
      </trkpt>
      <trkpt lat="43.39686" lon="2.09832">
        <ele>597</ele>
        <time>2025-09-17T10:46:57Z</time>
      </trkpt>
      <trkpt lat="43.39688" lon="2.09807">
        <ele>597</ele>
        <time>2025-09-17T10:47:00Z</time>
      </trkpt>
      <trkpt lat="43.39691" lon="2.0979">
        <ele>597</ele>
        <time>2025-09-17T10:47:02Z</time>
      </trkpt>
      <trkpt lat="43.39693" lon="2.09785">
        <ele>597</ele>
        <time>2025-09-17T10:47:03Z</time>
      </trkpt>
      <trkpt lat="43.39698" lon="2.0977">
        <ele>597</ele>
        <time>2025-09-17T10:47:05Z</time>
      </trkpt>
      <trkpt lat="43.39705" lon="2.09762">
        <ele>596</ele>
        <time>2025-09-17T10:47:07Z</time>
      </trkpt>
      <trkpt lat="43.39721" lon="2.09722">
        <ele>597</ele>
        <time>2025-09-17T10:47:12Z</time>
      </trkpt>
      <trkpt lat="43.39726" lon="2.0972">
        <ele>596</ele>
        <time>2025-09-17T10:47:13Z</time>
      </trkpt>
      <trkpt lat="43.39734" lon="2.09723">
        <ele>595</ele>
        <time>2025-09-17T10:47:15Z</time>
      </trkpt>
      <trkpt lat="43.39739" lon="2.0973">
        <ele>594</ele>
        <time>2025-09-17T10:47:16Z</time>
      </trkpt>
      <trkpt lat="43.39741" lon="2.09746">
        <ele>593</ele>
        <time>2025-09-17T10:47:18Z</time>
      </trkpt>
      <trkpt lat="43.39741" lon="2.09768">
        <ele>591</ele>
        <time>2025-09-17T10:47:21Z</time>
      </trkpt>
      <trkpt lat="43.39748" lon="2.0979">
        <ele>588</ele>
        <time>2025-09-17T10:47:24Z</time>
      </trkpt>
      <trkpt lat="43.39754" lon="2.09796">
        <ele>588</ele>
        <time>2025-09-17T10:47:26Z</time>
      </trkpt>
      <trkpt lat="43.39761" lon="2.098">
        <ele>589</ele>
        <time>2025-09-17T10:47:27Z</time>
      </trkpt>
      <trkpt lat="43.3978" lon="2.09805">
        <ele>591</ele>
        <time>2025-09-17T10:47:30Z</time>
      </trkpt>
      <trkpt lat="43.39799" lon="2.09805">
        <ele>593</ele>
        <time>2025-09-17T10:47:34Z</time>
      </trkpt>
      <trkpt lat="43.39812" lon="2.09809">
        <ele>594</ele>
        <time>2025-09-17T10:47:36Z</time>
      </trkpt>
      <trkpt lat="43.39818" lon="2.09813">
        <ele>594</ele>
        <time>2025-09-17T10:47:37Z</time>
      </trkpt>
      <trkpt lat="43.39825" lon="2.0982">
        <ele>594</ele>
        <time>2025-09-17T10:47:39Z</time>
      </trkpt>
      <trkpt lat="43.39831" lon="2.09832">
        <ele>592</ele>
        <time>2025-09-17T10:47:41Z</time>
      </trkpt>
      <trkpt lat="43.39836" lon="2.0985">
        <ele>589</ele>
        <time>2025-09-17T10:47:43Z</time>
      </trkpt>
      <trkpt lat="43.39836" lon="2.09895">
        <ele>579</ele>
        <time>2025-09-17T10:47:49Z</time>
      </trkpt>
      <trkpt lat="43.39838" lon="2.09903">
        <ele>578</ele>
        <time>2025-09-17T10:47:50Z</time>
      </trkpt>
      <trkpt lat="43.39844" lon="2.09914">
        <ele>575</ele>
        <time>2025-09-17T10:47:52Z</time>
      </trkpt>
      <trkpt lat="43.39859" lon="2.09914">
        <ele>575</ele>
        <time>2025-09-17T10:47:55Z</time>
      </trkpt>
      <trkpt lat="43.39864" lon="2.0991">
        <ele>576</ele>
        <time>2025-09-17T10:47:56Z</time>
      </trkpt>
      <trkpt lat="43.39868" lon="2.09903">
        <ele>577</ele>
        <time>2025-09-17T10:47:57Z</time>
      </trkpt>
      <trkpt lat="43.39876" lon="2.09895">
        <ele>579</ele>
        <time>2025-09-17T10:47:58Z</time>
      </trkpt>
      <trkpt lat="43.39891" lon="2.09871">
        <ele>583</ele>
        <time>2025-09-17T10:48:03Z</time>
      </trkpt>
      <trkpt lat="43.39924" lon="2.09805">
        <ele>595</ele>
        <time>2025-09-17T10:48:13Z</time>
      </trkpt>
      <trkpt lat="43.39939" lon="2.09777">
        <ele>596</ele>
        <time>2025-09-17T10:48:17Z</time>
      </trkpt>
      <trkpt lat="43.39986" lon="2.0971">
        <ele>595</ele>
        <time>2025-09-17T10:48:29Z</time>
      </trkpt>
      <trkpt lat="43.39989" lon="2.09707">
        <ele>595</ele>
        <time>2025-09-17T10:48:30Z</time>
      </trkpt>
      <trkpt lat="43.39997" lon="2.09699">
        <ele>594</ele>
        <time>2025-09-17T10:48:32Z</time>
      </trkpt>
      <trkpt lat="43.40005" lon="2.09693">
        <ele>593</ele>
        <time>2025-09-17T10:48:34Z</time>
      </trkpt>
      <trkpt lat="43.40014" lon="2.09684">
        <ele>593</ele>
        <time>2025-09-17T10:48:35Z</time>
      </trkpt>
      <trkpt lat="43.40039" lon="2.09652">
        <ele>590</ele>
        <time>2025-09-17T10:48:42Z</time>
      </trkpt>
      <trkpt lat="43.40048" lon="2.09637">
        <ele>588</ele>
        <time>2025-09-17T10:48:44Z</time>
      </trkpt>
      <trkpt lat="43.40052" lon="2.09628">
        <ele>588</ele>
        <time>2025-09-17T10:48:45Z</time>
      </trkpt>
      <trkpt lat="43.40053" lon="2.0962">
        <ele>589</ele>
        <time>2025-09-17T10:48:46Z</time>
      </trkpt>
      <trkpt lat="43.40055" lon="2.09611">
        <ele>589</ele>
        <time>2025-09-17T10:48:48Z</time>
      </trkpt>
      <trkpt lat="43.40055" lon="2.09588">
        <ele>592</ele>
        <time>2025-09-17T10:48:51Z</time>
      </trkpt>
      <trkpt lat="43.40063" lon="2.09551">
        <ele>594</ele>
        <time>2025-09-17T10:48:56Z</time>
      </trkpt>
      <trkpt lat="43.40078" lon="2.09504">
        <ele>597</ele>
        <time>2025-09-17T10:49:02Z</time>
      </trkpt>
      <trkpt lat="43.40093" lon="2.09466">
        <ele>602</ele>
        <time>2025-09-17T10:49:08Z</time>
      </trkpt>
      <trkpt lat="43.40097" lon="2.09457">
        <ele>603</ele>
        <time>2025-09-17T10:49:09Z</time>
      </trkpt>
      <trkpt lat="43.40108" lon="2.09442">
        <ele>605</ele>
        <time>2025-09-17T10:49:12Z</time>
      </trkpt>
      <trkpt lat="43.4011" lon="2.0944">
        <ele>605</ele>
        <time>2025-09-17T10:49:12Z</time>
      </trkpt>
      <trkpt lat="43.40119" lon="2.09435">
        <ele>606</ele>
        <time>2025-09-17T10:49:14Z</time>
      </trkpt>
      <trkpt lat="43.40128" lon="2.09436">
        <ele>605</ele>
        <time>2025-09-17T10:49:16Z</time>
      </trkpt>
      <trkpt lat="43.40134" lon="2.0944">
        <ele>603</ele>
        <time>2025-09-17T10:49:17Z</time>
      </trkpt>
      <trkpt lat="43.40149" lon="2.09457">
        <ele>596</ele>
        <time>2025-09-17T10:49:20Z</time>
      </trkpt>
      <trkpt lat="43.40158" lon="2.09461">
        <ele>594</ele>
        <time>2025-09-17T10:49:22Z</time>
      </trkpt>
      <trkpt lat="43.4017" lon="2.0947">
        <ele>590</ele>
        <time>2025-09-17T10:49:25Z</time>
      </trkpt>
      <trkpt lat="43.40192" lon="2.09478">
        <ele>587</ele>
        <time>2025-09-17T10:49:29Z</time>
      </trkpt>
      <trkpt lat="43.40203" lon="2.09485">
        <ele>584</ele>
        <time>2025-09-17T10:49:31Z</time>
      </trkpt>
      <trkpt lat="43.40207" lon="2.09485">
        <ele>584</ele>
        <time>2025-09-17T10:49:31Z</time>
      </trkpt>
      <trkpt lat="43.40215" lon="2.09481">
        <ele>585</ele>
        <time>2025-09-17T10:49:33Z</time>
      </trkpt>
      <trkpt lat="43.4022" lon="2.09476">
        <ele>587</ele>
        <time>2025-09-17T10:49:34Z</time>
      </trkpt>
      <trkpt lat="43.40226" lon="2.09472">
        <ele>588</ele>
        <time>2025-09-17T10:49:35Z</time>
      </trkpt>
      <trkpt lat="43.40235" lon="2.09461">
        <ele>591</ele>
        <time>2025-09-17T10:49:37Z</time>
      </trkpt>
      <trkpt lat="43.4025" lon="2.0944">
        <ele>597</ele>
        <time>2025-09-17T10:49:41Z</time>
      </trkpt>
      <trkpt lat="43.40263" lon="2.09425">
        <ele>599</ele>
        <time>2025-09-17T10:49:44Z</time>
      </trkpt>
      <trkpt lat="43.40284" lon="2.0941">
        <ele>598</ele>
        <time>2025-09-17T10:49:48Z</time>
      </trkpt>
      <trkpt lat="43.40324" lon="2.09391">
        <ele>595</ele>
        <time>2025-09-17T10:49:56Z</time>
      </trkpt>
      <trkpt lat="43.40347" lon="2.09375">
        <ele>596</ele>
        <time>2025-09-17T10:50:01Z</time>
      </trkpt>
      <trkpt lat="43.40359" lon="2.09365">
        <ele>597</ele>
        <time>2025-09-17T10:50:03Z</time>
      </trkpt>
      <trkpt lat="43.40366" lon="2.09356">
        <ele>599</ele>
        <time>2025-09-17T10:50:05Z</time>
      </trkpt>
      <trkpt lat="43.4037" lon="2.09352">
        <ele>599</ele>
        <time>2025-09-17T10:50:06Z</time>
      </trkpt>
      <trkpt lat="43.40374" lon="2.0935">
        <ele>599</ele>
        <time>2025-09-17T10:50:06Z</time>
      </trkpt>
      <trkpt lat="43.40383" lon="2.09343">
        <ele>599</ele>
        <time>2025-09-17T10:50:08Z</time>
      </trkpt>
      <trkpt lat="43.40391" lon="2.0933">
        <ele>601</ele>
        <time>2025-09-17T10:50:10Z</time>
      </trkpt>
      <trkpt lat="43.40402" lon="2.09311">
        <ele>603</ele>
        <time>2025-09-17T10:50:14Z</time>
      </trkpt>
      <trkpt lat="43.4041" lon="2.093">
        <ele>604</ele>
        <time>2025-09-17T10:50:16Z</time>
      </trkpt>
      <trkpt lat="43.40411" lon="2.09298">
        <ele>604</ele>
        <time>2025-09-17T10:50:16Z</time>
      </trkpt>
      <trkpt lat="43.40417" lon="2.09294">
        <ele>604</ele>
        <time>2025-09-17T10:50:17Z</time>
      </trkpt>
      <trkpt lat="43.40424" lon="2.09294">
        <ele>605</ele>
        <time>2025-09-17T10:50:18Z</time>
      </trkpt>
      <trkpt lat="43.4043" lon="2.09292">
        <ele>606</ele>
        <time>2025-09-17T10:50:19Z</time>
      </trkpt>
      <trkpt lat="43.40434" lon="2.09294">
        <ele>606</ele>
        <time>2025-09-17T10:50:20Z</time>
      </trkpt>
      <trkpt lat="43.40439" lon="2.09298">
        <ele>606</ele>
        <time>2025-09-17T10:50:21Z</time>
      </trkpt>
      <trkpt lat="43.40445" lon="2.09315">
        <ele>603</ele>
        <time>2025-09-17T10:50:24Z</time>
      </trkpt>
      <trkpt lat="43.40451" lon="2.0935">
        <ele>597</ele>
        <time>2025-09-17T10:50:28Z</time>
      </trkpt>
      <trkpt lat="43.40454" lon="2.09365">
        <ele>594</ele>
        <time>2025-09-17T10:50:30Z</time>
      </trkpt>
      <trkpt lat="43.40454" lon="2.09378">
        <ele>591</ele>
        <time>2025-09-17T10:50:32Z</time>
      </trkpt>
      <trkpt lat="43.40458" lon="2.0939">
        <ele>589</ele>
        <time>2025-09-17T10:50:34Z</time>
      </trkpt>
      <trkpt lat="43.40464" lon="2.09397">
        <ele>588</ele>
        <time>2025-09-17T10:50:35Z</time>
      </trkpt>
      <trkpt lat="43.40484" lon="2.09401">
        <ele>589</ele>
        <time>2025-09-17T10:50:39Z</time>
      </trkpt>
      <trkpt lat="43.40492" lon="2.09401">
        <ele>589</ele>
        <time>2025-09-17T10:50:40Z</time>
      </trkpt>
      <trkpt lat="43.40509" lon="2.09397">
        <ele>589</ele>
        <time>2025-09-17T10:50:43Z</time>
      </trkpt>
      <trkpt lat="43.40518" lon="2.09393">
        <ele>588</ele>
        <time>2025-09-17T10:50:45Z</time>
      </trkpt>
      <trkpt lat="43.4055" lon="2.09371">
        <ele>587</ele>
        <time>2025-09-17T10:50:51Z</time>
      </trkpt>
      <trkpt lat="43.40597" lon="2.09337">
        <ele>586</ele>
        <time>2025-09-17T10:51:01Z</time>
      </trkpt>
      <trkpt lat="43.40604" lon="2.0933">
        <ele>585</ele>
        <time>2025-09-17T10:51:02Z</time>
      </trkpt>
      <trkpt lat="43.4061" lon="2.09322">
        <ele>586</ele>
        <time>2025-09-17T10:51:04Z</time>
      </trkpt>
      <trkpt lat="43.40622" lon="2.09299">
        <ele>587</ele>
        <time>2025-09-17T10:51:07Z</time>
      </trkpt>
      <trkpt lat="43.40634" lon="2.09277">
        <ele>587</ele>
        <time>2025-09-17T10:51:11Z</time>
      </trkpt>
      <trkpt lat="43.40653" lon="2.09227">
        <ele>589</ele>
        <time>2025-09-17T10:51:18Z</time>
      </trkpt>
      <trkpt lat="43.4067" lon="2.09189">
        <ele>589</ele>
        <time>2025-09-17T10:51:24Z</time>
      </trkpt>
      <trkpt lat="43.40673" lon="2.09187">
        <ele>590</ele>
        <time>2025-09-17T10:51:25Z</time>
      </trkpt>
      <trkpt lat="43.40679" lon="2.09182">
        <ele>591</ele>
        <time>2025-09-17T10:51:26Z</time>
      </trkpt>
      <trkpt lat="43.40681" lon="2.09182">
        <ele>591</ele>
        <time>2025-09-17T10:51:26Z</time>
      </trkpt>
      <trkpt lat="43.4069" lon="2.09191">
        <ele>591</ele>
        <time>2025-09-17T10:51:28Z</time>
      </trkpt>
      <trkpt lat="43.40692" lon="2.09197">
        <ele>590</ele>
        <time>2025-09-17T10:51:29Z</time>
      </trkpt>
      <trkpt lat="43.40692" lon="2.09212">
        <ele>588</ele>
        <time>2025-09-17T10:51:31Z</time>
      </trkpt>
      <trkpt lat="43.40694" lon="2.09236">
        <ele>586</ele>
        <time>2025-09-17T10:51:34Z</time>
      </trkpt>
      <trkpt lat="43.40698" lon="2.09247">
        <ele>585</ele>
        <time>2025-09-17T10:51:36Z</time>
      </trkpt>
      <trkpt lat="43.40707" lon="2.09264">
        <ele>583</ele>
        <time>2025-09-17T10:51:38Z</time>
      </trkpt>
      <trkpt lat="43.40728" lon="2.09302">
        <ele>580</ele>
        <time>2025-09-17T10:51:45Z</time>
      </trkpt>
      <trkpt lat="43.40743" lon="2.09335">
        <ele>576</ele>
        <time>2025-09-17T10:51:50Z</time>
      </trkpt>
      <trkpt lat="43.40748" lon="2.09339">
        <ele>575</ele>
        <time>2025-09-17T10:51:51Z</time>
      </trkpt>
      <trkpt lat="43.40754" lon="2.09339">
        <ele>575</ele>
        <time>2025-09-17T10:51:52Z</time>
      </trkpt>
      <trkpt lat="43.40758" lon="2.09337">
        <ele>575</ele>
        <time>2025-09-17T10:51:52Z</time>
      </trkpt>
      <trkpt lat="43.40763" lon="2.09299">
        <ele>581</ele>
        <time>2025-09-17T10:51:57Z</time>
      </trkpt>
      <trkpt lat="43.40763" lon="2.09284">
        <ele>583</ele>
        <time>2025-09-17T10:51:59Z</time>
      </trkpt>
      <trkpt lat="43.40767" lon="2.09263">
        <ele>586</ele>
        <time>2025-09-17T10:52:02Z</time>
      </trkpt>
      <trkpt lat="43.40775" lon="2.09244">
        <ele>588</ele>
        <time>2025-09-17T10:52:05Z</time>
      </trkpt>
      <trkpt lat="43.40784" lon="2.09229">
        <ele>589</ele>
        <time>2025-09-17T10:52:08Z</time>
      </trkpt>
      <trkpt lat="43.40798" lon="2.09214">
        <ele>590</ele>
        <time>2025-09-17T10:52:11Z</time>
      </trkpt>
      <trkpt lat="43.40802" lon="2.09199">
        <ele>592</ele>
        <time>2025-09-17T10:52:13Z</time>
      </trkpt>
      <trkpt lat="43.40804" lon="2.09191">
        <ele>593</ele>
        <time>2025-09-17T10:52:14Z</time>
      </trkpt>
      <trkpt lat="43.40803" lon="2.09182">
        <ele>594</ele>
        <time>2025-09-17T10:52:15Z</time>
      </trkpt>
      <trkpt lat="43.40817" lon="2.09112">
        <ele>600</ele>
        <time>2025-09-17T10:52:24Z</time>
      </trkpt>
      <trkpt lat="43.40829" lon="2.09067">
        <ele>604</ele>
        <time>2025-09-17T10:52:31Z</time>
      </trkpt>
      <trkpt lat="43.40901" lon="2.08823">
        <ele>605</ele>
        <time>2025-09-17T10:53:05Z</time>
      </trkpt>
      <trkpt lat="43.40892" lon="2.0884">
        <ele>605</ele>
        <time>2025-09-17T10:53:07Z</time>
      </trkpt>
      <trkpt lat="43.40885" lon="2.08857">
        <ele>605</ele>
        <time>2025-09-17T10:53:10Z</time>
      </trkpt>
      <trkpt lat="43.40886" lon="2.08846">
        <ele>605</ele>
        <time>2025-09-17T10:53:11Z</time>
      </trkpt>
      <trkpt lat="43.40883" lon="2.08837">
        <ele>606</ele>
        <time>2025-09-17T10:53:13Z</time>
      </trkpt>
      <trkpt lat="43.40883" lon="2.08832">
        <ele>607</ele>
        <time>2025-09-17T10:53:13Z</time>
      </trkpt>
      <trkpt lat="43.40883" lon="2.08787">
        <ele>609</ele>
        <time>2025-09-17T10:53:19Z</time>
      </trkpt>
      <trkpt lat="43.40885" lon="2.08742">
        <ele>611</ele>
        <time>2025-09-17T10:53:25Z</time>
      </trkpt>
      <trkpt lat="43.40892" lon="2.0868">
        <ele>611</ele>
        <time>2025-09-17T10:53:33Z</time>
      </trkpt>
      <trkpt lat="43.40894" lon="2.08667">
        <ele>611</ele>
        <time>2025-09-17T10:53:35Z</time>
      </trkpt>
      <trkpt lat="43.409" lon="2.08627">
        <ele>611</ele>
        <time>2025-09-17T10:53:40Z</time>
      </trkpt>
      <trkpt lat="43.409" lon="2.08608">
        <ele>612</ele>
        <time>2025-09-17T10:53:42Z</time>
      </trkpt>
      <trkpt lat="43.40895" lon="2.08592">
        <ele>613</ele>
        <time>2025-09-17T10:53:45Z</time>
      </trkpt>
      <trkpt lat="43.40886" lon="2.08584">
        <ele>614</ele>
        <time>2025-09-17T10:53:47Z</time>
      </trkpt>
      <trkpt lat="43.40874" lon="2.08583">
        <ele>616</ele>
        <time>2025-09-17T10:53:49Z</time>
      </trkpt>
      <trkpt lat="43.40864" lon="2.08587">
        <ele>617</ele>
        <time>2025-09-17T10:53:51Z</time>
      </trkpt>
      <trkpt lat="43.40838" lon="2.08609">
        <ele>620</ele>
        <time>2025-09-17T10:53:56Z</time>
      </trkpt>
      <trkpt lat="43.40804" lon="2.08636">
        <ele>623</ele>
        <time>2025-09-17T10:54:03Z</time>
      </trkpt>
      <trkpt lat="43.40792" lon="2.08639">
        <ele>623</ele>
        <time>2025-09-17T10:54:05Z</time>
      </trkpt>
      <trkpt lat="43.40779" lon="2.08639">
        <ele>624</ele>
        <time>2025-09-17T10:54:08Z</time>
      </trkpt>
      <trkpt lat="43.40552" lon="2.08548">
        <ele>642</ele>
        <time>2025-09-17T10:54:50Z</time>
      </trkpt>
      <trkpt lat="43.40644" lon="2.08352">
        <ele>636</ele>
        <time>2025-09-17T10:55:20Z</time>
      </trkpt>
      <trkpt lat="43.4065" lon="2.08339">
        <ele>636</ele>
        <time>2025-09-17T10:55:22Z</time>
      </trkpt>
      <trkpt lat="43.40658" lon="2.08322">
        <ele>636</ele>
        <time>2025-09-17T10:55:24Z</time>
      </trkpt>
      <trkpt lat="43.4065" lon="2.08339">
        <ele>636</ele>
        <time>2025-09-17T10:55:27Z</time>
      </trkpt>
      <trkpt lat="43.40644" lon="2.08314">
        <ele>635</ele>
        <time>2025-09-17T10:55:30Z</time>
      </trkpt>
      <trkpt lat="43.40644" lon="2.08294">
        <ele>634</ele>
        <time>2025-09-17T10:55:33Z</time>
      </trkpt>
      <trkpt lat="43.40631" lon="2.08239">
        <ele>631</ele>
        <time>2025-09-17T10:55:40Z</time>
      </trkpt>
      <trkpt lat="43.40621" lon="2.08206">
        <ele>629</ele>
        <time>2025-09-17T10:55:45Z</time>
      </trkpt>
      <trkpt lat="43.40615" lon="2.08182">
        <ele>627</ele>
        <time>2025-09-17T10:55:48Z</time>
      </trkpt>
      <trkpt lat="43.40606" lon="2.08138">
        <ele>626</ele>
        <time>2025-09-17T10:55:54Z</time>
      </trkpt>
      <trkpt lat="43.40603" lon="2.08121">
        <ele>626</ele>
        <time>2025-09-17T10:55:57Z</time>
      </trkpt>
      <trkpt lat="43.40602" lon="2.08087">
        <ele>626</ele>
        <time>2025-09-17T10:56:01Z</time>
      </trkpt>
      <trkpt lat="43.40603" lon="2.08002">
        <ele>626</ele>
        <time>2025-09-17T10:56:12Z</time>
      </trkpt>
      <trkpt lat="43.40599" lon="2.07925">
        <ele>627</ele>
        <time>2025-09-17T10:56:22Z</time>
      </trkpt>
      <trkpt lat="43.40592" lon="2.07851">
        <ele>624</ele>
        <time>2025-09-17T10:56:32Z</time>
      </trkpt>
      <trkpt lat="43.4059" lon="2.07834">
        <ele>623</ele>
        <time>2025-09-17T10:56:34Z</time>
      </trkpt>
      <trkpt lat="43.40584" lon="2.0778">
        <ele>621</ele>
        <time>2025-09-17T10:56:41Z</time>
      </trkpt>
      <trkpt lat="43.40577" lon="2.07752">
        <ele>620</ele>
        <time>2025-09-17T10:56:45Z</time>
      </trkpt>
      <trkpt lat="43.4052" lon="2.07617">
        <ele>619</ele>
        <time>2025-09-17T10:57:05Z</time>
      </trkpt>
      <trkpt lat="43.40499" lon="2.0756">
        <ele>618</ele>
        <time>2025-09-17T10:57:13Z</time>
      </trkpt>
      <trkpt lat="43.4045" lon="2.07427">
        <ele>618</ele>
        <time>2025-09-17T10:57:32Z</time>
      </trkpt>
      <trkpt lat="43.40444" lon="2.07407">
        <ele>619</ele>
        <time>2025-09-17T10:57:35Z</time>
      </trkpt>
      <trkpt lat="43.4042" lon="2.07316">
        <ele>618</ele>
        <time>2025-09-17T10:57:48Z</time>
      </trkpt>
      <trkpt lat="43.40411" lon="2.07262">
        <ele>617</ele>
        <time>2025-09-17T10:57:55Z</time>
      </trkpt>
      <trkpt lat="43.4041" lon="2.07241">
        <ele>617</ele>
        <time>2025-09-17T10:57:58Z</time>
      </trkpt>
      <trkpt lat="43.4041" lon="2.07217">
        <ele>617</ele>
        <time>2025-09-17T10:58:01Z</time>
      </trkpt>
      <trkpt lat="43.40414" lon="2.07169">
        <ele>618</ele>
        <time>2025-09-17T10:58:07Z</time>
      </trkpt>
      <trkpt lat="43.40419" lon="2.07138">
        <ele>618</ele>
        <time>2025-09-17T10:58:11Z</time>
      </trkpt>
      <trkpt lat="43.40429" lon="2.07095">
        <ele>617</ele>
        <time>2025-09-17T10:58:17Z</time>
      </trkpt>
      <trkpt lat="43.40484" lon="2.06991">
        <ele>618</ele>
        <time>2025-09-17T10:58:33Z</time>
      </trkpt>
      <trkpt lat="43.40532" lon="2.06883">
        <ele>619</ele>
        <time>2025-09-17T10:58:50Z</time>
      </trkpt>
      <trkpt lat="43.40537" lon="2.06867">
        <ele>619</ele>
        <time>2025-09-17T10:58:52Z</time>
      </trkpt>
      <trkpt lat="43.4054" lon="2.06848">
        <ele>619</ele>
        <time>2025-09-17T10:58:55Z</time>
      </trkpt>
      <trkpt lat="43.40539" lon="2.06832">
        <ele>619</ele>
        <time>2025-09-17T10:58:57Z</time>
      </trkpt>
      <trkpt lat="43.40536" lon="2.06743">
        <ele>616</ele>
        <time>2025-09-17T10:59:08Z</time>
      </trkpt>
      <trkpt lat="43.40534" lon="2.06724">
        <ele>616</ele>
        <time>2025-09-17T10:59:11Z</time>
      </trkpt>
      <trkpt lat="43.40527" lon="2.06699">
        <ele>616</ele>
        <time>2025-09-17T10:59:14Z</time>
      </trkpt>
      <trkpt lat="43.40525" lon="2.06688">
        <ele>615</ele>
        <time>2025-09-17T10:59:16Z</time>
      </trkpt>
      <trkpt lat="43.40526" lon="2.06674">
        <ele>615</ele>
        <time>2025-09-17T10:59:17Z</time>
      </trkpt>
      <trkpt lat="43.40533" lon="2.06665">
        <ele>615</ele>
        <time>2025-09-17T10:59:19Z</time>
      </trkpt>
      <trkpt lat="43.4053" lon="2.06655">
        <ele>616</ele>
        <time>2025-09-17T10:59:21Z</time>
      </trkpt>
      <trkpt lat="43.40518" lon="2.06609">
        <ele>618</ele>
        <time>2025-09-17T10:59:27Z</time>
      </trkpt>
      <trkpt lat="43.40502" lon="2.0656">
        <ele>621</ele>
        <time>2025-09-17T10:59:34Z</time>
      </trkpt>
      <trkpt lat="43.40488" lon="2.06532">
        <ele>621</ele>
        <time>2025-09-17T10:59:38Z</time>
      </trkpt>
      <trkpt lat="43.40469" lon="2.0651">
        <ele>622</ele>
        <time>2025-09-17T10:59:43Z</time>
      </trkpt>
      <trkpt lat="43.40421" lon="2.06477">
        <ele>623</ele>
        <time>2025-09-17T10:59:52Z</time>
      </trkpt>
      <trkpt lat="43.40396" lon="2.06462">
        <ele>622</ele>
        <time>2025-09-17T10:59:57Z</time>
      </trkpt>
      <trkpt lat="43.40396" lon="2.06451">
        <ele>622</ele>
        <time>2025-09-17T10:59:58Z</time>
      </trkpt>
      <trkpt lat="43.40388" lon="2.0644">
        <ele>621</ele>
        <time>2025-09-17T11:00:00Z</time>
      </trkpt>
      <trkpt lat="43.40381" lon="2.06427">
        <ele>621</ele>
        <time>2025-09-17T11:00:03Z</time>
      </trkpt>
      <trkpt lat="43.40381" lon="2.06404">
        <ele>621</ele>
        <time>2025-09-17T11:00:05Z</time>
      </trkpt>
      <trkpt lat="43.40385" lon="2.06387">
        <ele>620</ele>
        <time>2025-09-17T11:00:08Z</time>
      </trkpt>
      <trkpt lat="43.40416" lon="2.06307">
        <ele>620</ele>
        <time>2025-09-17T11:00:20Z</time>
      </trkpt>
      <trkpt lat="43.40521" lon="2.06066">
        <ele>617</ele>
        <time>2025-09-17T11:00:56Z</time>
      </trkpt>
      <trkpt lat="43.40606" lon="2.05874">
        <ele>615</ele>
        <time>2025-09-17T11:01:25Z</time>
      </trkpt>
      <trkpt lat="43.4061" lon="2.0585">
        <ele>614</ele>
        <time>2025-09-17T11:01:28Z</time>
      </trkpt>
      <trkpt lat="43.4061" lon="2.05824">
        <ele>614</ele>
        <time>2025-09-17T11:01:31Z</time>
      </trkpt>
      <trkpt lat="43.40691" lon="2.05709">
        <ele>611</ele>
        <time>2025-09-17T11:01:52Z</time>
      </trkpt>
      <trkpt lat="43.40724" lon="2.05676">
        <ele>609</ele>
        <time>2025-09-17T11:01:59Z</time>
      </trkpt>
      <trkpt lat="43.40758" lon="2.05652">
        <ele>607</ele>
        <time>2025-09-17T11:02:06Z</time>
      </trkpt>
      <trkpt lat="43.40839" lon="2.05615">
        <ele>601</ele>
        <time>2025-09-17T11:02:21Z</time>
      </trkpt>
      <trkpt lat="43.40925" lon="2.05577">
        <ele>597</ele>
        <time>2025-09-17T11:02:37Z</time>
      </trkpt>
      <trkpt lat="43.40944" lon="2.05562">
        <ele>596</ele>
        <time>2025-09-17T11:02:41Z</time>
      </trkpt>
      <trkpt lat="43.40994" lon="2.05502">
        <ele>593</ele>
        <time>2025-09-17T11:02:53Z</time>
      </trkpt>
      <trkpt lat="43.41007" lon="2.05489">
        <ele>592</ele>
        <time>2025-09-17T11:02:56Z</time>
      </trkpt>
      <trkpt lat="43.41025" lon="2.05478">
        <ele>591</ele>
        <time>2025-09-17T11:03:00Z</time>
      </trkpt>
      <trkpt lat="43.41063" lon="2.05463">
        <ele>591</ele>
        <time>2025-09-17T11:03:07Z</time>
      </trkpt>
      <trkpt lat="43.41081" lon="2.05457">
        <ele>591</ele>
        <time>2025-09-17T11:03:10Z</time>
      </trkpt>
      <trkpt lat="43.41093" lon="2.05455">
        <ele>592</ele>
        <time>2025-09-17T11:03:12Z</time>
      </trkpt>
      <trkpt lat="43.41136" lon="2.05442">
        <ele>595</ele>
        <time>2025-09-17T11:03:20Z</time>
      </trkpt>
      <trkpt lat="43.4115" lon="2.05437">
        <ele>596</ele>
        <time>2025-09-17T11:03:22Z</time>
      </trkpt>
      <trkpt lat="43.41197" lon="2.05432">
        <ele>600</ele>
        <time>2025-09-17T11:03:31Z</time>
      </trkpt>
      <trkpt lat="43.41226" lon="2.05435">
        <ele>603</ele>
        <time>2025-09-17T11:03:36Z</time>
      </trkpt>
      <trkpt lat="43.41242" lon="2.0544">
        <ele>604</ele>
        <time>2025-09-17T11:03:39Z</time>
      </trkpt>
      <trkpt lat="43.41249" lon="2.05446">
        <ele>604</ele>
        <time>2025-09-17T11:03:40Z</time>
      </trkpt>
      <trkpt lat="43.41258" lon="2.05448">
        <ele>604</ele>
        <time>2025-09-17T11:03:42Z</time>
      </trkpt>
      <trkpt lat="43.41267" lon="2.05456">
        <ele>604</ele>
        <time>2025-09-17T11:03:44Z</time>
      </trkpt>
      <trkpt lat="43.41286" lon="2.05509">
        <ele>602</ele>
        <time>2025-09-17T11:03:52Z</time>
      </trkpt>
      <trkpt lat="43.41291" lon="2.05516">
        <ele>602</ele>
        <time>2025-09-17T11:03:53Z</time>
      </trkpt>
      <trkpt lat="43.41299" lon="2.05515">
        <ele>603</ele>
        <time>2025-09-17T11:03:54Z</time>
      </trkpt>
      <trkpt lat="43.41303" lon="2.05504">
        <ele>603</ele>
        <time>2025-09-17T11:03:56Z</time>
      </trkpt>
      <trkpt lat="43.41304" lon="2.05446">
        <ele>606</ele>
        <time>2025-09-17T11:04:03Z</time>
      </trkpt>
      <trkpt lat="43.41305" lon="2.05432">
        <ele>606</ele>
        <time>2025-09-17T11:04:05Z</time>
      </trkpt>
      <trkpt lat="43.41303" lon="2.05417">
        <ele>607</ele>
        <time>2025-09-17T11:04:07Z</time>
      </trkpt>
      <trkpt lat="43.41279" lon="2.05359">
        <ele>612</ele>
        <time>2025-09-17T11:04:16Z</time>
      </trkpt>
      <trkpt lat="43.41274" lon="2.05342">
        <ele>613</ele>
        <time>2025-09-17T11:04:18Z</time>
      </trkpt>
      <trkpt lat="43.41273" lon="2.05326">
        <ele>614</ele>
        <time>2025-09-17T11:04:20Z</time>
      </trkpt>
      <trkpt lat="43.41273" lon="2.05245">
        <ele>618</ele>
        <time>2025-09-17T11:04:31Z</time>
      </trkpt>
      <trkpt lat="43.41282" lon="2.05209">
        <ele>618</ele>
        <time>2025-09-17T11:04:36Z</time>
      </trkpt>
      <trkpt lat="43.41284" lon="2.05193">
        <ele>619</ele>
        <time>2025-09-17T11:04:38Z</time>
      </trkpt>
      <trkpt lat="43.41287" lon="2.05159">
        <ele>619</ele>
        <time>2025-09-17T11:04:42Z</time>
      </trkpt>
      <trkpt lat="43.41294" lon="2.051">
        <ele>620</ele>
        <time>2025-09-17T11:04:50Z</time>
      </trkpt>
      <trkpt lat="43.41298" lon="2.05086">
        <ele>620</ele>
        <time>2025-09-17T11:04:52Z</time>
      </trkpt>
      <trkpt lat="43.41319" lon="2.05038">
        <ele>618</ele>
        <time>2025-09-17T11:04:59Z</time>
      </trkpt>
      <trkpt lat="43.41331" lon="2.05003">
        <ele>617</ele>
        <time>2025-09-17T11:05:04Z</time>
      </trkpt>
      <trkpt lat="43.41353" lon="2.04897">
        <ele>620</ele>
        <time>2025-09-17T11:05:18Z</time>
      </trkpt>
      <trkpt lat="43.41366" lon="2.04845">
        <ele>621</ele>
        <time>2025-09-17T11:05:25Z</time>
      </trkpt>
      <trkpt lat="43.4137" lon="2.04837">
        <ele>621</ele>
        <time>2025-09-17T11:05:27Z</time>
      </trkpt>
      <trkpt lat="43.41377" lon="2.04828">
        <ele>621</ele>
        <time>2025-09-17T11:05:28Z</time>
      </trkpt>
      <trkpt lat="43.41383" lon="2.04825">
        <ele>621</ele>
        <time>2025-09-17T11:05:29Z</time>
      </trkpt>
      <trkpt lat="43.41392" lon="2.04823">
        <ele>621</ele>
        <time>2025-09-17T11:05:31Z</time>
      </trkpt>
      <trkpt lat="43.41428" lon="2.04831">
        <ele>620</ele>
        <time>2025-09-17T11:05:38Z</time>
      </trkpt>
      <trkpt lat="43.41447" lon="2.0484">
        <ele>619</ele>
        <time>2025-09-17T11:05:41Z</time>
      </trkpt>
      <trkpt lat="43.41462" lon="2.04849">
        <ele>618</ele>
        <time>2025-09-17T11:05:44Z</time>
      </trkpt>
      <trkpt lat="43.41472" lon="2.04858">
        <ele>618</ele>
        <time>2025-09-17T11:05:46Z</time>
      </trkpt>
      <trkpt lat="43.41505" lon="2.04892">
        <ele>618</ele>
        <time>2025-09-17T11:05:54Z</time>
      </trkpt>
      <trkpt lat="43.41523" lon="2.04909">
        <ele>618</ele>
        <time>2025-09-17T11:05:57Z</time>
      </trkpt>
      <trkpt lat="43.41538" lon="2.0492">
        <ele>618</ele>
        <time>2025-09-17T11:06:00Z</time>
      </trkpt>
      <trkpt lat="43.41555" lon="2.0493">
        <ele>617</ele>
        <time>2025-09-17T11:06:04Z</time>
      </trkpt>
      <trkpt lat="43.41568" lon="2.04933">
        <ele>617</ele>
        <time>2025-09-17T11:06:06Z</time>
      </trkpt>
      <trkpt lat="43.41608" lon="2.04928">
        <ele>617</ele>
        <time>2025-09-17T11:06:13Z</time>
      </trkpt>
      <trkpt lat="43.41632" lon="2.04923">
        <ele>618</ele>
        <time>2025-09-17T11:06:18Z</time>
      </trkpt>
      <trkpt lat="43.41653" lon="2.04913">
        <ele>619</ele>
        <time>2025-09-17T11:06:21Z</time>
      </trkpt>
      <trkpt lat="43.4167" lon="2.049">
        <ele>619</ele>
        <time>2025-09-17T11:06:25Z</time>
      </trkpt>
      <trkpt lat="43.41684" lon="2.04885">
        <ele>619</ele>
        <time>2025-09-17T11:06:28Z</time>
      </trkpt>
      <trkpt lat="43.41696" lon="2.04871">
        <ele>620</ele>
        <time>2025-09-17T11:06:31Z</time>
      </trkpt>
      <trkpt lat="43.41712" lon="2.04851">
        <ele>621</ele>
        <time>2025-09-17T11:06:35Z</time>
      </trkpt>
      <trkpt lat="43.41727" lon="2.04828">
        <ele>621</ele>
        <time>2025-09-17T11:06:39Z</time>
      </trkpt>
      <trkpt lat="43.4174" lon="2.04802">
        <ele>621</ele>
        <time>2025-09-17T11:06:43Z</time>
      </trkpt>
      <trkpt lat="43.41754" lon="2.04768">
        <ele>620</ele>
        <time>2025-09-17T11:06:48Z</time>
      </trkpt>
      <trkpt lat="43.41759" lon="2.04758">
        <ele>620</ele>
        <time>2025-09-17T11:06:49Z</time>
      </trkpt>
      <trkpt lat="43.41764" lon="2.04753">
        <ele>620</ele>
        <time>2025-09-17T11:06:51Z</time>
      </trkpt>
      <trkpt lat="43.41806" lon="2.04734">
        <ele>619</ele>
        <time>2025-09-17T11:06:58Z</time>
      </trkpt>
      <trkpt lat="43.41844" lon="2.04711">
        <ele>618</ele>
        <time>2025-09-17T11:07:06Z</time>
      </trkpt>
      <trkpt lat="43.41868" lon="2.04702">
        <ele>616</ele>
        <time>2025-09-17T11:07:10Z</time>
      </trkpt>
      <trkpt lat="43.41916" lon="2.04695">
        <ele>613</ele>
        <time>2025-09-17T11:07:19Z</time>
      </trkpt>
      <trkpt lat="43.41949" lon="2.04693">
        <ele>611</ele>
        <time>2025-09-17T11:07:25Z</time>
      </trkpt>
      <trkpt lat="43.4197" lon="2.04695">
        <ele>610</ele>
        <time>2025-09-17T11:07:28Z</time>
      </trkpt>
      <trkpt lat="43.42001" lon="2.04703">
        <ele>609</ele>
        <time>2025-09-17T11:07:34Z</time>
      </trkpt>
      <trkpt lat="43.42015" lon="2.04705">
        <ele>608</ele>
        <time>2025-09-17T11:07:37Z</time>
      </trkpt>
      <trkpt lat="43.42032" lon="2.04704">
        <ele>606</ele>
        <time>2025-09-17T11:07:40Z</time>
      </trkpt>
      <trkpt lat="43.42045" lon="2.04701">
        <ele>604</ele>
        <time>2025-09-17T11:07:42Z</time>
      </trkpt>
      <trkpt lat="43.42056" lon="2.04698">
        <ele>603</ele>
        <time>2025-09-17T11:07:44Z</time>
      </trkpt>
      <trkpt lat="43.42069" lon="2.04686">
        <ele>602</ele>
        <time>2025-09-17T11:07:47Z</time>
      </trkpt>
      <trkpt lat="43.42079" lon="2.04671">
        <ele>600</ele>
        <time>2025-09-17T11:07:49Z</time>
      </trkpt>
      <trkpt lat="43.42094" lon="2.0464">
        <ele>595</ele>
        <time>2025-09-17T11:07:54Z</time>
      </trkpt>
      <trkpt lat="43.42109" lon="2.04616">
        <ele>591</ele>
        <time>2025-09-17T11:07:58Z</time>
      </trkpt>
      <trkpt lat="43.42121" lon="2.04604">
        <ele>589</ele>
        <time>2025-09-17T11:08:01Z</time>
      </trkpt>
      <trkpt lat="43.42122" lon="2.0463">
        <ele>591</ele>
        <time>2025-09-17T11:08:04Z</time>
      </trkpt>
      <trkpt lat="43.42117" lon="2.04672">
        <ele>593</ele>
        <time>2025-09-17T11:08:10Z</time>
      </trkpt>
      <trkpt lat="43.42103" lon="2.04751">
        <ele>595</ele>
        <time>2025-09-17T11:08:20Z</time>
      </trkpt>
      <trkpt lat="43.42089" lon="2.04843">
        <ele>590</ele>
        <time>2025-09-17T11:08:32Z</time>
      </trkpt>
      <trkpt lat="43.42072" lon="2.04931">
        <ele>588</ele>
        <time>2025-09-17T11:08:44Z</time>
      </trkpt>
      <trkpt lat="43.42068" lon="2.04971">
        <ele>587</ele>
        <time>2025-09-17T11:08:49Z</time>
      </trkpt>
      <trkpt lat="43.42073" lon="2.05057">
        <ele>581</ele>
        <time>2025-09-17T11:09:01Z</time>
      </trkpt>
      <trkpt lat="43.42076" lon="2.05066">
        <ele>581</ele>
        <time>2025-09-17T11:09:02Z</time>
      </trkpt>
      <trkpt lat="43.42079" lon="2.05076">
        <ele>580</ele>
        <time>2025-09-17T11:09:03Z</time>
      </trkpt>
      <trkpt lat="43.42083" lon="2.05094">
        <ele>579</ele>
        <time>2025-09-17T11:09:06Z</time>
      </trkpt>
      <trkpt lat="43.42091" lon="2.05108">
        <ele>579</ele>
        <time>2025-09-17T11:09:08Z</time>
      </trkpt>
      <trkpt lat="43.42094" lon="2.05113">
        <ele>579</ele>
        <time>2025-09-17T11:09:09Z</time>
      </trkpt>
      <trkpt lat="43.42107" lon="2.05121">
        <ele>578</ele>
        <time>2025-09-17T11:09:11Z</time>
      </trkpt>
      <trkpt lat="43.42167" lon="2.05148">
        <ele>574</ele>
        <time>2025-09-17T11:09:23Z</time>
      </trkpt>
      <trkpt lat="43.42189" lon="2.05164">
        <ele>572</ele>
        <time>2025-09-17T11:09:27Z</time>
      </trkpt>
      <trkpt lat="43.42196" lon="2.05174">
        <ele>570</ele>
        <time>2025-09-17T11:09:29Z</time>
      </trkpt>
      <trkpt lat="43.42218" lon="2.05184">
        <ele>567</ele>
        <time>2025-09-17T11:09:33Z</time>
      </trkpt>
      <trkpt lat="43.42234" lon="2.05187">
        <ele>565</ele>
        <time>2025-09-17T11:09:36Z</time>
      </trkpt>
      <trkpt lat="43.42276" lon="2.05178">
        <ele>562</ele>
        <time>2025-09-17T11:09:43Z</time>
      </trkpt>
      <trkpt lat="43.42316" lon="2.05171">
        <ele>559</ele>
        <time>2025-09-17T11:09:51Z</time>
      </trkpt>
      <trkpt lat="43.42342" lon="2.05172">
        <ele>557</ele>
        <time>2025-09-17T11:09:55Z</time>
      </trkpt>
      <trkpt lat="43.42374" lon="2.05185">
        <ele>555</ele>
        <time>2025-09-17T11:10:01Z</time>
      </trkpt>
      <trkpt lat="43.42428" lon="2.05225">
        <ele>551</ele>
        <time>2025-09-17T11:10:12Z</time>
      </trkpt>
      <trkpt lat="43.42452" lon="2.05249">
        <ele>548</ele>
        <time>2025-09-17T11:10:17Z</time>
      </trkpt>
      <trkpt lat="43.4247" lon="2.05256">
        <ele>546</ele>
        <time>2025-09-17T11:10:21Z</time>
      </trkpt>
      <trkpt lat="43.42489" lon="2.05253">
        <ele>546</ele>
        <time>2025-09-17T11:10:24Z</time>
      </trkpt>
      <trkpt lat="43.42538" lon="2.05212">
        <ele>541</ele>
        <time>2025-09-17T11:10:34Z</time>
      </trkpt>
      <trkpt lat="43.42592" lon="2.05169">
        <ele>539</ele>
        <time>2025-09-17T11:10:45Z</time>
      </trkpt>
      <trkpt lat="43.42649" lon="2.0513">
        <ele>533</ele>
        <time>2025-09-17T11:10:57Z</time>
      </trkpt>
      <trkpt lat="43.42695" lon="2.05091">
        <ele>532</ele>
        <time>2025-09-17T11:11:06Z</time>
      </trkpt>
      <trkpt lat="43.42719" lon="2.0506">
        <ele>532</ele>
        <time>2025-09-17T11:11:12Z</time>
      </trkpt>
      <trkpt lat="43.4274" lon="2.05025">
        <ele>530</ele>
        <time>2025-09-17T11:11:18Z</time>
      </trkpt>
      <trkpt lat="43.42782" lon="2.04938">
        <ele>524</ele>
        <time>2025-09-17T11:11:31Z</time>
      </trkpt>
      <trkpt lat="43.42801" lon="2.04869">
        <ele>518</ele>
        <time>2025-09-17T11:11:41Z</time>
      </trkpt>
      <trkpt lat="43.42807" lon="2.04823">
        <ele>513</ele>
        <time>2025-09-17T11:11:47Z</time>
      </trkpt>
      <trkpt lat="43.42805" lon="2.04765">
        <ele>506</ele>
        <time>2025-09-17T11:11:55Z</time>
      </trkpt>
      <trkpt lat="43.42797" lon="2.04714">
        <ele>497</ele>
        <time>2025-09-17T11:12:01Z</time>
      </trkpt>
      <trkpt lat="43.42806" lon="2.04687">
        <ele>494</ele>
        <time>2025-09-17T11:12:05Z</time>
      </trkpt>
      <trkpt lat="43.4281" lon="2.04684">
        <ele>494</ele>
        <time>2025-09-17T11:12:06Z</time>
      </trkpt>
      <trkpt lat="43.42827" lon="2.04673">
        <ele>495</ele>
        <time>2025-09-17T11:12:09Z</time>
      </trkpt>
      <trkpt lat="43.42985" lon="2.04606">
        <ele>475</ele>
        <time>2025-09-17T11:12:39Z</time>
      </trkpt>
      <trkpt lat="43.43042" lon="2.0458">
        <ele>467</ele>
        <time>2025-09-17T11:12:49Z</time>
      </trkpt>
      <trkpt lat="43.43121" lon="2.04548">
        <ele>449</ele>
        <time>2025-09-17T11:13:04Z</time>
      </trkpt>
      <trkpt lat="43.43128" lon="2.0455">
        <ele>449</ele>
        <time>2025-09-17T11:13:05Z</time>
      </trkpt>
      <trkpt lat="43.4314" lon="2.04559">
        <ele>449</ele>
        <time>2025-09-17T11:13:08Z</time>
      </trkpt>
      <trkpt lat="43.43149" lon="2.04569">
        <ele>449</ele>
        <time>2025-09-17T11:13:10Z</time>
      </trkpt>
      <trkpt lat="43.43157" lon="2.04584">
        <ele>451</ele>
        <time>2025-09-17T11:13:12Z</time>
      </trkpt>
      <trkpt lat="43.43165" lon="2.04608">
        <ele>451</ele>
        <time>2025-09-17T11:13:16Z</time>
      </trkpt>
      <trkpt lat="43.4317" lon="2.04631">
        <ele>450</ele>
        <time>2025-09-17T11:13:19Z</time>
      </trkpt>
      <trkpt lat="43.43179" lon="2.0468">
        <ele>446</ele>
        <time>2025-09-17T11:13:25Z</time>
      </trkpt>
      <trkpt lat="43.43181" lon="2.047">
        <ele>443</ele>
        <time>2025-09-17T11:13:28Z</time>
      </trkpt>
      <trkpt lat="43.43179" lon="2.0472">
        <ele>442</ele>
        <time>2025-09-17T11:13:30Z</time>
      </trkpt>
      <trkpt lat="43.43173" lon="2.04758">
        <ele>440</ele>
        <time>2025-09-17T11:13:35Z</time>
      </trkpt>
      <trkpt lat="43.43174" lon="2.04768">
        <ele>438</ele>
        <time>2025-09-17T11:13:37Z</time>
      </trkpt>
      <trkpt lat="43.43179" lon="2.04773">
        <ele>435</ele>
        <time>2025-09-17T11:13:38Z</time>
      </trkpt>
      <trkpt lat="43.43185" lon="2.04771">
        <ele>433</ele>
        <time>2025-09-17T11:13:39Z</time>
      </trkpt>
      <trkpt lat="43.4319" lon="2.04764">
        <ele>432</ele>
        <time>2025-09-17T11:13:40Z</time>
      </trkpt>
      <trkpt lat="43.432" lon="2.04715">
        <ele>434</ele>
        <time>2025-09-17T11:13:47Z</time>
      </trkpt>
      <trkpt lat="43.43218" lon="2.04622">
        <ele>430</ele>
        <time>2025-09-17T11:13:59Z</time>
      </trkpt>
      <trkpt lat="43.43229" lon="2.04581">
        <ele>424</ele>
        <time>2025-09-17T11:14:05Z</time>
      </trkpt>
      <trkpt lat="43.43243" lon="2.04531">
        <ele>414</ele>
        <time>2025-09-17T11:14:12Z</time>
      </trkpt>
      <trkpt lat="43.43261" lon="2.04462">
        <ele>406</ele>
        <time>2025-09-17T11:14:21Z</time>
      </trkpt>
      <trkpt lat="43.43275" lon="2.04404">
        <ele>400</ele>
        <time>2025-09-17T11:14:29Z</time>
      </trkpt>
      <trkpt lat="43.43276" lon="2.04376">
        <ele>396</ele>
        <time>2025-09-17T11:14:33Z</time>
      </trkpt>
      <trkpt lat="43.43273" lon="2.04359">
        <ele>394</ele>
        <time>2025-09-17T11:14:35Z</time>
      </trkpt>
      <trkpt lat="43.43268" lon="2.04347">
        <ele>393</ele>
        <time>2025-09-17T11:14:37Z</time>
      </trkpt>
      <trkpt lat="43.43258" lon="2.04338">
        <ele>393</ele>
        <time>2025-09-17T11:14:39Z</time>
      </trkpt>
      <trkpt lat="43.43247" lon="2.04336">
        <ele>393</ele>
        <time>2025-09-17T11:14:41Z</time>
      </trkpt>
      <trkpt lat="43.43218" lon="2.04338">
        <ele>393</ele>
        <time>2025-09-17T11:14:46Z</time>
      </trkpt>
      <trkpt lat="43.4321" lon="2.04336">
        <ele>392</ele>
        <time>2025-09-17T11:14:48Z</time>
      </trkpt>
      <trkpt lat="43.43202" lon="2.0433">
        <ele>391</ele>
        <time>2025-09-17T11:14:49Z</time>
      </trkpt>
      <trkpt lat="43.43202" lon="2.0432">
        <ele>390</ele>
        <time>2025-09-17T11:14:50Z</time>
      </trkpt>
      <trkpt lat="43.43205" lon="2.04309">
        <ele>389</ele>
        <time>2025-09-17T11:14:52Z</time>
      </trkpt>
      <trkpt lat="43.43244" lon="2.04262">
        <ele>383</ele>
        <time>2025-09-17T11:15:01Z</time>
      </trkpt>
      <trkpt lat="43.43259" lon="2.04241">
        <ele>379</ele>
        <time>2025-09-17T11:15:05Z</time>
      </trkpt>
      <trkpt lat="43.43292" lon="2.04172">
        <ele>371</ele>
        <time>2025-09-17T11:15:16Z</time>
      </trkpt>
      <trkpt lat="43.43319" lon="2.04114">
        <ele>368</ele>
        <time>2025-09-17T11:15:25Z</time>
      </trkpt>
      <trkpt lat="43.43362" lon="2.04014">
        <ele>368</ele>
        <time>2025-09-17T11:15:40Z</time>
      </trkpt>
      <trkpt lat="43.43366" lon="2.04005">
        <ele>368</ele>
        <time>2025-09-17T11:15:41Z</time>
      </trkpt>
      <trkpt lat="43.43375" lon="2.04029">
        <ele>366</ele>
        <time>2025-09-17T11:15:44Z</time>
      </trkpt>
      <trkpt lat="43.43387" lon="2.04056">
        <ele>363</ele>
        <time>2025-09-17T11:15:49Z</time>
      </trkpt>
      <trkpt lat="43.43397" lon="2.04066">
        <ele>362</ele>
        <time>2025-09-17T11:15:51Z</time>
      </trkpt>
      <trkpt lat="43.43428" lon="2.0408">
        <ele>361</ele>
        <time>2025-09-17T11:15:57Z</time>
      </trkpt>
      <trkpt lat="43.43435" lon="2.04083">
        <ele>361</ele>
        <time>2025-09-17T11:15:58Z</time>
      </trkpt>
      <trkpt lat="43.43438" lon="2.04084">
        <ele>361</ele>
        <time>2025-09-17T11:15:58Z</time>
      </trkpt>
      <trkpt lat="43.43445" lon="2.04082">
        <ele>362</ele>
        <time>2025-09-17T11:16:00Z</time>
      </trkpt>
      <trkpt lat="43.43452" lon="2.0408">
        <ele>362</ele>
        <time>2025-09-17T11:16:01Z</time>
      </trkpt>
      <trkpt lat="43.43464" lon="2.04072">
        <ele>363</ele>
        <time>2025-09-17T11:16:03Z</time>
      </trkpt>
      <trkpt lat="43.43474" lon="2.04055">
        <ele>362</ele>
        <time>2025-09-17T11:16:06Z</time>
      </trkpt>
      <trkpt lat="43.4349" lon="2.04017">
        <ele>360</ele>
        <time>2025-09-17T11:16:12Z</time>
      </trkpt>
      <trkpt lat="43.43498" lon="2.03994">
        <ele>359</ele>
        <time>2025-09-17T11:16:15Z</time>
      </trkpt>
      <trkpt lat="43.43504" lon="2.03983">
        <ele>359</ele>
        <time>2025-09-17T11:16:17Z</time>
      </trkpt>
      <trkpt lat="43.43526" lon="2.03966">
        <ele>362</ele>
        <time>2025-09-17T11:16:21Z</time>
      </trkpt>
      <trkpt lat="43.43537" lon="2.03954">
        <ele>362</ele>
        <time>2025-09-17T11:16:24Z</time>
      </trkpt>
      <trkpt lat="43.43552" lon="2.03923">
        <ele>360</ele>
        <time>2025-09-17T11:16:29Z</time>
      </trkpt>
      <trkpt lat="43.43569" lon="2.03913">
        <ele>360</ele>
        <time>2025-09-17T11:16:32Z</time>
      </trkpt>
      <trkpt lat="43.43599" lon="2.03902">
        <ele>363</ele>
        <time>2025-09-17T11:16:38Z</time>
      </trkpt>
      <trkpt lat="43.43646" lon="2.0386">
        <ele>368</ele>
        <time>2025-09-17T11:16:48Z</time>
      </trkpt>
      <trkpt lat="43.43673" lon="2.03838">
        <ele>369</ele>
        <time>2025-09-17T11:16:53Z</time>
      </trkpt>
      <trkpt lat="43.43685" lon="2.03823">
        <ele>370</ele>
        <time>2025-09-17T11:16:56Z</time>
      </trkpt>
      <trkpt lat="43.43695" lon="2.03808">
        <ele>371</ele>
        <time>2025-09-17T11:16:59Z</time>
      </trkpt>
      <trkpt lat="43.43717" lon="2.03789">
        <ele>374</ele>
        <time>2025-09-17T11:17:03Z</time>
      </trkpt>
      <trkpt lat="43.43747" lon="2.03775">
        <ele>380</ele>
        <time>2025-09-17T11:17:09Z</time>
      </trkpt>
      <trkpt lat="43.43785" lon="2.03745">
        <ele>381</ele>
        <time>2025-09-17T11:17:17Z</time>
      </trkpt>
      <trkpt lat="43.43789" lon="2.03742">
        <ele>380</ele>
        <time>2025-09-17T11:17:17Z</time>
      </trkpt>
      <trkpt lat="43.43822" lon="2.03656">
        <ele>375</ele>
        <time>2025-09-17T11:17:30Z</time>
      </trkpt>
      <trkpt lat="43.43854" lon="2.03597">
        <ele>373</ele>
        <time>2025-09-17T11:17:40Z</time>
      </trkpt>
      <trkpt lat="43.43926" lon="2.03495">
        <ele>373</ele>
        <time>2025-09-17T11:17:58Z</time>
      </trkpt>
      <trkpt lat="43.43975" lon="2.03423">
        <ele>372</ele>
        <time>2025-09-17T11:18:11Z</time>
      </trkpt>
      <trkpt lat="43.43993" lon="2.03389">
        <ele>375</ele>
        <time>2025-09-17T11:18:16Z</time>
      </trkpt>
      <trkpt lat="43.44103" lon="2.03142">
        <ele>369</ele>
        <time>2025-09-17T11:18:54Z</time>
      </trkpt>
      <trkpt lat="43.44109" lon="2.03117">
        <ele>368</ele>
        <time>2025-09-17T11:18:57Z</time>
      </trkpt>
      <trkpt lat="43.44111" lon="2.03093">
        <ele>367</ele>
        <time>2025-09-17T11:19:00Z</time>
      </trkpt>
      <trkpt lat="43.44103" lon="2.03054">
        <ele>366</ele>
        <time>2025-09-17T11:19:05Z</time>
      </trkpt>
      <trkpt lat="43.44075" lon="2.02926">
        <ele>360</ele>
        <time>2025-09-17T11:19:23Z</time>
      </trkpt>
      <trkpt lat="43.44074" lon="2.02914">
        <ele>359</ele>
        <time>2025-09-17T11:19:24Z</time>
      </trkpt>
      <trkpt lat="43.44071" lon="2.02874">
        <ele>357</ele>
        <time>2025-09-17T11:19:29Z</time>
      </trkpt>
      <trkpt lat="43.44072" lon="2.02836">
        <ele>356</ele>
        <time>2025-09-17T11:19:34Z</time>
      </trkpt>
      <trkpt lat="43.44072" lon="2.02808">
        <ele>356</ele>
        <time>2025-09-17T11:19:38Z</time>
      </trkpt>
      <trkpt lat="43.44074" lon="2.02746">
        <ele>357</ele>
        <time>2025-09-17T11:19:46Z</time>
      </trkpt>
      <trkpt lat="43.44076" lon="2.0269">
        <ele>358</ele>
        <time>2025-09-17T11:19:53Z</time>
      </trkpt>
    </trkseg>
  </trk>
</gpx>